[[{"header":{"parameterUnit":"m.s-1","parameterCategory":1,"la1":30.6,"la2":28.766,"lo1":-90.7593,"lo2":-88.6598,"dy":0.0162,"dx":0.0183,"nx":116,"ny":114,"refTime":"2023-06-21T12:00:00:Z","depth":0,"parameterNumber":2,"parameterNumberName":"U-component_of_WINDS"},"data":[0.0,0.0,0.0,0.0,0.0,0.0,0.0,0.0,0.0,0.0,0.0,0.0,0.0,0.0,0.0,0.0,0.0,0.0,0.0,0.0,0.0,0.0,0.0,0.0,0.0,0.0,0.0,0.0,0.0,0.0,0.0,0.0,0.0,0.0,0.0,0.0,0.0,0.0,0.0,0.0,0.0,0.0,0.0,0.0,0.0,0.0,0.0,0.0,0.0,0.0,0.0,0.0,0.0,0.0,0.0,0.0,0.0,0.0,0.0,0.0,0.0,0.0,0.0,0.0,0.0,0.0,0.0,0.0,0.0,0.0,0.0,0.0,0.0,0.0,0.0,0.0,0.0,0.0,0.0,0.0,0.0,0.0,0.0,0.0,0.0,0.0,0.0,0.0,0.0,0.0,0.0,0.0,0.0,0.0,0.0,0.0,0.0,0.0,0.0,0.0,0.0,0.0,0.0,0.0,0.0,0.0,0.0,0.0,0.0,0.0,0.0,0.0,0.0,0.0,0.0,0.0,0.0,0.0,0.0,0.0,0.0,0.0,0.0,0.0,0.0,0.0,0.0,0.0,0.0,0.0,0.0,0.0,0.0,0.0,0.0,0.0,0.0,0.0,0.0,0.0,0.0,0.0,0.0,0.0,0.0,0.0,0.0,0.0,0.0,0.0,0.0,0.0,0.0,0.0,0.0,0.0,0.0,0.0,0.0,0.0,0.0,0.0,0.0,0.0,0.0,0.0,0.0,0.0,0.0,0.0,0.0,0.0,0.0,0.0,0.0,0.0,0.0,0.0,0.0,0.0,0.0,0.0,0.0,0.0,0.0,0.0,0.0,0.0,0.0,0.0,0.0,0.0,0.0,0.0,0.0,0.0,0.0,0.0,0.0,0.0,0.0,0.0,0.0,0.0,0.0,0.0,0.0,0.0,0.0,0.0,0.0,0.0,0.0,0.0,0.0,0.0,0.0,0.0,0.0,0.0,0.0,0.0,0.0,0.0,0.0,0.0,0.0,0.0,0.0,0.0,0.0,0.0,0.0,0.0,0.0,0.0,0.0,0.0,0.0,0.0,0.0,0.0,0.0,0.0,0.0,0.0,0.0,0.0,0.0,0.0,0.0,0.0,0.0,0.0,0.0,0.0,0.0,0.0,0.0,0.0,0.0,0.0,0.0,0.0,0.0,0.0,0.0,0.0,0.0,0.0,0.0,0.0,0.0,0.0,0.0,0.0,0.0,0.0,0.0,0.0,0.0,0.0,0.0,0.0,0.0,0.0,0.0,0.0,0.0,0.0,0.0,0.0,0.0,0.0,0.0,0.0,0.0,0.0,0.0,0.0,0.0,0.0,0.0,0.0,0.0,0.0,0.0,0.0,0.0,0.0,0.0,0.0,0.0,0.0,0.0,0.0,0.0,0.0,0.0,0.0,0.0,0.0,0.0,0.0,0.0,0.0,0.0,0.0,0.0,0.0,0.0,0.0,0.0,0.0,0.0,0.0,0.0,0.0,0.0,0.0,0.0,0.0,0.0,0.0,0.0,0.0,0.0,0.0,0.0,0.0,0.0,0.0,0.0,0.0,0.0,0.0,0.0,0.0,0.0,0.0,0.0,0.0,0.0,0.0,0.0,0.0,0.0,0.0,0.0,0.0,0.0,0.0,0.0,0.0,0.0,0.0,0.0,0.0,0.0,0.0,0.0,0.0,0.0,0.0,0.0,0.0,0.0,0.0,0.0,0.0,0.0,0.0,0.0,0.0,0.0,0.0,0.0,0.0,0.0,0.0,0.0,0.0,0.0,0.0,0.0,0.0,0.0,0.0,0.0,0.0,0.0,0.0,0.0,0.0,0.0,0.0,0.0,0.0,0.0,0.0,0.0,0.0,0.0,0.0,0.0,0.0,0.0,0.0,0.0,0.0,0.0,0.0,0.0,0.0,0.0,0.0,0.0,0.0,0.0,0.0,0.0,0.0,0.0,0.0,0.0,0.0,0.0,0.0,0.0,0.0,0.0,0.0,0.0,0.0,0.0,0.0,0.0,0.0,0.0,0.0,0.0,0.0,0.0,0.0,0.0,0.0,0.0,0.0,0.0,0.0,0.0,0.0,0.0,0.0,0.0,0.0,0.0,0.0,0.0,0.0,0.0,0.0,0.0,0.0,0.0,0.0,0.0,0.0,0.0,0.0,0.0,0.0,0.0,0.0,0.0,0.0,0.0,0.0,0.0,0.0,0.0,0.0,0.0,0.0,0.0,0.0,0.0,0.0,0.0,0.0,0.0,0.0,0.0,0.0,0.0,0.0,0.0,0.0,0.0,0.0,0.0,0.0,0.0,0.0,0.0,0.0,0.0,0.0,0.0,0.0,0.0,0.0,0.0,0.0,0.0,0.0,0.0,0.0,0.0,0.0,0.0,0.0,0.0,0.0,0.0,0.0,0.0,0.0,0.0,0.0,0.0,0.0,0.0,0.0,0.0,0.0,0.0,0.0,0.0,0.0,0.0,0.0,0.0,0.0,0.0,0.0,0.0,0.0,0.0,0.0,0.0,0.0,0.0,0.0,0.0,0.0,0.0,0.0,0.0,0.0,0.0,0.0,0.0,0.0,0.0,0.0,0.0,0.0,0.0,0.0,0.0,0.0,0.0,0.0,0.0,0.0,0.0,0.0,0.0,0.0,0.0,0.0,0.0,0.0,0.0,0.0,0.0,0.0,0.0,0.0,0.0,0.0,0.0,0.0,0.0,0.0,0.0,0.0,0.0,0.0,0.0,0.0,0.0,0.0,0.0,0.0,0.0,0.0,0.0,0.0,0.0,0.0,0.0,0.0,0.0,0.0,0.0,0.0,0.0,0.0,0.0,0.0,0.0,0.0,0.0,0.0,0.0,0.0,0.0,0.0,0.0,0.0,0.0,0.0,0.0,0.0,0.0,0.0,0.0,0.0,0.0,0.0,0.0,0.0,0.0,0.0,0.0,0.0,0.0,0.0,0.0,0.0,0.0,0.0,0.0,0.0,0.0,0.0,0.0,0.0,0.0,0.0,0.0,0.0,0.0,0.0,0.0,0.0,0.0,0.0,0.0,0.0,0.0,0.0,0.0,0.0,0.0,0.0,0.0,0.0,0.0,0.0,0.0,0.0,0.0,0.0,0.0,0.0,0.0,0.0,0.0,0.0,0.0,0.0,0.0,0.0,0.0,0.0,0.0,0.0,0.0,0.0,0.0,0.0,0.0,0.0,0.0,0.0,0.0,0.0,0.0,0.0,0.0,0.0,0.0,0.0,0.0,0.0,0.0,0.0,0.0,0.0,0.0,0.0,0.0,0.0,0.0,0.0,0.0,0.0,0.0,0.0,0.0,0.0,0.0,0.0,0.0,0.0,0.0,0.0,0.0,0.0,0.0,0.0,0.0,0.0,0.0,0.0,0.0,0.0,0.0,0.0,0.0,0.0,0.0,0.0,0.0,0.0,0.0,0.0,0.0,0.0,0.0,0.0,0.0,0.0,0.0,0.0,0.0,0.0,0.0,0.0,0.0,0.0,0.0,0.0,0.0,0.0,0.0,0.0,0.0,0.0,0.0,0.0,0.0,0.0,0.0,0.0,0.0,0.0,0.0,0.0,0.0,0.0,0.0,0.0,0.0,0.0,0.0,0.0,0.0,0.0,0.0,0.0,0.0,0.0,0.0,0.0,0.0,0.0,0.0,0.0,0.0,0.0,0.0,0.0,0.0,0.0,0.0,0.0,0.0,0.0,0.0,0.0,0.0,0.0,0.0,0.0,0.0,0.0,0.0,0.0,0.0,0.0,0.0,0.0,0.0,0.0,0.0,0.0,0.0,0.0,0.0,0.0,0.0,0.0,0.0,0.0,0.0,0.0,0.0,0.0,0.0,0.0,0.0,0.0,0.0,0.0,0.0,0.0,0.0,0.0,0.0,0.0,0.0,0.0,0.0,0.0,0.0,0.0,0.0,0.0,0.0,0.0,0.0,0.0,0.0,0.0,0.0,0.0,0.0,0.0,0.0,0.0,0.0,0.0,0.0,0.0,0.0,0.0,0.0,0.0,0.0,0.0,0.0,0.0,0.0,0.0,0.0,0.0,0.0,0.0,0.0,0.0,0.0,0.0,0.0,0.0,0.0,0.0,0.0,0.0,0.0,0.0,0.0,0.0,0.0,0.0,0.0,0.0,0.0,0.0,0.0,0.0,0.0,0.0,0.0,0.0,0.0,0.0,0.0,0.0,0.0,0.0,0.0,0.0,0.0,0.0,0.0,0.0,0.0,0.0,0.0,0.0,0.0,0.0,0.0,0.0,0.0,0.0,0.0,0.0,0.0,0.0,0.0,0.0,0.0,0.0,0.0,0.0,0.0,0.0,0.0,0.0,0.0,0.0,0.0,0.0,0.0,0.0,0.0,0.0,0.0,0.0,0.0,0.0,0.0,0.0,0.0,0.0,0.0,0.0,0.0,0.0,0.0,0.0,0.0,0.0,0.0,0.0,0.0,0.0,0.0,0.0,0.0,0.0,0.0,0.0,0.0,0.0,0.0,0.0,0.0,0.0,0.0,0.0,0.0,0.0,0.0,0.0,0.0,0.0,0.0,0.0,0.0,0.0,0.0,0.0,0.0,0.0,0.0,0.0,0.0,0.0,0.0,0.0,0.0,0.0,0.0,0.0,0.0,0.0,0.0,0.0,0.0,0.0,0.0,0.0,0.0,0.0,0.0,0.0,0.0,0.0,0.0,0.0,0.0,0.0,0.0,0.0,0.0,0.0,0.0,0.0,0.0,0.0,0.0,0.0,0.0,0.0,0.0,0.0,0.0,0.0,0.0,0.0,0.0,0.0,0.0,0.0,0.0,0.0,0.0,0.0,0.0,0.0,0.0,0.0,0.0,0.0,0.0,0.0,0.0,0.0,0.0,0.0,0.0,0.0,0.0,0.0,0.0,0.0,0.0,0.0,0.0,0.0,0.0,0.0,0.0,0.0,0.0,0.0,0.0,0.0,0.0,0.0,0.0,0.0,0.0,0.0,0.0,0.0,0.0,0.0,0.0,0.0,0.0,0.0,0.0,0.0,0.0,0.0,0.0,0.0,0.0,0.0,0.0,0.0,0.0,0.0,0.0,0.0,0.0,0.0,0.0,0.0,0.0,0.0,0.0,0.0,0.0,0.0,0.0,0.0,0.0,0.0,0.0,0.0,0.0,0.0,0.0,0.0,0.0,0.0,0.0,0.0,0.0,0.0,0.0,0.0,0.0,0.0,0.0,0.0,0.0,0.0,0.0,0.0,0.0,0.0,0.0,0.0,0.0,0.0,0.0,0.0,0.0,0.0,0.0,0.0,0.0,0.0,0.0,0.0,0.0,0.0,0.0,0.0,0.0,0.0,0.0,0.0,0.0,0.0,0.0,0.0,0.0,0.0,0.0,0.0,0.0,0.0,0.0,0.0,0.0,0.0,0.0,0.0,0.0,0.0,0.0,0.0,0.0,0.0,0.0,0.0,0.0,0.0,0.0,0.0,0.0,0.0,0.0,0.0,0.0,0.0,0.0,0.0,0.0,0.0,0.0,0.0,0.0,0.0,0.0,0.0,0.0,0.0,0.0,0.0,0.0,0.0,0.0,0.0,0.0,0.0,0.0,0.0,0.0,0.0,0.0,0.0,0.0,0.0,0.0,0.0,0.0,0.0,0.0,0.0,0.0,0.0,0.0,0.0,0.0,0.0,0.0,0.0,0.0,0.0,0.0,0.0,0.0,0.0,0.0,0.0,0.0,0.0,0.0,0.0,0.0,0.0,0.0,0.0,0.0,0.0,0.0,0.0,0.0,0.0,0.0,0.0,0.0,0.0,0.0,0.0,0.0,0.0,0.0,0.0,0.0,0.0,0.0,0.0,0.0,0.0,0.0,0.0,0.0,0.0,0.0,0.0,0.0,0.0,0.0,0.0,0.0,0.0,0.0,0.0,0.0,0.0,0.0,0.0,0.0,0.0,0.0,0.0,0.0,0.0,0.0,0.0,0.0,0.0,0.0,0.0,0.0,0.0,0.0,0.0,0.0,0.0,0.0,0.0,0.0,0.0,0.0,0.0,0.0,0.0,0.0,0.0,0.0,0.0,0.0,0.0,0.0,0.0,0.0,0.0,-2.0614,-2.1376,0.0,0.0,0.0,0.0,0.0,0.0,0.0,0.0,0.0,0.0,0.0,0.0,0.0,0.0,0.0,0.0,0.0,0.0,0.0,0.0,0.0,0.0,0.0,0.0,0.0,0.0,0.0,0.0,0.0,0.0,0.0,0.0,0.0,0.0,0.0,0.0,0.0,0.0,0.0,0.0,0.0,0.0,0.0,0.0,0.0,0.0,0.0,0.0,0.0,0.0,0.0,0.0,0.0,0.0,0.0,0.0,0.0,0.0,0.0,0.0,0.0,0.0,0.0,0.0,0.0,0.0,0.0,0.0,0.0,0.0,0.0,0.0,0.0,0.0,0.0,0.0,0.0,0.0,0.0,0.0,0.0,0.0,0.0,0.0,0.0,0.0,0.0,0.0,0.0,0.0,0.0,0.0,0.0,0.0,0.0,0.0,0.0,0.0,0.0,0.0,0.0,0.0,0.0,0.0,0.0,0.0,0.0,0.0,0.0,0.0,0.0,0.0,0.0,0.0,-2.0819,-2.0696,0.0,0.0,0.0,0.0,0.0,0.0,0.0,0.0,0.0,0.0,0.0,0.0,0.0,0.0,0.0,0.0,0.0,0.0,0.0,0.0,0.0,0.0,0.0,0.0,0.0,0.0,0.0,0.0,0.0,0.0,0.0,0.0,0.0,0.0,0.0,0.0,0.0,0.0,0.0,0.0,0.0,0.0,0.0,0.0,0.0,0.0,0.0,0.0,0.0,0.0,0.0,0.0,0.0,0.0,0.0,0.0,0.0,0.0,0.0,0.0,0.0,0.0,0.0,0.0,0.0,0.0,0.0,0.0,0.0,0.0,0.0,0.0,0.0,0.0,0.0,0.0,0.0,0.0,0.0,0.0,0.0,0.0,0.0,0.0,0.0,0.0,0.0,0.0,0.0,0.0,0.0,0.0,0.0,0.0,0.0,0.0,0.0,0.0,0.0,0.0,0.0,0.0,0.0,0.0,0.0,0.0,0.0,0.0,-1.8426,-1.946,-2.1409,-2.0769,-2.0854,-2.1427,-2.0246,-1.9272,-1.8594,-1.9478,0.0,0.0,0.0,0.0,0.0,0.0,0.0,0.0,0.0,0.0,0.0,0.0,0.0,0.0,0.0,0.0,0.0,0.0,0.0,0.0,0.0,0.0,0.0,0.0,0.0,0.0,0.0,0.0,0.0,0.0,0.0,0.0,0.0,0.0,0.0,0.0,0.0,0.0,-2.0644,-2.0605,-2.0605,-2.0605,-2.0605,0.0,0.0,0.0,0.0,0.0,0.0,0.0,0.0,0.0,0.0,0.0,0.0,0.0,0.0,0.0,0.0,0.0,0.0,0.0,0.0,0.0,0.0,0.0,0.0,0.0,0.0,0.0,0.0,0.0,0.0,0.0,0.0,0.0,0.0,0.0,0.0,0.0,0.0,0.0,0.0,0.0,0.0,0.0,-1.666,-1.67,0.0,0.0,0.0,0.0,0.0,0.0,0.0,0.0,0.0,0.0,0.0,0.0,0.0,-1.7231,-1.7085,-1.7279,-1.7796,-1.8542,-1.7516,-1.7604,-1.8689,-1.8733,-1.8259,-1.751,-1.8264,0.0,-1.9103,-1.9258,0.0,0.0,0.0,0.0,0.0,0.0,0.0,0.0,0.0,0.0,0.0,0.0,0.0,0.0,0.0,0.0,0.0,0.0,0.0,0.0,0.0,0.0,0.0,0.0,0.0,0.0,0.0,0.0,0.0,0.0,0.0,0.0,0.0,0.0,0.0,0.0,-2.0731,-2.0605,-2.0605,-2.0605,-2.0605,-2.0605,-2.0605,-2.0605,-2.0615,-2.0781,0.0,0.0,0.0,0.0,0.0,0.0,0.0,0.0,0.0,0.0,0.0,0.0,0.0,0.0,0.0,0.0,0.0,0.0,0.0,0.0,0.0,0.0,0.0,0.0,0.0,0.0,0.0,0.0,0.0,0.0,0.0,0.0,0.0,0.0,0.0,0.0,0.0,0.0,0.0,-1.7569,-1.7474,-1.7206,-1.7406,-1.7369,0.0,0.0,0.0,0.0,0.0,0.0,0.0,0.0,0.0,-1.7005,-1.6921,-1.6901,-1.6901,-1.6901,-1.7154,-1.755,-1.7137,-1.7555,-1.8555,-1.873,-1.8557,-1.8156,-1.8607,-1.862,-1.8276,-1.7935,-1.7918,-1.8055,0.0,0.0,0.0,0.0,-1.7201,-1.7201,0.0,0.0,0.0,0.0,0.0,0.0,0.0,0.0,0.0,0.0,0.0,0.0,0.0,0.0,0.0,-2.1807,0.0,0.0,0.0,0.0,0.0,0.0,0.0,0.0,0.0,0.0,0.0,0.0,-2.0654,-2.0605,-2.0605,-2.0605,-2.0605,-2.0605,-2.0605,-2.0605,-2.0605,-2.0605,-2.1182,0.0,0.0,0.0,0.0,0.0,0.0,0.0,0.0,0.0,0.0,0.0,0.0,0.0,0.0,0.0,0.0,0.0,0.0,0.0,0.0,0.0,0.0,0.0,0.0,0.0,0.0,0.0,0.0,0.0,0.0,0.0,0.0,0.0,0.0,0.0,0.0,0.0,0.0,-1.7857,-1.7836,-1.7526,-1.7675,-1.7667,0.0,0.0,0.0,0.0,0.0,0.0,-1.7092,-1.7085,-1.7085,-1.7085,-1.6894,-1.682,-1.682,-1.6894,-1.6927,-1.6934,-1.7206,-1.7712,-1.8534,-1.8963,-1.9072,-1.8819,-1.9072,-1.8767,-1.7962,-1.721,-1.7557,-1.8424,-1.7616,-1.744,-1.7582,-1.7582,-1.7582,-1.7582,0.0,0.0,0.0,0.0,0.0,0.0,0.0,0.0,0.0,0.0,0.0,0.0,0.0,0.0,-2.1807,-2.1807,-2.1807,-2.1807,0.0,0.0,0.0,0.0,0.0,0.0,0.0,0.0,0.0,-2.0605,-2.0605,-2.0605,-2.0605,-2.0605,-2.0605,-2.0605,-2.0605,-2.0605,-2.0605,-2.0605,-2.1309,-2.248,0.0,0.0,0.0,0.0,0.0,0.0,0.0,0.0,0.0,0.0,0.0,0.0,0.0,0.0,0.0,0.0,0.0,0.0,0.0,0.0,0.0,0.0,0.0,0.0,0.0,0.0,0.0,0.0,0.0,0.0,0.0,0.0,0.0,0.0,0.0,0.0,0.0,0.0,0.0,-1.7219,-1.6945,0.0,0.0,0.0,0.0,-1.7282,-1.8143,-1.8124,-1.679,-1.6727,-1.6727,-1.6727,-1.7038,-1.7179,-1.7179,-1.7454,-1.7535,-1.7535,-1.7555,-1.7615,-1.7713,-1.8708,-1.8662,-1.774,-1.8767,-1.9176,-1.902,-1.8014,-1.7601,-1.7667,-1.7615,-1.7569,-1.7582,-1.7582,-1.7582,-1.7582,0.0,0.0,0.0,0.0,0.0,0.0,0.0,0.0,0.0,0.0,0.0,0.0,0.0,-2.1807,-2.1807,-2.1807,-2.1807,-2.1731,-2.1617,0.0,0.0,0.0,0.0,0.0,0.0,0.0,-2.0722,-2.0605,-2.0605,-2.0752,-2.0996,-2.0996,-2.1152,-2.1456,-2.1456,-2.126,-2.0977,-2.0723,-2.1202,-2.2129,-2.2402,-2.3213,0.0,0.0,0.0,0.0,0.0,0.0,0.0,0.0,0.0,0.0,0.0,0.0,0.0,0.0,0.0,0.0,0.0,0.0,0.0,0.0,0.0,0.0,0.0,0.0,0.0,0.0,0.0,0.0,0.0,0.0,0.0,0.0,0.0,0.0,0.0,0.0,0.0,-1.7199,-1.7608,0.0,-1.7244,-1.793,-1.801,-1.6968,-1.7442,-1.7555,-1.7045,-1.7168,-1.7268,-1.7268,-1.7427,-1.7481,-1.7481,-1.7528,-1.7582,-1.7582,-1.7582,-1.7582,-1.7635,-1.7996,-1.7943,-1.7635,-1.7989,-1.8146,-1.8146,-1.7733,-1.7996,-1.8558,-1.7891,-1.7582,-1.7582,-1.7582,-1.7582,-1.7582,0.0,0.0,0.0,0.0,0.0,0.0,0.0,0.0,0.0,0.0,0.0,-2.1807,-2.1807,-2.1807,-2.1807,-2.1807,-2.1731,-2.1655,-2.1617,0.0,0.0,0.0,0.0,0.0,0.0,-2.0693,-2.0654,-2.0605,-2.0752,-2.0947,-2.12,-2.1346,-2.1611,-2.1885,-2.1885,-2.1728,-2.1435,-2.1133,-2.1348,-2.1924,-2.2344,-2.3027,-2.3857,0.0,0.0,0.0,0.0,0.0,0.0,0.0,0.0,0.0,0.0,0.0,0.0,0.0,0.0,0.0,0.0,0.0,0.0,0.0,0.0,0.0,0.0,0.0,0.0,0.0,0.0,0.0,0.0,0.0,0.0,0.0,0.0,0.0,0.0,0.0,-1.7199,-1.7199,-1.7666,-1.774,-1.7244,-1.7576,-1.7594,-1.7045,-1.7233,-1.7347,-1.7347,-1.7475,-1.7582,-1.7582,-1.7582,-1.7582,-1.7582,-1.7582,-1.7582,-1.7582,-1.7582,-1.7582,-1.7582,-1.7582,-1.7582,-1.7582,-1.7582,-1.7582,-1.7582,-1.7582,-1.8058,-1.8713,-1.7932,-1.7582,-1.7582,-1.7582,-1.7582,-1.7582,0.0,0.0,0.0,0.0,0.0,0.0,0.0,0.0,0.0,0.0,-2.1807,-2.1807,-2.1807,-2.1807,-2.1807,-2.1807,-2.1617,-2.1578,-2.1769,-2.1617,0.0,0.0,0.0,0.0,-2.0906,-2.0906,-2.079,-2.0625,-2.1025,-2.121,-2.1239,-2.1709,-2.1914,-2.1924,-2.1924,-2.1924,-2.1904,-2.1924,-2.1924,-2.1943,-2.2344,-2.3018,-2.3769,0.0,0.0,0.0,0.0,0.0,0.0,0.0,0.0,0.0,0.0,0.0,0.0,0.0,0.0,0.0,0.0,0.0,0.0,0.0,0.0,0.0,0.0,0.0,0.0,0.0,0.0,0.0,0.0,0.0,0.0,0.0,0.0,0.0,-1.8999,-1.8032,-1.7199,-1.7199,-1.6901,-1.6847,-1.7186,-1.7213,-1.7333,-1.7562,-1.7582,-1.7582,-1.7582,-1.7582,-1.7582,-1.7582,-1.7582,-1.7582,-1.7582,-1.7582,-1.7589,-1.7595,-1.7595,-1.7602,-1.7609,-1.7609,-1.7609,-1.7609,-1.7609,-1.7609,-1.7609,-1.7609,-1.7789,-1.7975,-1.7716,-1.7602,-1.7609,-1.7609,-1.7609,-1.7609,0.0,0.0,0.0,0.0,0.0,0.0,0.0,0.0,0.0,0.0,-2.1807,-2.1807,-2.1807,-2.1807,-2.1731,-2.1589,-2.1655,-2.1617,-2.1397,0.0,0.0,0.0,0.0,0.0,-2.0693,-2.0693,-2.0811,-2.1055,-2.1132,-2.1512,-2.2168,-2.2285,-2.25,-2.275,-2.275,-2.2627,-2.2353,-2.2666,-2.2617,-2.2353,-2.2471,-2.2832,-2.3305,0.0,0.0,0.0,0.0,0.0,0.0,0.0,0.0,0.0,0.0,0.0,0.0,0.0,0.0,0.0,0.0,0.0,0.0,0.0,0.0,0.0,0.0,0.0,0.0,0.0,0.0,0.0,0.0,0.0,0.0,0.0,0.0,-1.8108,-1.7461,-1.7265,-1.7199,-1.7199,-1.7313,-1.7375,-1.7455,-1.7514,-1.7495,-1.7575,-1.7582,-1.7582,-1.7582,-1.7582,-1.7582,-1.7582,-1.7582,-1.7582,-1.7582,-1.7582,-1.7695,-1.7862,-1.7862,-1.8036,-1.8237,-1.8237,-1.8237,-1.8237,-1.8237,-1.8237,-1.8237,-1.8237,-1.829,-1.8337,-1.8036,-1.805,-1.8237,-1.8237,-1.8237,-1.8237,0.0,0.0,0.0,0.0,0.0,0.0,0.0,0.0,0.0,0.0,-2.1807,-2.1807,-2.1807,-2.1454,-2.1377,-2.1617,-2.13,-2.1223,-2.1436,0.0,0.0,0.0,0.0,-2.0731,-2.0605,-2.0752,-2.0977,-2.119,-2.1551,-2.198,-2.2519,-2.2652,-2.2867,-2.3091,-2.3091,-2.2955,-2.275,-2.2591,-2.2368,-2.2106,-2.1705,-2.1933,-2.253,-2.2831,-2.2425,-2.1739,-2.173,-2.1462,-2.1113,-2.0987,0.0,0.0,0.0,0.0,0.0,0.0,0.0,0.0,0.0,0.0,0.0,0.0,0.0,0.0,0.0,0.0,0.0,0.0,0.0,0.0,0.0,0.0,0.0,0.0,-1.7891,-1.7932,-1.7197,-1.7221,-1.738,-1.738,-1.7534,-1.7582,-1.7582,-1.7582,-1.7582,-1.7582,-1.7582,-1.7582,-1.7582,-1.7582,-1.7582,-1.7582,-1.7709,-1.7776,-1.7776,-1.7903,-1.8056,-1.823,-1.823,-1.8323,-1.849,-1.849,-1.849,-1.849,-1.849,-1.849,-1.849,-1.849,-1.8564,-1.8644,0.0,0.0,0.0,0.0,-1.849,-1.849,0.0,0.0,0.0,0.0,0.0,0.0,0.0,0.0,0.0,0.0,0.0,-2.1807,-2.1807,-2.1098,-2.0895,-2.1568,-2.0789,-2.0634,0.0,0.0,0.0,-2.0945,-2.0731,-2.0625,-2.0713,-2.1035,-2.1239,-2.1337,-2.2139,-2.2539,-2.2598,-2.2916,-2.3091,-2.3091,-2.3003,-2.296,-2.2872,-2.1917,-2.1516,-2.1472,-2.0548,-2.0737,-2.1516,-2.1516,-2.1183,-2.056,-1.9626,-1.9463,-1.9585,-1.8964,0.0,0.0,0.0,0.0,0.0,0.0,0.0,0.0,0.0,0.0,0.0,0.0,0.0,0.0,0.0,0.0,0.0,0.0,0.0,0.0,0.0,0.0,0.0,0.0,-1.7582,-1.7582,-1.7582,-1.7582,-1.7582,-1.7582,-1.7582,-1.7582,-1.7582,-1.7582,-1.7582,-1.7582,-1.7582,-1.7595,-1.7629,0.0,0.0,0.0,0.0,-1.8042,-1.8042,-1.8357,-1.851,-1.8544,-1.8544,-1.8557,-1.8591,-1.8591,-1.8591,-1.8591,-1.8591,-1.8591,-1.8591,-1.8591,-1.8738,-1.8945,-1.8691,-1.8591,-1.8591,-1.8591,-1.8591,-1.8591,0.0,0.0,0.0,0.0,0.0,0.0,0.0,0.0,0.0,-2.1807,-2.1807,-2.1807,-2.1807,-2.1645,-2.1252,-2.0557,-2.0469,-2.0469,0.0,0.0,-2.1167,-2.1128,-2.0809,-2.085,-2.1322,-2.1231,-2.1531,-2.2266,-2.2432,-2.2685,-2.2974,-2.3052,-2.3091,-2.3057,-2.2325,-2.1961,-2.1926,-2.0917,-2.0503,-2.0458,-2.0277,-2.0331,-2.0503,-2.0503,-1.9965,-1.9201,-1.9264,-1.8844,-1.8245,-1.8333,-1.8569,-1.8803,-1.8862,0.0,0.0,0.0,0.0,0.0,0.0,0.0,0.0,0.0,0.0,0.0,0.0,0.0,0.0,0.0,0.0,0.0,0.0,0.0,0.0,-1.7687,-1.7582,-1.7582,-1.7582,-1.7582,-1.7582,-1.7582,-1.7582,-1.7582,-1.7582,-1.7582,-1.7582,-1.7582,-1.7582,-1.7695,-1.7889,-1.7902,-1.807,-1.831,-1.8377,-1.8404,-1.8404,-1.8464,-1.8611,-1.8838,-1.8838,0.0,-1.9256,-1.9256,-1.9256,-1.9256,-1.9256,-1.9256,-1.9256,-1.9256,-1.9232,-1.9279,-1.9219,-1.9256,-1.9256,-1.9256,-1.9256,-1.9256,0.0,0.0,0.0,0.0,0.0,0.0,0.0,0.0,0.0,0.0,-2.1807,-2.1807,-2.1807,-2.1405,-2.1098,-2.1021,-2.1098,0.0,0.0,-2.1156,-2.132,-2.1205,-2.1012,-2.1095,-2.1491,-2.1648,-2.1958,-2.251,-2.2682,-2.2886,-2.3091,-2.3091,-2.2872,-2.2369,-2.1926,-2.1418,-2.0872,-1.9923,-1.9513,-1.9467,-1.8964,-1.8734,-1.878,-1.933,-1.8926,-1.8079,-1.8254,-1.7985,-1.7618,-1.7947,-1.8167,-1.8357,-1.8686,-1.8899,-1.9067,0.0,0.0,0.0,0.0,0.0,0.0,0.0,0.0,0.0,0.0,0.0,0.0,0.0,0.0,-1.962,0.0,0.0,-1.8115,-1.7852,-1.7694,-1.7582,-1.7582,-1.7582,-1.7582,-1.7582,-1.7582,-1.7582,-1.7582,-1.7582,-1.7582,-1.7582,-1.7722,-1.7883,-1.7982,-1.8135,-1.8337,-1.8484,-1.8631,-1.8704,-1.8704,-1.8858,-1.9005,-1.9145,-1.9145,-1.9225,-1.9424,-1.9424,-1.9424,-1.9424,-1.9424,-1.9424,-1.9424,-1.9424,-1.9424,-1.9424,-1.9424,-1.9424,-1.9424,-1.9424,-1.9424,-1.9424,0.0,0.0,0.0,0.0,0.0,0.0,0.0,0.0,0.0,0.0,-2.1807,-2.1807,-2.1807,-2.1175,-2.0972,0.0,0.0,0.0,0.0,-2.1425,-2.1436,-2.1282,-2.1167,-2.134,-2.17,-2.1986,-2.2254,-2.2413,-2.2698,-2.2731,-2.2545,-2.2545,-2.2138,-2.1418,-2.1239,-2.0692,-1.9877,-1.8926,-1.8519,-1.8427,-1.7652,-1.7279,-1.7372,-1.8195,-1.8017,-1.7279,-1.7279,-1.7279,-1.7323,-1.7633,-1.7765,-1.7911,-1.843,-1.8686,-1.884,-1.9103,-1.9228,0.0,0.0,0.0,0.0,0.0,0.0,0.0,0.0,0.0,-1.9279,-1.9279,-1.9279,-1.9175,-1.8921,-1.8646,-1.8318,-1.8016,-1.7799,-1.7641,-1.7635,-1.7635,-1.7641,-1.7635,-1.7635,-1.7641,-1.7635,-1.7688,-1.7775,-1.7669,-1.7956,-1.8102,-1.8162,-1.8444,-1.8597,-1.8657,-1.8891,-1.9011,-1.9011,-1.9252,-1.9424,-1.9424,-1.9424,-1.9424,-1.9424,-1.9424,-1.9424,-1.9424,-1.9424,-1.9424,-1.943,-1.9491,-1.9511,-1.9459,-1.9512,-1.9539,-1.9519,-1.947,-1.9424,-1.9424,0.0,0.0,0.0,0.0,0.0,0.0,0.0,0.0,0.0,0.0,0.0,0.0,0.0,0.0,0.0,0.0,0.0,0.0,-2.0615,-2.1185,-2.1512,-2.1474,-2.1128,-2.1411,-2.2351,-2.2103,-2.1961,-2.2064,-2.1933,-2.1418,-2.0503,-2.0503,-2.0458,-2.0322,-1.9513,-1.9063,-1.888,-1.7878,-1.7466,-1.7466,-1.7326,-1.7279,-1.7326,-1.7419,-1.7419,-1.7279,-1.7279,-1.7279,-1.7333,-1.7323,-1.7527,-1.783,-1.7904,-1.8321,-1.8796,-1.8833,0.0,-1.9279,-1.9279,-1.9279,-1.9279,-1.9279,-1.9279,-1.9279,0.0,0.0,-1.9279,-1.9279,-1.9123,-1.8921,-1.8928,-1.8646,-1.8318,-1.8016,-1.7964,-1.7852,-1.7635,-1.7799,-1.7852,-1.7635,-1.7799,-1.7852,-1.7635,-1.8096,-1.8266,-1.7996,-1.827,-1.8557,-1.8811,-1.8858,-1.8998,-1.9259,-1.9299,-1.9319,-1.9319,-1.9352,-1.9424,-1.9424,-1.9424,-1.9424,-1.9424,-1.9424,-1.9424,-1.9424,-1.9424,-1.9424,-1.945,-1.9646,-1.9753,-1.978,-2.0034,-2.0134,-2.0074,-1.9559,-1.9424,-1.9424,0.0,0.0,0.0,0.0,0.0,0.0,0.0,0.0,0.0,0.0,0.0,0.0,0.0,0.0,0.0,0.0,0.0,0.0,-2.1252,-2.1059,-2.1136,-2.1655,-2.0925,-2.1056,-2.2231,-2.198,-2.2028,-2.2486,-2.2356,-2.1905,-2.1051,-2.1051,-2.0466,-1.9376,-1.8972,-1.8473,-1.7924,-1.7466,-1.7279,-1.7279,-1.7279,-1.7279,-1.7279,-1.7279,-1.7279,-1.7279,-1.7279,-1.7279,0.0,0.0,-1.7374,-1.756,-1.7757,-1.7999,-1.8262,-1.8445,-1.8606,0.0,-1.8942,-1.9133,-1.9279,-1.9279,-1.9279,-1.9279,-1.9279,-1.9279,-1.9279,-1.9279,-1.9227,-1.9123,-1.9123,-1.8914,-1.8653,0.0,-1.8384,-1.8213,-1.8055,-1.816,-1.8115,-1.7852,-1.8227,-1.8408,-1.8156,-1.8346,-1.8604,-1.8823,-1.896,-1.9072,-1.9194,-1.9199,-1.9239,-1.9424,-1.9424,-1.9424,-1.9424,-1.9424,-1.9424,-1.9424,-1.9424,-1.9424,-1.9424,-1.9424,-1.9459,-1.9619,-1.9619,-1.9713,-1.988,-2.018,-2.0234,-2.0067,-2.0603,-2.0651,-2.0442,-2.002,-1.9873,-1.9873,0.0,0.0,0.0,0.0,0.0,0.0,0.0,0.0,0.0,0.0,0.0,0.0,0.0,0.0,0.0,0.0,0.0,0.0,0.0,-2.0857,-2.0653,-2.1011,-2.0274,-2.031,-2.1292,-2.1401,-2.1522,-2.1608,-2.1787,-2.1386,-2.0454,-2.0409,-1.9649,-1.838,-1.838,-1.7963,-1.7279,-1.7279,-1.7279,-1.7279,-1.7279,-1.7279,-1.7279,-1.7279,-1.7279,-1.7279,-1.7279,-1.7279,0.0,0.0,-1.7279,-1.7323,-1.7611,-1.7743,-1.786,-1.8101,-1.8233,-1.8372,-1.8701,-1.8964,-1.9162,-1.9302,-1.9279,-1.9279,-1.9279,-1.9279,-1.9279,-1.9279,-1.9279,-1.9279,-1.9279,-1.9123,-1.8974,-1.8921,-1.8705,-1.8534,-1.8422,-1.8475,-1.8429,-1.8115,-1.8626,-1.8961,-1.8888,-1.8754,-1.8932,-1.9348,-1.9379,-1.9387,-1.9387,-1.9425,-1.9424,-1.9424,-1.9424,-1.9424,-1.9424,-1.9482,-1.9533,-1.9533,-1.9591,-1.9649,-1.9655,-1.9737,-1.9933,-2.0152,-2.0099,-2.016,-2.0355,-2.0679,-2.072,-2.0544,-2.1106,-2.1202,-2.108,-2.072,-2.0496,-2.0348,0.0,0.0,0.0,0.0,0.0,0.0,0.0,0.0,0.0,0.0,0.0,0.0,0.0,0.0,0.0,0.0,0.0,0.0,0.0,-2.0498,-2.007,-1.9116,-1.9036,-1.9146,-1.9388,-2.0192,-1.9975,-1.8621,-1.9204,-1.8752,-1.7326,-1.7145,-1.7171,-1.7326,-1.7326,-1.7326,-1.7279,-1.7279,-1.7279,-1.7279,-1.7279,-1.7279,-1.7279,-1.7279,-1.7279,-1.7279,-1.7279,0.0,0.0,0.0,-1.7279,-1.7279,-1.7293,-1.756,0.0,-1.783,-1.8057,-1.8372,-1.8701,-1.8796,-1.8877,-1.9199,-1.9279,-1.9279,-1.9279,-1.9279,-1.9279,-1.9279,-1.9279,-1.9279,-1.9279,-1.9272,-1.9175,-1.8921,-1.8869,-1.8757,-1.8422,-1.8698,-1.8757,-1.8429,-1.8915,-1.9388,0.0,-1.949,-1.9299,-1.9393,-1.9415,-1.941,-1.941,-1.9417,-1.9424,-1.9424,-1.9424,-1.9424,-1.9424,-1.9649,-1.9815,-1.9815,-2.0097,-2.027,-2.0284,-2.0585,-2.0886,-2.1113,-2.0818,-2.0705,-2.0739,-2.1033,-2.1156,-2.1183,-2.1471,-2.1769,-2.202,-2.1706,-2.1218,-2.0651,0.0,0.0,0.0,0.0,0.0,0.0,0.0,0.0,0.0,0.0,0.0,0.0,0.0,0.0,0.0,0.0,0.0,0.0,0.0,-2.0333,-1.9786,-1.9982,-1.8807,-1.85,-1.9267,-1.9285,-1.9191,-1.9044,-1.9243,-1.8812,-1.7858,-1.7806,-1.7426,-1.6921,-1.6741,-1.6689,-1.6689,-1.6689,-1.6689,-1.6689,-1.6689,-1.6821,-1.7011,-1.7011,-1.715,-1.7279,0.0,0.0,0.0,-1.7279,-1.7279,-1.7279,-1.7279,-1.7359,-1.7494,-1.7494,-1.7874,-1.8328,-1.8438,-1.8782,-1.914,-1.925,-1.9279,-1.9279,-1.9279,-1.9279,-1.9279,-1.9279,-1.9279,-1.9279,-1.9279,-1.9279,-1.9272,-1.9175,-1.9175,-1.9123,-1.9011,-1.9063,-1.9071,-1.8757,-1.9247,0.0,0.0,0.0,0.0,-2.0259,-1.9869,-1.9764,-1.9989,-1.9764,-1.9764,-1.9989,-1.9989,-1.9989,-1.9989,-2.0104,-2.0162,-2.0162,-2.048,-2.052,-2.0299,-2.0603,-2.0906,-2.1196,-2.0828,-2.082,-2.1009,-2.1353,-2.1339,-2.1157,-2.1692,-2.1859,-2.1796,-2.1922,-2.1665,-2.1307,0.0,0.0,0.0,0.0,0.0,0.0,0.0,0.0,0.0,0.0,0.0,0.0,0.0,0.0,0.0,0.0,0.0,0.0,0.0,0.0,-1.9816,-2.006,-1.8917,-1.8559,-1.9137,-1.9225,-1.9083,-1.8743,-1.8929,-1.8554,-1.7631,-1.7459,-1.7088,-1.6595,-1.6455,-1.6411,-1.6411,-1.6411,-1.6411,-1.6411,-1.6411,-1.6536,-1.6734,-1.6859,-1.7027,0.0,0.0,0.0,0.0,-1.7279,-1.7279,-1.7279,-1.7279,-1.7279,-1.7279,-1.7279,-1.7625,-1.8006,-1.824,-1.8606,-1.8986,-1.922,-1.9279,-1.9279,-1.9279,-1.9279,-1.9279,-1.9279,-1.9279,-1.9279,-1.9279,-1.9279,-1.9279,-1.9279,-1.9279,-1.9279,-1.9279,-1.9279,-1.9227,-1.9078,-1.9561,-1.9957,0.0,0.0,0.0,-2.0644,-2.0263,-2.004,-2.027,-2.0097,-2.0104,-2.027,-2.027,-2.027,-2.027,-2.0385,-2.0443,-2.0443,-2.064,-2.0683,-2.061,-2.0803,-2.1113,-2.1507,-2.114,-2.1123,-2.1299,-2.1488,-2.1481,-2.1299,-2.1734,-2.1859,-2.1796,-2.1859,-2.1796,-2.1607,0.0,0.0,0.0,0.0,0.0,0.0,0.0,0.0,0.0,0.0,0.0,0.0,0.0,0.0,0.0,0.0,0.0,0.0,0.0,0.0,0.0,-1.9374,-1.9335,-1.9177,-1.8859,-1.9855,-1.9471,-1.761,-1.8221,-1.7843,-1.6568,-1.6141,-1.6088,-1.6367,-1.636,-1.6367,-1.6367,-1.6367,-1.6367,-1.6367,-1.6367,-1.6375,-1.6426,-1.6734,0.0,0.0,0.0,0.0,0.0,0.0,-1.7279,-1.7279,-1.7279,-1.7279,-1.7279,-1.7279,-1.7293,-1.7494,-1.813,-1.8313,-1.8482,-1.9118,-1.9279,-1.9279,-1.9279,-1.9279,-1.9279,-1.9279,-1.9279,-1.9279,0.0,0.0,-1.9279,-1.9279,-1.9279,-1.9279,-1.9279,-1.9279,-1.9279,0.0,0.0,0.0,0.0,0.0,0.0,-2.0716,0.0,-2.0328,-2.0328,-2.0328,-2.0328,-2.0328,-2.0328,-2.0328,-2.0328,-2.0608,-2.0723,-2.0716,-2.0737,-2.0891,-2.1194,-2.1208,-2.1544,-2.2048,-2.1734,-2.1544,-2.1544,-2.1544,-2.1544,-2.1544,-2.1544,-2.1796,-2.2048,-2.1734,-2.1607,-2.1607,0.0,0.0,0.0,0.0,0.0,0.0,0.0,0.0,0.0,0.0,0.0,0.0,0.0,0.0,0.0,0.0,0.0,0.0,0.0,0.0,0.0,0.0,0.0,0.0,0.0,0.0,0.0,0.0,0.0,-1.6795,-1.6451,-1.6326,-1.6247,-1.6171,-1.5953,-1.5784,-1.5672,-1.5672,-1.5672,-1.5672,0.0,-1.5818,-1.6038,0.0,0.0,0.0,0.0,0.0,0.0,0.0,0.0,0.0,-1.7279,-1.7279,-1.7279,-1.7279,-1.7501,-1.7779,-1.8196,-1.8482,-1.8767,-1.9177,-1.9279,-1.9279,-1.9279,-1.9279,-1.9279,-1.9279,-1.9279,-1.9279,0.0,0.0,0.0,-1.9279,-1.9279,0.0,-1.9279,-1.9279,0.0,-1.9279,0.0,-2.0183,-2.0183,-2.071,0.0,0.0,-2.0565,-2.0385,-2.0608,-2.0608,-2.073,-2.0974,-2.0974,-2.0974,-2.0974,-2.1031,-2.096,-2.0723,-2.1206,-2.1355,-2.1201,-2.1425,-2.1555,-2.1734,-2.1355,-2.1235,-2.1235,-2.1235,-2.1235,-2.1235,-2.1235,-2.1425,-2.1734,-2.1607,-2.1607,-2.1607,0.0,0.0,0.0,0.0,0.0,0.0,0.0,0.0,0.0,0.0,0.0,0.0,0.0,0.0,0.0,0.0,0.0,0.0,0.0,0.0,0.0,0.0,0.0,0.0,0.0,0.0,0.0,0.0,0.0,0.0,0.0,-1.6319,-1.6203,-1.6087,-1.5824,-1.5658,-1.5541,0.0,0.0,0.0,0.0,0.0,0.0,0.0,0.0,0.0,0.0,0.0,0.0,0.0,0.0,-1.7279,-1.7279,-1.7279,-1.7279,-1.7279,0.0,-1.7706,-1.8174,-1.8438,-1.8686,-1.9162,-1.9279,-1.9279,-1.9279,-1.9279,-1.9279,-1.9279,-1.9279,-1.9279,-1.9279,-1.9279,-1.9279,0.0,0.0,0.0,-1.9279,-1.9279,-1.9279,0.0,-1.9842,0.0,-2.0183,-2.083,-2.1211,0.0,-2.0917,-2.0737,-2.0902,-2.0902,-2.1024,-2.1211,-2.1211,-2.1211,-2.1211,-2.1211,-2.1024,-2.0723,-2.1227,-2.1374,-2.1201,-2.1509,-2.1631,-2.1607,-2.1425,-2.1299,-2.1299,-2.1172,-2.1218,-2.1298,-2.1308,-2.14,-2.161,-2.1748,-2.1796,-2.1796,0.0,0.0,0.0,0.0,0.0,0.0,0.0,0.0,0.0,0.0,0.0,0.0,0.0,0.0,0.0,0.0,0.0,0.0,0.0,0.0,0.0,0.0,0.0,0.0,0.0,0.0,0.0,0.0,0.0,0.0,0.0,0.0,0.0,0.0,0.0,0.0,0.0,0.0,0.0,0.0,0.0,0.0,0.0,0.0,0.0,0.0,0.0,0.0,0.0,0.0,-1.7279,-1.7279,-1.7279,-1.7279,-1.7279,-1.7279,-1.7279,-1.7472,-1.8123,-1.8299,-1.846,-1.9111,-1.9279,-1.9279,-1.9279,-1.9279,-1.9279,-1.9279,0.0,-1.9279,-1.9279,-1.9279,-1.9279,-1.9279,0.0,-1.9279,-1.9279,-1.9279,-1.9279,-1.9279,-1.9842,-2.0183,-2.0183,-2.083,-2.1211,-2.1211,-2.1211,-2.1211,-2.1211,-2.1211,-2.1211,-2.1211,-2.1211,-2.1211,-2.1211,-2.1211,-2.1103,-2.0845,-2.1125,-2.1263,-2.1324,-2.1591,-2.17,-2.167,-2.167,-2.167,-2.167,-2.1362,-2.1388,-2.1664,-2.1652,-2.1638,-2.167,-2.1963,-2.2047,-2.2047,0.0,0.0,0.0,0.0,0.0,0.0,0.0,0.0,0.0,0.0,-2.1807,0.0,0.0,0.0,0.0,0.0,0.0,0.0,0.0,0.0,0.0,0.0,0.0,0.0,0.0,0.0,0.0,0.0,0.0,0.0,0.0,0.0,0.0,0.0,0.0,0.0,0.0,0.0,0.0,0.0,0.0,0.0,0.0,0.0,0.0,0.0,0.0,0.0,0.0,0.0,-1.7279,-1.7279,-1.7279,-1.7279,-1.7279,-1.7279,-1.7279,-1.7472,-1.8123,-1.8299,-1.846,-1.9111,-1.9279,-1.9279,-1.9279,-1.9279,0.0,0.0,-1.9279,-1.9279,-1.9279,-1.9279,-1.9279,-1.9279,-1.9279,-1.9279,-1.9279,-1.9279,-1.9279,0.0,-1.9842,-2.0183,-2.0183,-2.083,0.0,0.0,-2.1211,-2.1211,-2.1211,-2.1211,-2.1211,-2.1211,-2.1211,-2.1211,-2.1211,-2.1211,-2.1285,-2.1547,-2.1606,-2.1748,-2.1932,-2.1989,-2.2003,-2.1985,-2.1985,0.0,-2.1985,-2.1922,-2.195,-2.2006,-2.1679,-2.1753,-2.1982,-2.1843,-2.1772,-2.1772,0.0,0.0,0.0,0.0,0.0,0.0,0.0,0.0,0.0,0.0,-2.1807,-2.1807,0.0,0.0,0.0,0.0,0.0,0.0,0.0,0.0,0.0,0.0,0.0,0.0,0.0,0.0,-1.9904,-1.8669,0.0,0.0,0.0,-1.7131,-1.6886,0.0,0.0,0.0,0.0,0.0,0.0,0.0,0.0,0.0,0.0,0.0,0.0,0.0,0.0,0.0,0.0,0.0,-1.7279,-1.7279,-1.7279,-1.7279,-1.7279,-1.7279,-1.7279,-1.7472,-1.8123,-1.8299,-1.846,-1.9111,-1.9279,-1.9279,-1.9279,0.0,0.0,0.0,-1.9279,-1.9279,-1.9279,-1.9279,0.0,-1.9279,-1.9279,-1.9279,-1.9279,-1.9279,-1.9279,-1.9279,-1.9842,-2.0183,-2.0183,-2.083,-2.1211,-2.1211,-2.1211,-2.1211,-2.1211,-2.1211,-2.1211,-2.1211,-2.1211,-2.1211,-2.1211,-2.1211,-2.1372,-2.1701,-2.1869,-2.2124,-2.2385,-2.2552,-2.2525,-2.2362,-2.2362,-2.2362,-2.2362,-2.2174,-2.2201,-2.2348,-2.2006,-2.1979,-2.2132,-2.198,-2.1989,-2.1989,0.0,0.0,0.0,0.0,0.0,0.0,0.0,-2.1807,-2.1807,-2.1807,-2.1807,-2.1807,-2.1807,-2.1807,-2.1807,0.0,0.0,0.0,0.0,0.0,0.0,0.0,0.0,0.0,0.0,0.0,0.0,-1.958,-1.8868,0.0,0.0,0.0,0.0,0.0,-1.7082,-1.6599,0.0,0.0,0.0,0.0,0.0,0.0,0.0,0.0,0.0,0.0,0.0,0.0,0.0,0.0,-1.7279,-1.7279,-1.7279,-1.7279,-1.7279,-1.7279,-1.7279,-1.7472,-1.8123,-1.8299,-1.846,-1.9111,-1.9279,-1.9279,-1.9279,-1.9279,0.0,-1.9279,-1.9279,-1.9279,-1.9279,-1.9279,-1.9279,0.0,-1.9279,-1.9279,-1.9279,-1.9279,-1.9279,0.0,-1.9842,0.0,-2.0183,-2.083,0.0,-2.1211,-2.1211,-2.1211,-2.1211,-2.1211,-2.1211,-2.1211,-2.1211,-2.1211,-2.1211,-2.1276,-2.1481,-2.1803,-2.2125,-2.2432,-2.2732,-2.2988,-2.2988,-2.2738,-2.2738,-2.2738,-2.2675,-2.2418,-2.2462,-2.2649,-2.2274,-2.2147,-2.2169,-2.2023,-2.1979,-2.1979,0.0,0.0,0.0,0.0,0.0,0.0,0.0,-2.1807,-2.1807,-2.1807,-2.1807,-2.1807,-2.1807,-2.1807,-2.1807,0.0,0.0,0.0,0.0,0.0,0.0,0.0,0.0,0.0,0.0,0.0,0.0,-2.0382,-2.0304,0.0,0.0,0.0,0.0,0.0,0.0,-1.7253,-1.6648,0.0,0.0,0.0,0.0,0.0,0.0,0.0,0.0,0.0,0.0,0.0,0.0,0.0,0.0,-1.7279,-1.7279,-1.7279,-1.7279,-1.7279,0.0,0.0,-1.8123,-1.8299,-1.846,-1.9111,-1.9279,-1.9279,-1.9279,0.0,-1.9279,-1.9279,-1.9279,-1.9279,-1.9279,-1.9279,-1.9279,-1.9279,0.0,-1.9279,-1.9279,-1.9279,-1.9279,-1.9279,0.0,0.0,-2.0183,-2.083,-2.1211,-2.1211,-2.1211,-2.1211,-2.1211,-2.1211,-2.1211,-2.1211,-2.1211,-2.1211,-2.1211,-2.1503,-2.1818,-2.214,-2.244,-2.2754,-2.3062,-2.3098,-2.3113,-2.3043,-2.3043,-2.3043,0.0,-2.3043,-2.3029,-2.301,-2.2447,-2.2206,-2.2111,-2.1518,-2.1298,-2.1298,0.0,0.0,0.0,0.0,0.0,0.0,0.0,-2.1807,-2.1807,-2.1807,-2.1807,-2.1807,-2.1807,-2.2056,-2.2108,0.0,0.0,0.0,0.0,0.0,0.0,0.0,0.0,0.0,0.0,0.0,-2.1645,-2.129,-2.0779,0.0,0.0,0.0,0.0,0.0,0.0,-1.7359,-1.7082,0.0,0.0,0.0,0.0,0.0,0.0,0.0,0.0,0.0,0.0,0.0,0.0,0.0,0.0,0.0,-1.7279,-1.7279,0.0,0.0,-1.7279,-1.7472,-1.8123,-1.8299,-1.846,-1.9111,-1.9279,-1.9279,-1.9279,0.0,-1.9279,-1.9279,-1.9279,-1.9279,-1.9279,-1.9279,-1.9279,-1.9279,0.0,0.0,-1.9279,-1.9279,-1.9279,-1.9279,-1.9674,0.0,0.0,0.0,-2.0998,-2.1196,-2.1211,-2.1211,-2.1211,-2.1211,-2.1211,-2.1211,-2.1211,-2.1211,-2.1211,-2.1342,-2.1569,-2.1891,-2.2008,-2.2235,-2.2557,-2.2557,-2.2557,-2.2557,-2.2557,-2.2557,0.0,-2.2557,-2.2557,-2.2506,-2.2067,-2.1891,-2.1832,-2.1379,-2.1211,-2.1211,0.0,0.0,0.0,0.0,0.0,0.0,-2.1807,-2.1807,-2.1807,-2.1807,-2.1807,-2.1807,-2.1807,-2.2221,-2.2304,-2.1849,0.0,0.0,0.0,0.0,0.0,0.0,0.0,0.0,0.0,0.0,-2.1807,-2.1807,-2.1175,-2.1213,0.0,0.0,-1.9756,-1.9756,0.0,0.0,0.0,0.0,0.0,0.0,0.0,0.0,0.0,0.0,0.0,0.0,0.0,0.0,0.0,0.0,0.0,0.0,0.0,0.0,0.0,0.0,-1.7352,-1.7589,-1.8152,-1.8372,-1.8577,-1.914,-1.9279,-1.9279,0.0,0.0,-1.9279,-1.9279,-1.9279,-1.9279,-1.9279,-1.9279,-1.9279,0.0,0.0,-1.9279,-1.9279,-1.9279,-1.9279,-1.9279,0.0,-1.9989,-2.0161,-2.0618,-2.0962,-2.1196,-2.1211,-2.1211,-2.1211,-2.1211,-2.1211,-2.1211,-2.1211,-2.1211,-2.1211,-2.1306,-2.1467,-2.1693,-2.1796,-2.1957,-2.2184,-2.2184,-2.2184,-2.2184,-2.2184,-2.2184,0.0,-2.2184,-2.2184,-2.2154,-2.1825,-2.1693,-2.1657,-2.1328,-2.1211,-2.1211,0.0,0.0,0.0,0.0,0.0,0.0,0.0,-2.1807,-2.1807,-2.1807,-2.1807,-2.1807,-2.1807,-2.2221,-2.2304,-2.1849,0.0,0.0,0.0,0.0,0.0,0.0,0.0,0.0,0.0,0.0,-2.1807,-2.1807,-2.1807,-2.1807,-2.1807,-2.1578,-2.0547,-1.8899,0.0,0.0,0.0,0.0,0.0,0.0,0.0,0.0,0.0,0.0,0.0,0.0,0.0,0.0,0.0,0.0,0.0,0.0,0.0,0.0,0.0,0.0,-1.7505,-1.7882,-1.8211,-1.854,-1.8862,-1.9199,-1.9279,-1.9279,0.0,0.0,-1.9279,-1.9279,-1.9279,-1.9279,-1.9279,-1.9279,-1.9279,-1.9279,-1.9279,0.0,-1.9279,-1.9279,-1.9279,0.0,0.0,-2.0176,-2.0183,-2.0823,-2.1203,-2.1211,-2.1211,0.0,-2.1211,-2.1211,-2.1211,-2.1211,-2.1211,-2.1211,-2.1211,-2.1533,-2.1693,-2.1701,-2.2023,-2.2184,-2.2184,-2.2184,-2.2184,-2.2184,-2.2184,-2.2184,0.0,-2.2184,-2.2184,-2.2154,-2.1825,-2.1693,-2.1657,-2.1328,-2.1211,-2.1211,0.0,0.0,0.0,0.0,0.0,0.0,0.0,-2.1807,-2.1807,-2.1807,-2.1807,-2.1807,-2.1807,-2.2501,-2.2656,-2.188,0.0,0.0,0.0,0.0,0.0,0.0,0.0,0.0,0.0,0.0,-2.1807,-2.1807,-2.1807,-2.1807,-2.1807,-2.1578,-2.0818,-1.9541,-1.8749,-1.7787,0.0,0.0,0.0,0.0,0.0,0.0,0.0,0.0,0.0,0.0,0.0,0.0,0.0,0.0,0.0,0.0,0.0,0.0,0.0,0.0,0.0,0.0,-1.8152,-1.8379,-1.8591,-1.914,-1.9279,-1.9279,-1.9279,-1.9279,-1.9279,-1.9279,-1.9279,-1.9279,-1.9279,-1.9279,-1.9279,-1.9279,-1.9279,0.0,0.0,0.0,0.0,-1.9279,-1.9842,-2.027,0.0,0.0,-2.1211,-2.1211,-2.1211,-2.1211,-2.1211,-2.1211,-2.1211,-2.1211,-2.1211,-2.1211,-2.1211,-2.1313,-2.1364,-2.1364,-2.1467,-2.1518,-2.1518,-2.1518,-2.1518,-2.1518,-2.1518,-2.1518,-2.1518,-2.1518,-2.1518,-2.1503,-2.1408,-2.1364,-2.135,-2.1247,-2.1211,-2.1211,0.0,0.0,0.0,0.0,0.0,0.0,0.0,-2.1807,-2.1807,-2.1807,-2.1807,-2.188,-2.2045,-2.2739,-2.2956,-2.2377,0.0,0.0,0.0,0.0,0.0,0.0,0.0,0.0,0.0,-2.1807,-2.1807,-2.1807,-2.1807,-2.1807,-2.1807,-2.1655,-2.1021,-1.9855,-1.9216,-1.839,0.0,0.0,0.0,0.0,0.0,0.0,-1.8856,0.0,0.0,0.0,0.0,0.0,0.0,0.0,0.0,0.0,0.0,0.0,0.0,0.0,-1.9749,-1.902,0.0,-1.9784,-1.9895,-1.9876,-1.9879,0.0,0.0,-1.9279,-1.9279,-1.9279,-1.9279,-1.9279,-1.9279,-1.9279,-1.9279,-1.9279,-1.9279,0.0,0.0,0.0,0.0,-1.9447,0.0,0.0,0.0,-2.0903,-2.1079,-2.1203,-2.1211,-2.1211,-2.1211,-2.1211,-2.1211,-2.1211,-2.1211,-2.1211,-2.1211,-2.1211,-2.1211,-2.1211,-2.1211,-2.1211,-2.1211,-2.1211,-2.1211,-2.1211,-2.1211,-2.1211,0.0,-2.1211,-2.1211,-2.1211,-2.1211,-2.1211,-2.1211,-2.1211,-2.1211,-2.1211,0.0,0.0,0.0,0.0,0.0,0.0,0.0,0.0,0.0,0.0,-2.1838,-2.2025,-2.2449,-2.2946,-2.3225,0.0,0.0,0.0,0.0,0.0,0.0,0.0,0.0,0.0,0.0,-2.1807,-2.1807,-2.1807,-2.1807,-2.1807,-2.1807,-2.1807,-2.1126,-1.9904,-1.9904,-1.9313,-1.8296,-1.8376,-1.8966,-1.9864,-1.9529,-1.9912,0.0,0.0,0.0,0.0,0.0,0.0,0.0,0.0,0.0,0.0,0.0,0.0,0.0,0.0,0.0,0.0,0.0,-2.23,-2.2106,-2.1124,-2.0834,0.0,0.0,0.0,0.0,-1.9279,-1.9376,-1.9376,-1.9324,-1.9376,-1.9376,-1.9324,-1.9279,0.0,0.0,-1.9279,0.0,0.0,-1.9815,0.0,-2.0662,-2.072,-2.0859,-2.1181,-2.1211,-2.1211,-2.1211,-2.1211,-2.1211,-2.1211,-2.1211,-2.1211,-2.1211,-2.1211,-2.1211,-2.1211,-2.1211,-2.1211,-2.1211,-2.1211,-2.1211,0.0,-2.1211,-2.1211,-2.1211,-2.1211,-2.1211,-2.1211,-2.1211,-2.1211,-2.1211,-2.1211,-2.1211,-2.1211,0.0,0.0,0.0,0.0,0.0,0.0,0.0,0.0,0.0,0.0,-2.2118,-2.2377,-2.248,-2.3225,-2.3567,0.0,0.0,0.0,0.0,0.0,0.0,0.0,0.0,0.0,0.0,-2.1807,-2.1807,-2.1807,-2.1807,-2.1807,-2.1807,-2.1807,-2.1126,-1.9904,-1.9904,-1.9313,-1.8336,-1.9006,-1.9441,-1.9717,-2.0128,-2.0614,0.0,0.0,0.0,0.0,-2.1392,-2.188,0.0,0.0,0.0,0.0,0.0,0.0,0.0,0.0,-2.3501,-2.3684,-2.4596,0.0,-2.0887,-2.0915,-2.0285,-1.9628,0.0,0.0,0.0,0.0,0.0,0.0,0.0,0.0,-2.0285,-1.9428,0.0,-1.9279,-1.9279,-1.9279,0.0,-1.9779,-1.9815,-2.0018,-2.0662,-2.072,-2.0859,-2.1181,-2.1211,-2.1211,-2.1211,-2.1211,-2.1211,-2.1211,-2.1211,-2.1211,-2.1211,-2.1211,-2.1211,-2.1211,-2.1211,-2.1211,-2.1211,-2.1211,-2.1211,-2.1211,-2.1211,-2.1211,-2.1211,-2.1211,-2.1211,-2.1211,-2.1211,-2.1211,-2.1211,-2.1211,-2.1211,-2.1211,0.0,0.0,0.0,0.0,0.0,0.0,0.0,0.0,0.0,0.0,0.0,0.0,0.0,0.0,0.0,0.0,0.0,0.0,0.0,0.0,0.0,0.0,0.0,0.0,-2.1807,-2.1807,-2.1807,-2.1807,-2.1807,-2.1807,-2.1807,-2.1693,-2.1262,-2.0469,-2.0401,-2.005,-1.9499,-2.001,-2.0216,-2.0225,-2.0712,0.0,0.0,0.0,0.0,0.0,-2.2407,-2.3027,0.0,-2.516,-2.5693,-2.5586,0.0,0.0,0.0,0.0,-2.4815,-2.4962,-2.5538,-2.395,-2.2028,-2.1685,-2.1183,-2.0637,0.0,0.0,0.0,0.0,0.0,0.0,0.0,0.0,0.0,0.0,-1.9279,0.0,0.0,0.0,-1.9397,-1.9573,-1.9595,-1.974,0.0,-2.0281,-2.0479,-2.0955,-2.0984,-2.105,-2.1203,-2.1211,-2.1211,-2.1211,-2.1211,-2.1211,-2.1211,-2.1211,-2.1211,-2.1211,-2.1211,-2.1211,-2.1211,-2.1211,-2.1211,-2.1211,-2.1211,-2.1211,-2.1211,-2.1211,-2.1211,-2.1211,-2.1211,-2.1211,-2.1211,-2.1211,-2.1211,-2.1211,0.0,0.0,0.0,0.0,0.0,0.0,0.0,0.0,0.0,0.0,0.0,0.0,0.0,0.0,0.0,0.0,0.0,0.0,0.0,0.0,0.0,0.0,0.0,-2.1807,-2.1807,-2.1807,-2.1807,-2.1807,-2.1807,-2.1769,-2.1769,-2.1578,-2.1397,-2.1138,-2.0984,-2.0867,-2.0867,-2.0906,-2.0907,-2.0957,-2.1124,0.0,0.0,0.0,0.0,0.0,0.0,0.0,0.0,-2.5411,-2.5693,-2.5693,-2.5693,0.0,0.0,0.0,0.0,0.0,-2.5693,-2.4913,-2.389,-2.2985,-2.2634,-2.224,-2.1336,0.0,0.0,0.0,0.0,0.0,0.0,-2.0277,0.0,0.0,0.0,0.0,-1.9279,-1.9279,-1.9279,-1.9279,-1.9279,0.0,-1.9786,-1.9815,-2.0011,-2.0603,-2.0591,-2.0772,-2.105,-2.1057,-2.1057,-2.1057,-2.1057,-2.1057,-2.1057,-2.1159,-2.1211,-2.1211,-2.1211,-2.1181,-2.1137,-2.1137,-2.1108,-2.1057,-2.1057,0.0,-2.1064,-2.1115,-2.1137,-2.1137,-2.1189,-2.1211,-2.1211,-2.1211,-2.1211,-2.1211,0.0,0.0,0.0,0.0,0.0,0.0,0.0,0.0,0.0,0.0,0.0,0.0,0.0,0.0,0.0,0.0,0.0,0.0,0.0,0.0,0.0,0.0,-2.2221,-2.1807,-2.1807,-2.1807,-2.1807,-2.1807,-2.1807,-2.1693,-2.154,-2.1502,-2.132,-2.0945,-2.0906,-2.0819,-2.0654,-2.0819,-2.1007,-2.1143,-2.1171,0.0,0.0,0.0,0.0,0.0,0.0,0.0,0.0,-2.5566,-2.5693,-2.5693,-2.5693,0.0,0.0,0.0,0.0,0.0,-2.5693,-2.4913,-2.4038,-2.389,-2.3185,-2.2433,-2.2282,0.0,0.0,0.0,0.0,0.0,0.0,-2.1489,-2.1438,0.0,0.0,-1.9279,0.0,0.0,-1.9279,-1.9279,0.0,-1.9403,-1.9786,-1.9815,-1.9916,-2.0227,-2.0256,-2.0278,-2.0329,-2.0329,-2.0329,-2.0329,-2.0329,-2.0329,-2.0329,-2.0933,-2.1211,-2.1211,-2.1211,-2.1064,-2.0794,-2.0794,-2.0647,-2.0329,0.0,-2.0329,-2.0406,-2.0684,-2.0794,-2.0823,-2.1101,-2.1211,-2.1211,-2.1211,-2.1211,-2.1211,0.0,0.0,0.0,0.0,0.0,0.0,0.0,0.0,0.0,0.0,0.0,0.0,0.0,0.0,0.0,0.0,0.0,0.0,0.0,0.0,0.0,0.0,-2.2915,-2.2439,-2.218,-2.1932,-2.1807,-2.1807,-2.1807,-2.1693,-2.1502,-2.1397,-2.1118,-2.0741,-2.0974,-2.0896,-2.0625,-2.1066,-2.1214,-2.1239,0.0,0.0,0.0,0.0,0.0,0.0,0.0,0.0,0.0,0.0,-2.5693,-2.5693,-2.5693,0.0,0.0,0.0,0.0,0.0,-2.5693,-2.5323,-2.4962,-2.4962,-2.4156,-2.3335,-2.3335,0.0,0.0,0.0,0.0,0.0,0.0,0.0,-2.1132,-1.9524,0.0,-1.9279,-1.9279,-1.9279,-1.9279,0.0,0.0,-1.9338,-1.9484,-1.9551,-1.9638,-1.9952,-1.9981,-2.0055,-2.0176,-2.0183,-2.0183,-2.0183,-2.0183,-2.0183,-2.0183,-2.053,-2.0684,-2.0684,-2.0684,-2.0603,-2.0402,-2.0402,-2.0321,-2.0183,0.0,-2.0183,-2.019,-2.0343,-2.0402,-2.0479,-2.0625,-2.0794,-2.0969,-2.1145,-2.1211,-2.1211,0.0,0.0,0.0,0.0,0.0,0.0,0.0,0.0,0.0,0.0,0.0,0.0,0.0,0.0,0.0,0.0,0.0,0.0,0.0,0.0,-2.4033,-2.4033,-2.3598,-2.3132,-2.2666,-2.2201,-2.1924,-2.1886,-2.1783,-2.1617,-2.1436,-2.1282,-2.1012,-2.0693,-2.1051,-2.1023,-2.0781,-2.1283,-2.1509,-2.1551,0.0,0.0,0.0,0.0,0.0,0.0,0.0,0.0,0.0,0.0,0.0,0.0,0.0,0.0,0.0,-2.5693,-2.5693,-2.5693,-2.5693,-2.5693,-2.5664,-2.5557,-2.4993,-2.4452,-2.4452,0.0,0.0,0.0,0.0,0.0,0.0,-2.1438,0.0,-1.9428,-1.9279,-1.9279,-1.9279,-1.9279,-1.9279,-1.9279,-1.9279,-1.9279,-1.9279,-1.9279,-1.9434,-1.9683,-1.9705,-1.9755,-2.0003,-2.0011,-2.0011,-2.0011,-2.0011,-2.0011,-2.0011,-2.0011,-2.0037,-2.0183,-2.0183,-2.0194,-2.0128,-2.0128,-2.0084,-2.0011,-2.0011,-2.0011,-2.0018,-2.0091,-2.0117,-2.019,-2.0263,-2.0489,-2.0867,-2.1115,-2.1211,-2.1211,0.0,0.0,0.0,0.0,0.0,0.0,0.0,0.0,0.0,0.0,0.0,0.0,0.0,0.0,0.0,0.0,0.0,0.0,0.0,0.0,-2.4456,-2.4456,-2.4064,-2.3619,-2.3153,-2.2687,-2.2371,-2.2174,-2.1716,-2.1436,-2.1205,-2.1215,-2.1089,-2.0906,-2.1089,-2.1163,-2.1191,-2.1411,-2.1853,-2.2422,-2.249,0.0,0.0,0.0,0.0,0.0,0.0,0.0,0.0,0.0,0.0,0.0,0.0,0.0,-2.5693,-2.5693,-2.5693,-2.5693,-2.5693,-2.5693,-2.5586,-2.5215,-2.5382,0.0,-2.5586,-2.5635,0.0,-2.5693,0.0,0.0,0.0,-2.0783,-1.9376,-1.9324,-1.9279,-1.9279,-1.9279,0.0,-1.9279,-1.9279,-1.9279,-1.9279,-1.9279,-1.9279,-1.9286,-1.9308,-1.9368,-1.9323,-1.9345,-1.9345,-1.9345,-1.9345,-1.9345,-1.9345,-1.9345,-1.9345,-1.9645,-2.0183,-2.0183,-2.0084,-1.9852,-1.9852,-1.9683,-1.9345,-1.9345,-1.9345,-1.9367,-1.9727,-1.9974,-2.0212,-2.0511,-2.0889,-2.1181,-2.1203,-2.1211,-2.1211,0.0,0.0,0.0,0.0,0.0,0.0,0.0,0.0,0.0,0.0,0.0,0.0,0.0,0.0,0.0,0.0,0.0,0.0,0.0,0.0,-2.4497,-2.4497,-2.4332,-2.4209,-2.4033,-2.3135,-2.2634,-2.2554,-2.2261,-2.206,-2.203,-2.203,-2.183,-2.1518,-2.1709,-2.1768,-2.166,-2.1997,-2.2259,-2.2559,-2.3096,-2.3408,0.0,0.0,0.0,0.0,0.0,0.0,0.0,0.0,-2.5693,-2.5693,0.0,0.0,-2.5693,0.0,-2.5693,-2.5693,-2.5693,-2.5693,-2.5586,-2.5176,-2.54,0.0,0.0,-2.5537,-2.5693,-2.5693,-2.5382,0.0,0.0,0.0,-1.9532,-2.0181,-1.9732,-1.9279,-1.9279,-1.9279,-1.9279,-1.9279,-1.9279,-1.9279,-1.9279,-1.9279,-1.9279,-1.9279,-1.9279,-1.9279,-1.9279,-1.9279,-1.9279,-1.9279,-1.9279,-1.9279,-1.9279,-1.9279,-1.9396,-1.9638,-1.9638,-1.9579,-1.9514,-1.9514,-1.9448,-1.9286,-1.9544,-1.9632,-1.9601,-1.9923,-2.0128,-2.0212,-2.0596,-2.0801,-2.0933,-2.1137,-2.1211,-2.1211,0.0,0.0,0.0,0.0,0.0,0.0,0.0,0.0,0.0,0.0,0.0,0.0,0.0,0.0,0.0,0.0,0.0,0.0,0.0,-2.4497,-2.4497,-2.4497,-2.4497,-2.4497,-2.4497,-2.3668,-2.3165,-2.3012,-2.2675,-2.2482,-2.2482,-2.2482,-2.2328,-2.2009,-2.2122,-2.216,-2.2119,-2.2539,-2.2793,-2.2978,-2.3701,-2.3984,0.0,0.0,0.0,0.0,0.0,0.0,0.0,0.0,0.0,0.0,0.0,0.0,0.0,0.0,-2.5693,-2.5693,-2.5693,-2.5635,-2.5449,-2.5194,0.0,0.0,-2.5137,-2.541,-2.5693,-2.5693,-2.543,0.0,-2.3343,0.0,0.0,0.0,-1.9783,-1.9279,-1.9279,-1.9279,-1.9279,-1.9279,-1.9279,-1.9279,-1.9279,-1.9279,-1.9279,-1.9279,-1.9279,-1.9279,-1.9279,-1.9279,-1.9279,-1.9279,-1.9279,-1.9279,-1.9279,-1.9279,-1.9279,-1.9279,-1.9279,-1.9382,-1.9485,-1.9485,-1.9484,-1.9594,-1.9813,-1.9916,-1.993,-2.0142,-2.0241,-2.0365,-2.075,-2.0874,-2.0903,-2.113,-2.1145,-2.1057,0.0,0.0,0.0,0.0,0.0,0.0,0.0,0.0,0.0,0.0,0.0,0.0,0.0,0.0,0.0,0.0,0.0,0.0,0.0,-2.4497,-2.4497,-2.4497,-2.4497,-2.4497,-2.4497,-2.4282,-2.3982,-2.3481,-2.2837,-2.2492,-2.2492,-2.2492,-2.241,-2.2215,-2.2225,-2.2338,-2.2549,-2.2988,-2.3462,-2.3828,-2.4248,-2.4424,-2.4473,0.0,0.0,0.0,0.0,0.0,0.0,0.0,-2.5693,0.0,0.0,0.0,0.0,0.0,-2.5684,-2.5693,-2.5693,-2.541,-2.5116,0.0,0.0,0.0,-2.5116,-2.541,-2.5693,-2.5693,-2.4864,-2.3434,-2.1336,-2.0885,0.0,-1.948,-1.9331,-1.9279,-1.9279,-1.9279,-1.9279,-1.9279,-1.9279,-1.9279,-1.9279,-1.9279,-1.9279,-1.9279,-1.9279,-1.9279,-1.9279,-1.9279,-1.9279,-1.9279,-1.9279,-1.9279,-1.9279,-1.9279,-1.9279,-1.9279,-1.9279,-1.9447,-1.9815,-1.9815,-1.993,-2.0176,-2.0176,-2.0176,-2.0176,-2.0183,-2.0428,-2.075,-2.1079,-2.1203,-2.1203,-2.1203,-2.0998,-2.072,0.0,0.0,0.0,0.0,0.0,0.0,0.0,0.0,0.0,0.0,0.0,0.0,0.0,0.0,0.0,0.0,0.0,0.0,0.0,-2.4497,-2.4497,-2.4497,-2.4497,-2.4497,-2.4497,-2.4282,-2.4049,-2.3725,-2.3519,-2.332,-2.3202,-2.3202,-2.3064,-2.2859,-2.3173,-2.3335,-2.3437,-2.3857,-2.4111,-2.4268,-2.4697,-2.4873,-2.4922,0.0,0.0,0.0,0.0,0.0,0.0,0.0,0.0,0.0,0.0,0.0,0.0,-2.5361,-2.5488,-2.5693,-2.5693,-2.5596,0.0,-2.5194,0.0,0.0,0.0,-2.541,0.0,0.0,-2.4254,-2.2985,-2.3144,-2.1285,0.0,-2.0328,-1.9776,-1.9279,-1.9279,-1.9279,-1.9279,-1.9279,-1.9279,-1.9279,-1.9279,-1.9279,-1.9279,-1.9279,-1.9279,-1.9279,-1.9279,-1.9279,-1.9279,-1.9279,-1.9279,-1.9279,-1.9279,-1.9279,-1.9279,-1.9279,-1.9279,-1.9323,-1.9478,-1.9478,-1.9469,-1.9572,-1.9806,-1.9908,-1.9923,-2.0142,-2.0241,-2.0336,-2.0431,-2.0523,-2.0523,-2.0523,-2.0409,-2.0329,0.0,0.0,0.0,0.0,0.0,0.0,0.0,0.0,0.0,0.0,0.0,0.0,0.0,0.0,0.0,0.0,0.0,0.0,0.0,0.0,-2.4497,-2.4497,-2.4497,-2.4454,-2.4368,-2.4249,-2.4024,-2.3667,-2.3667,-2.3624,-2.3503,-2.3406,-2.3364,-2.3408,-2.3672,-2.3887,-2.4072,-2.4492,-2.4678,-2.4717,-2.5156,-2.5332,-2.5361,0.0,0.0,0.0,0.0,0.0,0.0,0.0,0.0,0.0,0.0,0.0,0.0,-2.5194,-2.5381,-2.5693,-2.5693,-2.5557,0.0,-2.5361,-2.54,-2.5449,-2.5352,0.0,0.0,0.0,-2.4667,-2.3701,-2.3493,-2.1887,0.0,-2.0285,-1.9732,-1.9279,-1.9279,-1.9279,-1.9279,-1.9279,-1.9279,-1.9279,-1.9279,-1.9279,-1.9279,-1.9279,-1.9279,-1.9279,-1.9279,-1.9279,-1.9279,-1.9279,-1.9279,-1.9279,-1.9279,-1.9279,-1.9279,-1.9279,-1.9279,-1.9279,-1.9279,-1.9463,-1.9535,-1.9667,-1.9864,-1.9952,-1.9967,-2.0157,-2.0183,-2.0183,-2.0183,-2.0183,-2.0183,-2.0183,-2.0157,-2.0047,0.0,0.0,0.0,0.0,0.0,0.0,0.0,0.0,0.0,0.0,0.0,0.0,0.0,0.0,0.0,0.0,0.0,0.0,0.0,0.0,-2.4497,-2.4497,-2.4497,-2.4411,-2.4249,-2.4206,-2.3937,-2.3547,-2.3547,-2.3523,-2.3519,-2.3291,-2.3428,-2.3848,-2.3887,-2.4121,-2.4502,-2.4941,-2.5127,-2.5213,-2.5528,-2.5693,-2.5693,-2.5693,0.0,0.0,0.0,0.0,0.0,0.0,0.0,0.0,0.0,0.0,-2.5116,-2.5116,-2.5381,-2.5693,-2.5693,0.0,0.0,-2.5586,-2.543,0.0,-2.5644,-2.5693,-2.5693,-2.5693,0.0,-2.4922,-2.2894,-2.2433,-2.1684,-1.9628,-1.9279,-1.9279,-1.9279,-1.9279,-1.9279,-1.9279,-1.9279,-1.9279,-1.9279,-1.9279,-1.9279,-1.9279,-1.9279,-1.9279,-1.9279,-1.9279,-1.9279,-1.9279,-1.9279,-1.9279,-1.9279,-1.9279,-1.9279,-1.9279,-1.9279,-1.9279,-1.9286,-1.9639,-1.9879,-2.0095,-2.0095,-2.0095,-2.0095,-2.0095,-2.0095,-2.0095,-2.0095,-2.0095,-2.0095,-2.0095,-1.9967,-1.9771,0.0,0.0,0.0,0.0,0.0,0.0,0.0,0.0,0.0,0.0,0.0,0.0,0.0,0.0,0.0,0.0,0.0,0.0,0.0,0.0,-2.4497,-2.4497,-2.4497,-2.4497,-2.4454,-2.4057,-2.3851,-2.3754,-2.3754,-2.3759,-2.3742,-2.3697,-2.3877,-2.4297,-2.4639,-2.4891,-2.4961,-2.54,-2.5596,-2.5605,-2.5654,-2.5693,-2.5693,-2.5693,-2.5693,0.0,0.0,0.0,0.0,0.0,0.0,0.0,-2.4668,-2.4785,-2.5116,-2.5116,-2.5381,-2.5693,-2.5693,-2.5615,0.0,0.0,-2.5615,-2.5567,-2.5664,-2.5693,-2.5693,-2.5693,-2.502,-2.4048,-2.2735,-2.1836,-2.0834,-1.9524,-1.9279,-1.9279,-1.9279,-1.9279,-1.9279,-1.9279,-1.9279,-1.9279,-1.9279,-1.9279,-1.9279,-1.9279,-1.9279,-1.9279,-1.9279,-1.9279,-1.9279,-1.9279,-1.9279,-1.9279,-1.9279,-1.9279,-1.9279,-1.9279,-1.9279,-1.9279,-1.9279,-1.9345,-1.9418,-1.9484,-1.9484,-1.9484,-1.9484,-1.9484,-1.9484,-1.9484,-1.9484,-1.9484,-1.9484,-1.9484,-1.944,-1.9434,0.0,0.0,0.0,0.0,0.0,0.0,0.0,0.0,0.0,0.0,0.0,0.0,0.0,0.0,0.0,0.0,0.0,0.0,0.0,0.0,0.0,-2.4497,-2.4272,-2.4143,-2.4143,-2.3841,-2.3777,-2.3987,-2.3977,-2.3875,0.0,0.0,-2.4316,-2.4736,-2.4971,-2.5233,-2.54,-2.5586,-2.5693,-2.5693,-2.5693,-2.5557,-2.542,-2.542,-2.5283,-2.506,-2.506,0.0,0.0,0.0,0.0,0.0,0.0,0.0,-2.5116,-2.5116,-2.5381,-2.5693,-2.5693,0.0,0.0,-2.5693,0.0,-2.5693,-2.5693,-2.5693,-2.5693,-2.5693,-2.4864,-2.3791,-2.2685,-2.1633,-2.0534,-1.948,-1.9279,-1.9279,-1.9279,-1.9279,-1.9279,-1.9279,-1.9279,-1.9279,-1.9279,-1.9279,-1.9279,-1.9279,-1.9279,-1.9279,-1.9279,-1.9279,-1.9279,-1.9279,-1.9279,-1.9279,-1.9279,-1.9279,-1.9279,-1.9279,-1.9279,-1.9279,-1.9279,-1.9279,-1.9279,-1.9279,-1.9279,-1.9279,-1.9279,-1.9279,-1.9279,-1.9279,-1.9279,-1.9279,-1.9279,-1.9279,-1.9279,-1.9279,0.0,0.0,0.0,0.0,0.0,0.0,0.0,0.0,0.0,0.0,0.0,0.0,0.0,0.0,0.0,0.0,0.0,0.0,0.0,0.0,0.0,0.0,-2.4143,-2.3927,-2.3927,-2.3791,-2.3933,-2.4257,-2.4296,0.0,0.0,0.0,0.0,-2.5185,-2.5185,-2.5391,-2.5684,-2.5606,-2.5625,-2.5625,-2.5625,-2.54,-2.5125,-2.5204,-2.4961,-2.4602,-2.4602,-2.4602,-2.4687,-2.4971,0.0,0.0,0.0,0.0,-2.5135,-2.5166,-2.5449,-2.5693,0.0,0.0,-2.5693,-2.5693,-2.5693,0.0,-2.5693,-2.5693,-2.5693,-2.5693,-2.4864,-2.3791,-2.2685,-2.1633,-2.0534,-1.948,-1.9279,-1.9279,-1.9279,-1.9279,-1.9279,-1.9279,-1.9279,-1.9279,-1.9279,-1.9279,-1.9279,-1.9279,-1.9279,-1.9279,-1.9279,-1.9279,-1.9279,-1.9279,-1.9279,-1.9279,-1.9279,-1.9279,-1.9279,-1.9279,-1.9279,-1.9279,-1.9279,-1.9279,-1.9279,-1.9279,-1.9279,-1.9279,-1.9279,-1.9279,-1.9279,-1.9279,-1.9279,-1.9279,-1.9279,-1.9279,-1.9279,-1.9279,0.0,0.0,0.0,0.0,0.0,0.0,0.0,0.0,0.0,0.0,0.0,0.0,0.0,0.0,0.0,0.0,0.0,0.0,-2.4497,0.0,0.0,-2.4497,-2.4454,-2.4411,-2.4411,-2.4628,-2.4642,-2.447,0.0,0.0,0.0,0.0,0.0,-2.5596,0.0,-2.5635,-2.5664,-2.5322,-2.5156,-2.5156,-2.5156,-2.5174,-2.5165,-2.5498,-2.5567,-2.5508,-2.5508,-2.5508,-2.546,-2.5176,-2.5077,0.0,0.0,0.0,-2.5194,-2.5537,-2.5645,-2.5693,0.0,0.0,-2.5693,0.0,-2.5693,-2.5693,0.0,0.0,-2.5693,0.0,-2.4864,-2.3791,-2.2685,-2.1633,-2.0534,-1.948,-1.9279,-1.9279,-1.9279,-1.9279,-1.9279,-1.9279,-1.9279,-1.9279,-1.9279,-1.9279,-1.9279,-1.9279,-1.9279,-1.9279,-1.9279,-1.9279,-1.9279,-1.9279,-1.9279,-1.9279,-1.9279,-1.9279,-1.9279,-1.9279,-1.9279,-1.9279,-1.9279,-1.9279,-1.9279,-1.9279,-1.9279,-1.9279,-1.9279,-1.9279,-1.9279,-1.9279,-1.9279,-1.9279,-1.9279,-1.9279,-1.9279,-1.9279,0.0,0.0,0.0,0.0,0.0,0.0,0.0,0.0,0.0,0.0,0.0,0.0,0.0,0.0,0.0,-2.4497,-2.4497,-2.4497,-2.4497,-2.4497,-2.4611,-2.4879,-2.4802,-2.4838,-2.5095,-2.4931,-2.4952,-2.5249,0.0,0.0,0.0,-2.5487,-2.5547,0.0,0.0,0.0,0.0,-2.542,-2.5293,-2.5135,-2.5342,-2.5293,-2.5135,-2.5283,-2.5205,-2.4953,-2.4953,-2.4953,-2.5,-2.5049,-2.5116,-2.5165,-2.5361,0.0,0.0,0.0,-2.5693,0.0,-2.5693,-2.5693,-2.5693,0.0,-2.5693,-2.5693,-2.5693,0.0,-2.5693,-2.5693,-2.4362,-2.3035,-2.2593,-2.1132,-1.9835,-1.9376,-1.9279,-1.9279,-1.9279,-1.9279,-1.9279,-1.9279,-1.9279,-1.9279,-1.9279,-1.9279,-1.9279,-1.9279,-1.9279,-1.9279,-1.9279,-1.9279,-1.9279,-1.9279,-1.9279,-1.9279,-1.9279,-1.9279,-1.9279,-1.9279,-1.9279,-1.9279,-1.9279,-1.9279,-1.9279,-1.9279,-1.9279,-1.9279,-1.9279,-1.9279,-1.9279,-1.9279,-1.9279,-1.9279,-1.9279,-1.9279,-1.9279,-1.9279,0.0,0.0,0.0,0.0,0.0,0.0,0.0,0.0,0.0,0.0,0.0,0.0,0.0,0.0,0.0,0.0,-2.4611,-2.4724,-2.4828,-2.4881,-2.4993,-2.5378,-2.5177,-2.5217,-2.5553,-2.5233,-2.5269,0.0,0.0,0.0,-2.6004,-2.5868,-2.5781,0.0,-2.5567,-2.5449,0.0,0.0,-2.5273,-2.5145,-2.543,-2.5371,-2.5125,-2.5195,-2.5039,-2.4746,-2.4746,-2.4746,-2.4805,-2.5127,-2.5234,-2.5293,-2.5635,-2.5693,0.0,0.0,0.0,0.0,0.0,0.0,-2.5693,-2.5693,-2.5693,-2.5693,0.0,0.0,-2.5693,0.0,-2.4007,-2.2484,-2.2484,-2.0739,-1.9279,-1.9279,-1.9279,-1.9279,-1.9279,-1.9279,-1.9279,-1.9279,-1.9279,-1.9279,-1.9279,-1.9279,-1.9279,-1.9279,-1.9279,-1.9279,-1.9279,-1.9279,-1.9279,-1.9279,-1.9279,-1.9279,-1.9279,-1.9279,-1.9279,-1.9279,-1.9279,-1.9279,-1.9279,-1.9279,-1.9279,-1.9279,-1.9279,-1.9279,-1.9279,-1.9279,-1.9279,-1.9279,-1.9279,-1.9279,-1.9279,-1.9279,-1.9279,-1.9279,0.0,0.0,0.0,0.0,0.0,0.0,0.0,0.0,0.0,0.0,0.0,0.0,-2.4497,-2.4497,-2.4497,-2.4497,-2.49,-2.5368,-2.5782,-2.5813,-2.5823,-2.5844,-2.5593,0.0,-2.5498,-2.5674,-2.5661,0.0,0.0,0.0,-2.5732,-2.5965,-2.5965,-2.5674,-2.5293,-2.5322,-2.5596,0.0,0.0,0.0,-2.5145,-2.5135,-2.5165,-2.5537,-2.5635,-2.5615,-2.5615,-2.5615,-2.5625,-2.5645,-2.5654,-2.5654,-2.5684,-2.5693,-2.5693,0.0,0.0,0.0,0.0,-2.5693,0.0,-2.5693,-2.5693,0.0,0.0,0.0,-2.5693,-2.5693,-2.4007,-2.2484,-2.2484,-2.0739,-1.9279,-1.9279,-1.9279,-1.9279,-1.9279,-1.9279,-1.9279,-1.9279,-1.9279,-1.9279,-1.9279,-1.9279,-1.9279,-1.9279,-1.9279,-1.9279,-1.9279,-1.9279,-1.9279,-1.9279,-1.9279,-1.9279,-1.9279,-1.9279,-1.9279,-1.9279,-1.9279,-1.9279,-1.9279,-1.9279,-1.9279,-1.9279,-1.9279,-1.9279,-1.9279,-1.9279,-1.9279,-1.9279,-1.9279,-1.9279,-1.9279,-1.9279,-1.9279,-1.9279,0.0,0.0,0.0,0.0,0.0,0.0,0.0,0.0,0.0,0.0,0.0,0.0,0.0,-2.4941,-2.5055,-2.5378,-2.5554,-2.5709,-2.591,-2.5875,-2.6009,-2.6356,-2.611,-2.6068,-2.6411,-2.6127,-2.5958,0.0,0.0,-2.5682,-2.5312,-2.5692,-2.5624,-2.5312,-2.5622,-2.5554,-2.5303,-2.5273,0.0,0.0,0.0,-2.5498,-2.5518,-2.5625,-2.5693,-2.5693,-2.5693,-2.5693,-2.5693,-2.5693,-2.5693,-2.5693,-2.5693,-2.5693,-2.5693,-2.5693,-2.5693,0.0,0.0,0.0,0.0,-2.5693,-2.5693,-2.5693,-2.5693,-2.5693,-2.5693,-2.5693,-2.4007,-2.2484,-2.2484,-2.0739,-1.9279,-1.9279,-1.9279,-1.9279,-1.9279,-1.9279,-1.9279,-1.9279,-1.9279,-1.9279,-1.9279,-1.9279,-1.9279,-1.9279,-1.9279,-1.9279,-1.9279,-1.9279,-1.9279,-1.9279,-1.9279,-1.9279,-1.9279,-1.9279,-1.9279,-1.9279,-1.9279,-1.9279,-1.9279,-1.9279,-1.9279,-1.9279,-1.9279,-1.9279,-1.9279,-1.9279,-1.9279,-1.9279,-1.9279,-1.9279,-1.9279,-1.9279,-1.9279,-1.9279,0.0,0.0,0.0,0.0,0.0,0.0,0.0,0.0,0.0,0.0,0.0,0.0,0.0,0.0,-2.5627,-2.6072,-2.6113,-2.6221,-2.6376,-2.6387,-2.6532,-2.6832,-2.6488,-2.6442,-2.6747,-2.6106,-2.5807,0.0,0.0,0.0,0.0,-2.5741,-2.5721,-2.5303,-2.5972,-2.5894,0.0,0.0,0.0,-2.5322,-2.5567,-2.5693,-2.5693,-2.5693,-2.5693,-2.5693,-2.5693,-2.5693,-2.5693,-2.5693,-2.5693,-2.5693,-2.5693,-2.5693,-2.5693,-2.5693,-2.5693,0.0,-2.5693,0.0,0.0,0.0,0.0,-2.5693,-2.5693,-2.5693,-2.5586,-2.5226,-2.375,-2.2391,-2.2038,-2.0483,-1.9279,-1.9279,-1.9279,-1.9279,-1.9279,-1.9279,-1.9279,-1.9279,-1.9279,-1.9279,-1.9279,-1.9279,-1.9279,-1.9279,-1.9279,-1.9279,-1.9279,-1.9279,-1.9279,-1.9279,-1.9279,-1.9279,-1.9279,-1.9279,-1.9279,-1.9279,-1.9279,-1.9279,-1.9279,-1.9279,-1.9279,-1.9279,-1.9279,-1.9279,-1.9279,-1.9279,-1.9279,-1.9279,-1.9279,-1.9279,-1.9279,-1.9279,-1.9279,-1.9279,0.0,0.0,0.0,0.0,0.0,0.0,0.0,0.0,0.0,-2.5168,0.0,0.0,0.0,0.0,0.0,-2.6563,-2.6594,-2.6781,-2.7237,-2.7268,-2.7268,-2.7268,-2.6744,-2.6466,-2.6476,-2.5569,-2.5331,0.0,0.0,0.0,0.0,0.0,-2.6207,-2.5723,-2.6255,-2.6217,-2.5713,0.0,-2.5342,-2.5693,-2.5684,-2.5684,-2.5693,-2.5684,-2.5684,-2.5693,-2.5693,-2.5693,-2.5693,-2.5693,-2.5693,-2.5693,-2.5693,-2.5693,-2.5693,-2.5693,-2.5693,0.0,0.0,0.0,0.0,0.0,0.0,0.0,-2.5693,0.0,-2.5382,-2.4344,-2.3285,-2.224,-2.1132,-2.0078,-1.9324,-1.9331,-1.9279,-1.9279,-1.9279,-1.9279,-1.9279,-1.9279,-1.9279,-1.9279,-1.9279,-1.9279,-1.9279,-1.9279,-1.9279,-1.9279,-1.9279,-1.9279,-1.9279,-1.9279,-1.9279,-1.9279,-1.9279,-1.9279,-1.9279,-1.9279,-1.9279,-1.9279,-1.9279,-1.9279,-1.9279,-1.9279,-1.9279,-1.9279,-1.9279,-1.9279,-1.9279,-1.9279,-1.9279,-1.9279,-1.9279,-1.9279,-1.9279,-1.9279,0.0,0.0,0.0,0.0,0.0,0.0,0.0,0.0,0.0,0.0,0.0,0.0,-2.5378,-2.5689,-2.5927,-2.6061,-2.6107,-2.6169,-2.6304,-2.6304,-2.6304,-2.6304,-2.5946,-2.5924,-2.6259,-2.5846,-2.5712,0.0,0.0,0.0,0.0,0.0,0.0,0.0,-2.6212,-2.6304,-2.6004,-2.5875,0.0,-2.5742,-2.5917,-2.5868,-2.5732,-2.5917,-2.5868,-2.5693,-2.5693,-2.5693,-2.5693,-2.5693,-2.5693,-2.5693,-2.5693,-2.5693,-2.5693,-2.5693,-2.5693,-2.5693,-2.5693,0.0,0.0,0.0,0.0,0.0,-2.5693,0.0,-2.5635,-2.5323,-2.4402,-2.3343,-2.224,-2.1183,-2.0181,-1.9428,-1.9279,-1.9279,-1.9279,-1.9279,-1.9279,-1.9279,-1.9279,-1.9279,-1.9279,-1.9279,-1.9279,0.0,-1.9279,-1.9279,-1.9279,-1.9279,-1.9279,-1.9279,-1.9279,-1.9279,-1.9279,-1.9279,-1.9279,-1.9279,-1.9279,-1.9279,-1.9279,-1.9279,-1.9279,-1.9279,-1.9279,-1.9279,-1.9279,-1.9279,-1.9279,-1.9279,-1.9279,-1.9279,-1.9279,-1.9279,-1.9279,-1.9428,0.0,0.0,0.0,0.0,0.0,0.0,-2.4941,-2.5065,-2.5096,0.0,0.0,0.0,-2.5471,-2.5896,-2.621,-2.621,-2.6387,-2.6501,-2.6501,-2.6501,-2.6501,-2.6501,-2.6233,-2.6227,-2.6502,-2.6027,-2.5949,0.0,0.0,0.0,0.0,0.0,0.0,0.0,0.0,0.0,0.0,0.0,0.0,-2.5868,-2.6052,-2.6004,-2.5868,-2.5917,-2.583,-2.5693,-2.5693,-2.5693,-2.5693,-2.5693,-2.5693,-2.5693,-2.5693,-2.5693,-2.5693,-2.5693,-2.5693,-2.5693,-2.5693,-2.5693,0.0,-2.5693,0.0,0.0,-2.5693,-2.5693,-2.5586,0.0,-2.455,-2.3791,-2.2685,-2.1633,-2.068,-2.0086,-1.9576,-1.9279,-1.9279,-1.9279,-1.9279,-1.9279,-1.9279,-1.9279,-1.9279,-1.9279,-1.9279,-1.9279,-1.9279,-1.9279,-1.9279,-1.9279,-1.9213,-1.9074,-1.9074,-1.9008,-1.8869,-1.8869,-1.8869,-1.8869,-1.8869,-1.8942,-1.9074,-1.9074,-1.9147,-1.9279,-1.9279,-1.9279,-1.9279,-1.9279,-1.9576,-1.9931,-1.948,-1.9576,-1.9931,-1.948,-1.9279,-1.9428,0.0,0.0,0.0,-2.458,-2.4611,-2.4631,-2.458,-2.4921,-2.5189,0.0,-2.5606,-2.5875,-2.5875,-2.6248,-2.6542,-2.6542,-2.6915,-2.7154,-2.7154,-2.7154,-2.7154,-2.7154,-2.6927,-2.6815,-2.6867,-2.6222,-2.6091,0.0,0.0,0.0,0.0,0.0,0.0,0.0,0.0,0.0,0.0,0.0,0.0,-2.6149,-2.6149,-2.6149,-2.6052,-2.583,-2.5732,-2.5693,-2.5693,-2.5693,-2.5693,-2.5693,-2.5693,-2.5693,-2.5693,-2.5693,-2.5693,-2.5693,-2.5693,-2.5693,-2.5693,-2.5693,0.0,-2.5693,-2.5693,0.0,-2.5693,-2.5693,-2.543,0.0,-2.4295,-2.3939,-2.2885,-2.1887,-2.1183,-2.0936,-2.0078,-1.9428,-1.9324,-1.9279,-1.9279,-1.9279,-1.9279,-1.9279,-1.9279,-1.9279,-1.9279,-1.9279,-1.9279,-1.9279,-1.9279,-1.9242,-1.9089,-1.8796,-1.8752,-1.8591,-1.8306,-1.8299,-1.8348,-1.8447,-1.8447,-1.8701,-1.9084,-1.9121,-1.9292,-1.9576,-1.9613,-1.968,-1.968,-1.968,-2.013,-2.0783,-1.9828,-2.013,-2.0987,-2.0034,-1.968,-1.9835,0.0,0.0,0.0,-2.5055,-2.5388,-2.5502,-2.5106,-2.5127,-2.5189,-2.5189,-2.5606,-2.5875,-2.5875,-2.5958,-2.6055,-2.6055,-2.6138,-2.6144,-2.6144,-2.6144,-2.6144,-2.6144,-2.6109,-2.6284,-2.6656,-2.6527,-2.6572,0.0,0.0,0.0,0.0,0.0,0.0,0.0,0.0,0.0,0.0,0.0,0.0,-2.64,-2.64,-2.6294,-2.6091,-2.6052,-2.5868,-2.5693,-2.5693,-2.5693,-2.5693,-2.5693,-2.5693,-2.5693,-2.5693,-2.5693,-2.5693,-2.5693,-2.5693,-2.5693,-2.5693,-2.5693,-2.5693,-2.5693,-2.5693,0.0,-2.5693,-2.5693,-2.5635,0.0,-2.5382,-2.5069,-2.3998,-2.3642,-2.2885,-2.1183,-2.0731,-2.0285,-1.9428,-1.9279,-1.9279,-1.9279,-1.9279,-1.9279,-1.9279,-1.9279,-1.9279,-1.9279,-1.9279,-1.9279,-1.9279,-1.903,-1.8855,-1.8789,-1.8533,-1.8364,-1.8299,-1.8299,-1.8686,-1.9511,-1.9511,-1.9925,-2.0718,-2.1114,-2.1337,-2.142,-2.1762,-2.1887,-2.1887,-2.1887,-2.1481,-2.0885,-2.0688,-2.1234,-2.2139,-2.1937,-2.1887,-2.2038,0.0,0.0,0.0,0.0,-2.5254,-2.5482,-2.522,-2.5409,-2.5554,-2.5554,-2.574,-2.5875,-2.5875,-2.6127,-2.6273,-2.6273,-2.648,-2.6615,-2.6615,-2.6615,-2.6615,-2.6615,-2.6615,-2.6718,-2.6957,-2.6957,-2.6987,-2.7081,0.0,0.0,0.0,0.0,0.0,0.0,0.0,0.0,0.0,0.0,-2.7034,-2.688,-2.6592,-2.6352,-2.61,-2.5965,-2.583,-2.5693,-2.5693,-2.5693,-2.5693,-2.5693,-2.5693,-2.5693,-2.5693,-2.5693,-2.5693,-2.5693,-2.5693,-2.5693,-2.5693,-2.5693,-2.5693,-2.5693,-2.5693,0.0,0.0,-2.5693,-2.5693,-2.5693,-2.5693,-2.5538,-2.502,-2.4452,-2.3741,-2.2685,-2.1582,-2.0731,-2.0181,-1.9628,-1.9279,-1.9279,-1.9279,-1.9279,-1.9279,-1.9279,-1.9279,-1.9279,-1.9279,-1.9258,-1.9038,-1.8877,-1.8642,-1.8313,-1.8145,-1.7984,-1.7816,-1.8288,-1.8806,-1.932,-1.9784,-2.0345,-2.0955,-2.119,-2.1528,-2.1904,-2.2133,-2.2321,-2.2484,-2.2484,-2.2484,-2.2433,-2.1887,-2.2333,-2.3235,-2.2685,-2.2484,-2.2634,-2.4755,0.0,0.0,0.0,-2.5065,-2.5313,-2.5313,-2.5658,-2.5906,-2.6044,-2.6092,-2.619,-2.619,-2.6532,-2.675,-2.675,-2.7092,-2.7309,-2.7309,-2.7309,-2.7309,-2.7309,-2.7309,-2.7309,-2.7309,-2.7309,-2.7309,-2.7309,0.0,0.0,0.0,0.0,0.0,0.0,0.0,0.0,0.0,0.0,0.0,-2.7167,-2.6736,-2.64,-2.6149,-2.5868,-2.5732,-2.5693,-2.5693,-2.5693,-2.5693,-2.5693,-2.5693,-2.5693,-2.5693,-2.5693,-2.5693,-2.5693,-2.5693,-2.5693,-2.5693,-2.5693,-2.5693,-2.5693,-2.5693,-2.5693,0.0,0.0,0.0,-2.5693,-2.5693,-2.5693,-2.5693,-2.4962,-2.4344,-2.4137,0.0,0.0,0.0,-2.0483,0.0,-1.9331,-1.9279,-1.9279,-1.9279,-1.9279,-1.9279,-1.9279,-1.922,-1.9067,-1.8803,-1.8672,-1.8357,-1.783,-1.7757,-1.7684,-1.7606,-1.838,-1.8972,-1.9384,-2.015,-2.0713,-2.1156,-2.1281,-2.1658,-2.2263,-2.2461,-2.2698,-2.2988,-2.3067,-2.3651,-2.4295,-2.3244,-2.3443,-2.4295,-2.3443,-2.3094,-2.3244,-2.573,-2.573,0.0,0.0,0.0,0.0,0.0,-2.5889,-2.6065,-2.648,-2.6895,-2.7154,-2.7154,-2.7195,-2.7226,-2.7226,-2.7278,-2.7309,-2.7309,-2.7309,-2.7309,-2.7309,-2.7309,-2.7309,-2.7309,-2.7309,-2.7309,-2.7309,0.0,0.0,0.0,0.0,0.0,0.0,-2.7262,0.0,0.0,0.0,-2.7119,-2.6948,-2.69,-2.6699,-2.6448,-2.6149,-2.5917,-2.5693,-2.5693,-2.5693,-2.5693,-2.5693,-2.5693,-2.5693,-2.5693,-2.5693,-2.5693,-2.5693,-2.5693,-2.5693,-2.5693,-2.5693,-2.5693,-2.5693,-2.5693,-2.5693,-2.5693,0.0,-2.5693,-2.5693,0.0,-2.5693,-2.5693,0.0,0.0,-2.4245,-2.389,-2.3384,-2.2433,-2.2181,-2.1438,-1.9532,-1.9279,-1.9279,-1.9279,-1.9279,-1.9279,-1.9279,-1.9008,-1.8833,-1.8789,-1.824,-1.7889,-1.7816,-1.749,-1.7776,-1.8603,-1.875,-1.965,-2.1373,-2.1463,-2.1989,-2.2861,-2.3246,-2.3512,-2.3647,-2.4399,-2.4755,-2.4823,-2.5169,-2.543,-2.543,-2.4344,-2.4559,-2.5479,-2.5382,-2.5333,-2.5333,-2.6034,-2.5875,0.0,0.0,0.0,0.0,0.0,-2.6553,-2.6801,-2.6988,-2.7185,-2.7309,-2.7309,-2.7309,-2.7309,-2.7309,-2.7309,-2.7309,-2.7309,-2.7309,-2.7309,-2.7309,-2.7309,-2.7309,-2.7309,-2.7309,-2.7309,-2.7309,-2.7309,0.0,0.0,0.0,0.0,0.0,-2.7309,0.0,-2.7309,0.0,-2.7214,-2.7129,-2.7129,-2.6986,-2.6699,-2.6448,-2.6149,-2.5917,-2.5781,-2.5693,-2.5693,-2.5693,-2.5693,-2.5693,-2.5693,-2.5693,-2.5693,-2.5693,-2.5693,-2.5693,-2.5693,-2.5693,-2.5693,-2.5693,-2.5693,-2.5693,-2.5693,-2.5693,-2.5693,-2.5693,0.0,0.0,0.0,0.0,0.0,0.0,-2.4501,-2.3939,-2.3484,0.0,-2.1234,-2.0336,-2.0233,0.0,-1.9376,-1.9279,-1.9199,-1.9008,-1.8869,-1.8864,-1.9066,-1.8816,-1.8847,-1.9188,-1.9044,-1.9193,-1.9604,-2.0195,-2.0881,-2.1695,-2.2236,-2.2731,-2.3101,-2.3286,-2.3555,-2.3828,-2.4424,-2.4834,-2.5145,-2.5557,-2.5693,-2.5635,-2.5226,-2.5323,-2.5693,-2.5693,-2.5693,-2.5693,-2.6438,0.0,0.0,0.0,-2.6584,0.0,-2.6801,-2.7092,-2.7309,-2.7309,-2.7309,-2.7309,-2.7309,-2.7309,-2.7309,-2.7309,-2.7309,-2.7309,-2.7309,-2.7309,-2.7309,-2.7309,-2.7309,-2.7309,-2.7309,-2.7309,-2.7309,-2.7309,-2.7309,0.0,0.0,0.0,0.0,0.0,0.0,-2.7309,-2.7309,0.0,-2.7309,-2.7309,-2.7309,-2.7129,-2.6853,-2.6496,-2.6197,-2.5955,-2.5781,-2.5693,-2.5693,-2.5693,-2.5693,0.0,-2.5693,-2.5693,-2.5693,-2.5693,-2.5693,-2.5693,-2.5693,-2.5693,-2.5693,-2.5693,-2.5693,-2.5693,-2.5693,-2.5693,-2.5693,-2.5693,-2.5693,0.0,0.0,0.0,0.0,0.0,0.0,-2.455,-2.455,-2.3203,-2.1996,-2.1387,-2.1081,0.0,0.0,-1.9546,-1.9192,-1.9252,-1.9065,-1.9037,-1.9296,-1.946,-1.9747,-2.0195,-2.0187,-2.0322,-2.0602,-2.1329,-2.1828,-2.2094,-2.2775,-2.3091,-2.3091,-2.3091,-2.331,-2.3643,-2.418,-2.459,-2.4932,-2.5498,-2.5693,-2.5693,-2.5693,-2.5693,-2.5693,-2.5693,-2.5693,-2.5693,-2.7268,-2.7268,0.0,-2.7268,-2.7278,-2.7289,-2.7289,-2.7299,-2.7309,-2.7309,-2.7309,-2.7309,-2.7309,-2.7309,-2.7309,-2.7309,-2.7309,-2.7309,-2.7309,-2.7309,-2.7309,-2.7309,-2.7309,-2.7309,-2.7309,-2.7309,-2.7309,-2.7309,-2.7309,0.0,0.0,0.0,0.0,0.0,-2.7309,-2.7309,-2.7309,-2.7309,-2.7309,-2.7309,-2.7309,-2.7129,-2.6853,-2.6294,-2.5965,-2.5684,-2.5693,0.0,0.0,-2.5693,-2.5693,0.0,0.0,0.0,-2.5693,-2.5693,-2.5693,-2.5693,-2.5693,-2.5693,-2.5693,-2.5693,-2.5693,-2.5693,-2.5693,-2.5693,-2.5693,-2.5693,-2.5693,-2.5693,-2.5693,0.0,0.0,0.0,0.0,0.0,0.0,-2.5586,-2.4775,-2.2693,-2.1532,-2.1285,0.0,-2.0229,-1.9244,-2.0261,-1.9685,-1.9296,-1.932,-1.9858,-2.0204,-2.0187,-2.0187,-2.0692,-2.165,-2.1695,-2.2148,-2.3047,-2.3101,-2.3091,-2.3091,-2.3091,-2.3101,-2.3169,-2.4053,-2.4424,-2.4502,-2.5333,-2.5693,-2.5693,-2.5693,-2.5693,-2.5693,-2.5693,-2.5693,-2.5693,-2.7309,0.0,0.0,-2.7309,-2.7309,-2.7309,-2.7309,-2.7309,-2.7309,-2.7309,-2.7309,-2.7309,-2.7309,-2.7309,-2.7309,-2.7309,-2.7309,-2.7309,-2.7309,-2.7309,-2.7309,-2.7309,-2.7309,-2.7309,-2.7309,-2.7309,-2.7309,-2.7309,-2.7309,0.0,0.0,0.0,0.0,0.0,0.0,-2.7309,0.0,0.0,0.0,0.0,0.0,-2.7129,-2.69,0.0,-2.6448,-2.6217,-2.6014,-2.5955,0.0,-2.5781,-2.5693,-2.5693,-2.5693,-2.5693,-2.5693,-2.5693,-2.5693,-2.5693,0.0,0.0,-2.5693,-2.5693,0.0,0.0,-2.5693,-2.5693,-2.5693,-2.5693,-2.5693,-2.5693,-2.5693,0.0,0.0,0.0,0.0,0.0,0.0,-2.5693,-2.5177,-2.3741,-2.2584,-2.1996,-2.21,-2.1321,-2.0802,-2.0606,-2.0387,-2.0416,-2.0856,-2.1086,-2.1463,-2.2094,-2.2138,-2.228,-2.2599,-2.2643,-2.2784,-2.3091,-2.3091,-2.3091,-2.3091,-2.3091,-2.3091,-2.314,-2.3997,-2.4414,-2.4482,-2.5323,-2.5693,-2.5693,-2.5693,-2.5693,-2.5693,-2.5693,-2.5693,-2.5693,-2.7738,-2.7738,-2.7645,-2.7361,-2.7444,-2.7489,-2.7489,-2.7683,-2.7738,-2.7738,-2.7738,-2.7738,-2.7738,-2.7738,-2.7738,-2.7738,-2.7738,-2.7738,-2.7738,-2.7738,-2.7665,-2.75,-2.7489,-2.7475,-2.7309,-2.7309,-2.7309,-2.7309,0.0,-2.7309,0.0,0.0,0.0,0.0,0.0,-2.7309,-2.7309,-2.7309,-2.7309,0.0,0.0,-2.7071,0.0,0.0,-2.6651,-2.6294,0.0,-2.5965,-2.5917,-2.5781,-2.5693,-2.5693,-2.5693,-2.5693,-2.5693,-2.5693,-2.5693,-2.5693,-2.5693,-2.5693,0.0,-2.5693,-2.5693,0.0,-2.5693,0.0,-2.5693,-2.5693,-2.5693,-2.5693,-2.5693,0.0,0.0,0.0,0.0,0.0,0.0,-2.5693,-2.543,-2.4756,-2.3624,-2.2885,-2.3035,-2.2083,-2.1423,-2.1305,-2.1138,-2.1236,-2.1659,-2.2015,-2.2467,-2.3091,-2.3091,-2.3091,-2.3091,-2.3091,-2.3091,-2.3091,-2.3091,-2.3091,-2.3091,-2.3091,-2.3091,-2.314,-2.3997,-2.4414,-2.4482,-2.5323,-2.5693,-2.5693,-2.5693,-2.5693,-2.5693,-2.5693,-2.5693,-2.5693,-2.8618,-2.8618,-2.8338,-2.7527,-2.7676,-2.7955,-2.7955,-2.8328,-2.8618,-2.8618,-2.8618,-2.8618,-2.8618,-2.8618,-2.8618,-2.8618,-2.8618,-2.8618,-2.8618,-2.8618,-2.8411,-2.7945,-2.7924,-2.7717,-2.732,-2.7309,-2.7309,-2.7309,0.0,0.0,0.0,0.0,0.0,0.0,-2.7309,0.0,-2.7309,-2.7309,-2.7309,-2.7309,-2.7309,-2.6976,-2.6544,-2.6794,-2.6544,-2.61,-2.583,-2.5742,-2.5742,-2.5693,-2.5693,-2.5693,-2.5693,-2.5693,-2.5693,-2.5693,-2.5693,-2.5693,-2.5693,-2.5693,-2.5693,-2.5693,-2.5693,0.0,0.0,0.0,-2.5693,0.0,0.0,-2.5693,-2.5693,0.0,0.0,0.0,0.0,0.0,0.0,-2.5693,-2.5693,-2.5693,-2.4447,-2.3982,-2.4992,-2.2515,-2.1261,-2.2254,-2.1995,-2.1784,0.0,-2.2599,-2.3091,-2.3091,-2.3091,-2.3091,-2.3091,-2.3091,-2.3091,-2.3091,-2.3091,-2.3091,-2.3091,-2.3091,-2.3091,-2.314,-2.3997,-2.4414,-2.4482,-2.5323,-2.5693,-2.5693,-2.5693,-2.5693,-2.5693,-2.5693,-2.5693,-2.5693,-2.8618,-2.8618,-2.8545,-2.8307,-2.8359,-2.8442,-2.8442,-2.8535,-2.8618,-2.8618,-2.8618,-2.8618,-2.8618,-2.8618,-2.8618,-2.8618,-2.8618,-2.8618,-2.8618,-2.8618,-2.8411,-2.7945,-2.7924,-2.7717,-2.732,-2.7309,-2.7309,-2.7309,0.0,0.0,-2.7309,0.0,0.0,0.0,0.0,-2.7309,-2.7309,-2.7309,-2.7309,-2.7309,-2.7309,-2.7214,-2.7071,0.0,-2.6496,-2.6352,-2.61,-2.6004,-2.5965,-2.5781,-2.5693,-2.5693,-2.5693,-2.5693,-2.5693,-2.5693,-2.5693,-2.5693,-2.5693,-2.5693,-2.5693,-2.5693,-2.5693,-2.5693,0.0,0.0,0.0,0.0,0.0,0.0,0.0,0.0,0.0,0.0,0.0,0.0,0.0,-2.5693,-2.5693,-2.5693,-2.5092,-2.4648,-2.4573,-2.3626,-2.296,-2.2913,-2.2798,-2.2731,-2.2731,-2.296,-2.3091,-2.3091,-2.3091,-2.3091,-2.3091,-2.3091,-2.3091,-2.3091,-2.3091,-2.3091,-2.3091,-2.3091,-2.3091,-2.314,-2.3997,-2.4414,-2.4482,-2.5323,-2.5693,-2.5693,-2.5693,-2.5693,-2.5693,-2.5693,-2.5693,-2.5693,-2.9218,-2.9218,-2.9218,-2.9218,-2.9218,-2.9145,-2.8949,-2.9083,-2.9218,-2.9218,-2.9218,-2.9218,-2.9218,-2.9218,-2.9218,-2.9218,-2.9218,-2.9218,-2.9218,-2.9218,-2.9011,-2.8545,-2.8328,-2.8017,-2.7562,-2.7403,-2.7309,-2.7309,-2.7309,0.0,-2.7309,0.0,0.0,0.0,0.0,-2.7309,-2.7309,-2.7309,-2.7309,-2.7309,-2.7309,-2.7214,0.0,-2.6794,-2.6602,-2.6448,-2.6197,-2.6004,-2.5917,-2.5732,-2.5693,-2.5693,-2.5693,-2.5693,-2.5693,-2.5693,-2.5693,-2.5693,-2.5693,-2.5693,-2.5693,-2.5693,-2.5693,-2.5693,-2.5693,-2.5693,-2.5693,0.0,-2.5693,-2.5693,0.0,0.0,0.0,0.0,0.0,0.0,-2.5693,-2.5693,-2.5693,-2.5693,-2.5176,-2.4687,-2.4443,-2.4033,-2.3603,-2.313,-2.3091,-2.3091,0.0,-2.3091,-2.3091,-2.3091,-2.3091,-2.3091,-2.3091,-2.3091,-2.3091,-2.3091,-2.3091,-2.3091,-2.3091,-2.3091,-2.3091,-2.314,-2.3997,-2.4414,-2.4482,-2.5323,-2.5693,-2.5693,-2.5693,-2.5693,-2.5693,-2.5693,-2.5693,-2.5693,-2.9994,-2.9994,-2.9994,-2.9994,-2.9994,-2.986,-2.9456,-2.9735,-2.9994,-2.9994,-2.9994,-2.9994,-2.9994,-2.9994,-2.9994,-2.9994,-2.9994,-2.9994,-2.9994,-2.9994,-2.9787,-2.9321,-2.8918,-2.8452,-2.7886,-2.7541,-2.7372,-2.7309,-2.7309,-2.7309,0.0,0.0,0.0,0.0,0.0,0.0,0.0,-2.7309,-2.7309,-2.7309,-2.7309,-2.7167,-2.6948,-2.69,-2.6747,-2.6496,-2.6197,-2.5965,-2.5732,-2.5684,-2.5693,-2.5693,-2.5693,-2.5693,-2.5693,-2.5693,-2.5693,-2.5693,-2.5693,-2.5693,-2.5693,-2.5693,-2.5693,-2.5693,-2.5693,-2.5693,-2.5693,-2.5693,-2.5693,-2.5693,-2.5693,0.0,0.0,0.0,0.0,-2.5693,-2.5693,-2.5693,-2.5693,-2.5693,-2.5011,0.0,-2.4424,-2.3984,-2.3545,-2.312,-2.3091,-2.3091,0.0,0.0,-2.3091,-2.3091,-2.3091,-2.3091,-2.3091,-2.3091,-2.3091,-2.3091,-2.3091,-2.3091,-2.3091,-2.3091,-2.312,-2.3227,-2.4072,-2.4443,-2.457,-2.5343,-2.5693,-2.5693,-2.5693,-2.5693,-2.5693,-2.5693,-2.5693,-2.5693,-2.9994,-2.9994,-2.9994,-2.9994,-2.9994,-2.9973,-2.9891,-2.9942,-2.9994,-2.9994,-2.9994,-2.9994,-2.9994,-2.9994,-2.9994,-2.9994,-2.9994,-2.9994,-2.9994,-2.9994,-2.9787,-2.9321,-2.9228,-2.8794,-2.7945,-2.7841,-2.7624,-2.7309,-2.7309,-2.7309,-2.7309,0.0,0.0,0.0,0.0,0.0,-2.7309,-2.7309,0.0,-2.7309,-2.7309,-2.7262,-2.7214,-2.6996,-2.6853,-2.6757,-2.6294,-2.6052,-2.6004,-2.5781,-2.5693,-2.5693,-2.5693,-2.5693,-2.5693,-2.5693,-2.5693,-2.5693,-2.5693,-2.5693,-2.5693,-2.5693,-2.5693,-2.5693,-2.5693,-2.5693,-2.5693,-2.5693,-2.5693,-2.5693,-2.5693,0.0,0.0,0.0,0.0,-2.5693,-2.5693,-2.5693,-2.5693,-2.5693,-2.5557,-2.5177,-2.4482,-2.3711,-2.3179,-2.3101,-2.3091,-2.3091,0.0,0.0,-2.3091,0.0,-2.3091,-2.3091,0.0,0.0,-2.3091,-2.3091,-2.3091,-2.3091,-2.3091,-2.3091,-2.3286,-2.3701,-2.4199,-2.4619,-2.499,-2.5518,-2.5693,-2.5693,-2.5693,-2.5693,-2.5693,-2.5693,-2.5693,-2.5693,-2.9994,-2.9994,-2.9994,-2.9994,-2.9994,-2.9994,-2.9994,-2.9994,-2.9994,-2.9994,-2.9994,-2.9994,-2.9994,-2.9994,-2.9994,-2.9994,-2.9994,-2.9994,-2.9994,-2.9994,-2.9891,-2.9673,-2.9435,-2.9094,-2.8649,-2.8173,-2.7821,-2.7603,-2.7423,-2.7309,-2.7309,0.0,0.0,0.0,0.0,-2.7309,0.0,0.0,-2.7309,-2.7309,-2.7309,-2.7309,-2.7309,-2.7177,-2.7129,-2.7081,-2.6651,-2.6496,-2.6448,-2.5878,-2.5781,-2.5868,-2.5732,-2.5693,-2.5693,-2.5693,-2.5693,-2.5693,-2.5693,-2.5693,-2.5693,-2.5693,-2.5693,-2.5693,-2.5693,-2.5693,-2.5693,-2.5693,-2.5693,-2.5693,-2.5693,-2.5693,0.0,0.0,-2.5693,-2.5693,-2.5693,-2.5693,-2.5693,-2.5693,-2.5527,-2.5225,-2.4795,-2.3984,-2.3379,-2.311,-2.3091,-2.3091,0.0,0.0,-2.3091,0.0,0.0,0.0,-2.3091,0.0,-2.3091,-2.3091,-2.3091,-2.3091,-2.3091,-2.3091,-2.3379,-2.3809,-2.4238,-2.4668,-2.5145,-2.5557,-2.5693,-2.5693,-2.5693,-2.5693,-2.5693,-2.5693,-2.5693,-2.5693,-3.016,-3.0139,-3.0108,-3.0015,-2.9994,-2.9994,-2.9994,-2.9994,-2.9994,-2.9994,-2.9994,-2.9994,-2.9994,-2.9994,-2.9994,-2.9994,-2.9994,-2.9994,-2.9994,-2.9994,-2.9994,-2.9994,-2.9642,-2.9404,-2.9301,-2.8587,-2.8121,-2.7924,-2.7572,-2.7392,-2.7309,-2.7309,0.0,0.0,0.0,0.0,0.0,0.0,-2.7309,-2.7309,-2.7309,-2.7309,-2.7309,-2.7309,-2.7309,-2.7262,-2.6996,-2.6948,-2.6842,-2.6072,-2.5917,-2.6052,-2.5781,-2.5693,-2.5693,-2.5693,-2.5693,-2.5693,-2.5693,-2.5693,-2.5693,-2.5693,-2.5693,-2.5693,-2.5693,-2.5693,-2.5693,-2.5693,-2.5693,-2.5693,-2.5693,-2.5693,0.0,0.0,0.0,-2.5693,-2.5693,-2.5693,-2.5693,-2.5693,-2.543,-2.5176,-2.5125,-2.4463,-2.3848,-2.3276,-2.3149,-2.3091,-2.3091,0.0,0.0,0.0,0.0,-2.3091,-2.3091,0.0,-2.3091,-2.3091,-2.3091,-2.3091,-2.3101,-2.3188,-2.3516,-2.3945,-2.4365,-2.4805,-2.5234,-2.5596,-2.5693,-2.5693,-2.5693,-2.5693,-2.5693,-2.5693,-2.5693,-2.5693,-3.0708,-3.0626,-3.0491,-3.0067,-2.9994,-2.9994,-2.9994,-2.9994,-2.9994,-2.9994,-2.9994,-2.9994,-2.9994,-2.9994,-2.9994,-2.9994,-2.9994,-2.9994,-2.9994,-2.9994,-2.9994,-2.9994,-2.9953,-2.9735,-2.9311,-2.9218,-2.8763,-2.7924,-2.7883,-2.7655,-2.7309,-2.7309,-2.7309,0.0,0.0,0.0,0.0,-2.7309,-2.7309,-2.7309,-2.7309,-2.7309,-2.7309,-2.7309,-2.7309,-2.7262,-2.6996,-2.7081,-2.7119,-2.6342,-2.61,-2.6052,-2.5781,-2.5693,-2.5693,-2.5693,-2.5693,-2.5693,-2.5693,-2.5693,-2.5693,-2.5693,-2.5693,-2.5693,-2.5693,-2.5693,-2.5693,-2.5693,-2.5693,-2.5693,-2.5693,-2.5693,-2.5693,0.0,0.0,-2.5693,-2.5693,-2.5693,-2.5693,-2.5693,-2.5654,-2.5518,-2.5155,-2.5047,-2.4609,-2.3789,-2.3315,-2.3091,0.0,0.0,0.0,-2.3091,-2.3091,-2.3091,-2.3091,-2.3091,-2.3091,-2.3091,-2.3091,-2.3091,-2.311,-2.3545,-2.3965,-2.4385,-2.4814,-2.5264,-2.5625,-2.5674,-2.5693,-2.5693,-2.5693,-2.5693,-2.5693,-2.5693,-2.5693,-2.5693,-3.1143,-3.1102,-3.0957,-3.0491,-3.0408,-3.0315,-3.0036,-2.9994,-2.9994,-2.9994,-2.9994,-2.9994,-2.9994,-2.9994,-2.9994,-2.9994,-2.9994,-2.9994,-2.9994,-2.9994,-2.9994,-2.9994,-2.9994,-2.9911,-2.9725,-2.9446,-2.9125,-2.8752,-2.8193,-2.7831,-2.7655,-2.7434,-2.7309,0.0,0.0,-2.7309,-2.7309,-2.7309,-2.7309,-2.7309,-2.7309,-2.7309,-2.7309,-2.7309,-2.7309,-2.7309,-2.7167,-2.7214,-2.7214,-2.6544,-2.6352,-2.6255,-2.583,-2.5693,-2.5693,-2.5693,-2.5693,-2.5693,-2.5693,-2.5693,-2.5693,-2.5693,-2.5693,-2.5693,-2.5693,-2.5693,-2.5693,-2.5693,-2.5693,-2.5693,-2.5693,-2.5693,-2.5693,-2.5693,0.0,0.0,-2.5693,-2.5693,-2.5693,-2.5693,-2.5693,-2.5615,-2.5488,-2.5225,-2.4979,-2.4626,-2.3916,-2.3418,0.0,0.0,0.0,-2.3091,0.0,-2.3091,-2.3091,-2.3091,-2.3091,-2.3091,-2.3091,-2.3227,-2.3535,-2.3711,-2.416,-2.4834,-2.5273,-2.5566,-2.5693,-2.5693,-2.5693,-2.5693,-2.5693,-2.5693,-2.5693,-2.5693,-2.5693,-2.5693,-3.1598,-3.1567,-3.1422,-3.0967,-3.0884,-3.0729,-3.0274,-3.0201,-3.0149,-3.0015,-2.9994,-2.9994,-2.9994,-2.9994,-2.9994,-2.9994,-2.9994,-2.9994,-2.9994,-2.9994,-2.9994,-2.9994,-2.9994,-2.9994,-2.9994,-2.9673,-2.9446,-2.9301,-2.8514,-2.8059,-2.7914,-2.7469,-2.7309,0.0,-2.7309,-2.7309,-2.7309,-2.7309,-2.7309,-2.7309,-2.7309,-2.7309,-2.7309,-2.7309,-2.7309,-2.7309,-2.7309,-2.7309,-2.7214,-2.6688,-2.6496,-2.64,-2.5878,-2.5693,-2.5693,-2.5693,-2.5781,-2.5781,-2.5732,-2.5781,-2.5781,-2.5742,-2.5693,-2.5693,-2.5693,-2.5693,-2.5693,-2.5693,-2.5693,-2.5693,-2.5693,-2.5693,-2.5693,-2.5693,0.0,0.0,-2.5693,-2.5693,-2.5693,-2.5693,-2.5693,-2.5693,-2.5693,-2.5449,-2.5205,-2.5125,-2.4512,0.0,0.0,0.0,0.0,0.0,0.0,0.0,-2.3091,-2.3091,-2.3159,-2.333,-2.333,-2.3555,-2.3975,-2.4111,-2.456,-2.5283,-2.5596,-2.5693,-2.5693,-2.5693,-2.5693,-2.5693,-2.5693,-2.5693,-2.5693,-2.5693,-2.5693,-2.5693,-3.206,-3.1977,-3.1888,-3.1443,-3.1371,-3.1215,-3.075,-3.0677,-3.0522,-3.0056,-2.9994,-2.9994,-2.9994,-2.9994,-2.9994,-2.9994,-2.9994,-2.9994,-2.9994,-2.9994,-2.9994,-2.9994,-2.9994,-2.9994,-2.9994,-2.9984,-2.9766,-2.9301,-2.8835,-2.8369,-2.7914,-2.7469,-2.7309,-2.7309,-2.7309,-2.7309,-2.7309,-2.7309,-2.7309,-2.7309,-2.7309,-2.7309,-2.7309,-2.7309,-2.7309,-2.7309,-2.7309,-2.7309,-2.7214,-2.6688,-2.6496,-2.64,-2.5878,-2.5693,-2.5693,-2.5693,-2.5868,-2.6052,-2.5781,-2.5868,-2.6052,-2.5781,-2.5693,-2.5693,-2.5693,-2.5693,-2.5693,-2.5693,-2.5693,-2.5693,-2.5693,-2.5693,-2.5693,-2.5693,0.0,0.0,0.0,-2.5693,-2.5693,-2.5693,-2.5693,-2.5693,-2.5693,-2.5684,-2.5547,-2.5145,0.0,0.0,0.0,0.0,0.0,-2.311,-2.3091,0.0,-2.3091,-2.3091,-2.3315,-2.3779,-2.3779,-2.4004,-2.4424,-2.4853,-2.5303,-2.5684,-2.5693,-2.5693,-2.5693,-2.5693,-2.5693,-2.5693,-2.5693,-2.5693,-2.5693,-2.5693,-2.5693,-2.5693,-3.2483,-3.2452,-3.2308,-3.1909,-3.1826,-3.1567,-3.0801,-3.0688,-3.0522,-3.0056,-2.9994,-2.9994,-2.9994,-2.9994,-2.9994,-2.9994,-2.9994,-2.9994,-2.9994,-2.9994,-2.9994,-2.9994,-2.9994,-2.9994,-2.9994,-2.9994,-2.9922,-2.9777,0.0,0.0,-2.7914,-2.7469,-2.7309,-2.7309,-2.7309,-2.7309,-2.7309,-2.7309,-2.7309,-2.7309,-2.7309,-2.7309,-2.7309,-2.7309,-2.7309,-2.7309,-2.7309,-2.7309,-2.7262,-2.689,-2.6651,-2.6448,-2.61,-2.5868,-2.5732,-2.5917,-2.6052,-2.61,-2.6207,-2.6149,-2.61,-2.6004,-2.583,-2.5693,-2.5693,-2.5693,-2.5693,-2.5693,-2.5693,-2.5693,-2.5693,-2.5693,-2.5693,-2.5693,-2.5693,0.0,-2.5693,-2.5693,-2.5693,-2.5693,-2.5693,-2.5693,-2.5693,-2.5693,-2.5625,-2.5537,0.0,0.0,0.0,0.0,0.0,0.0,-2.4014,0.0,-2.4014,-2.4014,-2.4082,-2.4219,-2.4219,-2.4443,-2.4873,-2.5322,-2.5605,-2.5693,-2.5693,-2.5693,-2.5693,-2.5693,-2.5693,-2.5693,-2.5693,-2.5693,-2.5693,-2.5693,-2.5693,-2.5693,-3.2669,-3.2669,-3.2633,-3.2287,-3.2246,-3.1992,-3.1091,-3.0946,-3.0719,-3.0077,-2.9994,-2.9994,-2.9994,-2.9994,-2.9994,-2.9994,-2.9994,-2.9994,-2.9994,-2.9994,-2.9994,-2.9994,-2.9994,-2.9994,-2.9994,-2.9994,0.0,-2.9994,-2.9352,-2.8659,-2.7914,-2.7469,-2.7309,-2.7309,-2.7309,-2.7309,-2.7309,-2.7309,-2.7309,-2.7309,-2.7309,-2.7309,-2.7309,-2.7309,-2.7309,-2.7309,-2.7309,-2.7309,-2.7262,-2.6986,-2.6805,-2.6602,-2.6342,-2.6159,-2.6024,-2.61,-2.6197,-2.6304,-2.6448,-2.64,-2.6245,-2.6149,-2.5917,-2.5732,-2.582,-2.5868,-2.5868,-2.5868,-2.5868,-2.583,-2.5742,-2.5693,-2.5693,-2.5693,-2.5693,-2.5693,-2.5693,-2.5693,-2.5693,-2.5693,-2.5693,-2.5693,-2.5693,-2.5693,-2.5693,0.0,0.0,0.0,0.0,0.0,-2.459,-2.4424,-2.4414,-2.4414,-2.4414,-2.4414,-2.4502,-2.4668,-2.4834,-2.5059,-2.5332,-2.5605,-2.5693,-2.5693,-2.5693,-2.5693,-2.5693,-2.5693,-2.5693,-2.5693,-2.5693,-2.5693,-2.5693,-2.5693,-2.5693,-2.5693,-3.2669,-3.2669,-3.2669,-3.2669,-3.2669,-3.2426,-3.1516,-3.1381,-3.104,-3.0118,-2.9994,-2.9994,-2.9994,-2.9994,-2.9994,-2.9994,0.0,0.0,-2.9994,-2.9994,-2.9994,-2.9994,-2.9994,-2.9994,-2.9994,-2.9994,-2.9994,-2.9994,-2.9063,-2.839,-2.7966,-2.7479,-2.7309,-2.7309,-2.7309,-2.7309,-2.7309,-2.7309,-2.7309,-2.7309,-2.7309,-2.7309,-2.7309,-2.7309,-2.7309,-2.7309,-2.7309,-2.7309,-2.7262,-2.6996,-2.69,-2.6853,-2.6602,-2.6496,-2.6448,-2.6197,-2.6342,-2.6544,-2.6544,-2.6544,-2.6448,-2.6197,-2.5917,-2.5781,-2.6052,-2.61,-2.61,-2.61,-2.61,-2.6004,-2.5732,-2.5693,-2.5693,-2.5693,-2.5693,-2.5693,-2.5693,-2.5693,-2.5693,-2.5693,-2.5693,0.0,-2.5693,-2.5693,-2.5693,0.0,0.0,0.0,0.0,0.0,-2.4932,-2.4521,-2.4512,-2.4512,-2.4512,-2.4512,-2.4707,-2.5165,-2.5537,-2.5693,-2.5693,-2.5693,-2.5693,-2.5693,-2.5693,-2.5693,-2.5693,-2.5693,-2.5693,-2.5693,-2.5693,-2.5693,-2.5693,-2.5693,-2.5693,-2.5693,-3.2669,-3.2669,-3.2669,-3.2669,-3.2669,-3.2426,-3.1516,-3.1381,-3.104,-3.0118,-2.9994,-2.9994,-2.9994,-2.9994,-2.9994,-2.9994,-2.9994,-2.9994,-2.9994,-2.9994,-2.9994,-2.9994,-2.9994,-2.9994,-2.9994,-2.9994,-2.9994,-2.9994,-2.9063,-2.8556,-2.8431,-2.7683,-2.7309,-2.7309,-2.7309,-2.7309,-2.7309,-2.7309,-2.7309,-2.7309,-2.7309,-2.7309,-2.7309,-2.7309,-2.7309,-2.7309,-2.7309,-2.7309,-2.7309,-2.7214,-2.7081,-2.69,-2.6853,-2.6651,-2.6554,-2.6651,-2.6747,-2.6842,-2.7071,-2.6832,-2.6496,-2.64,-2.6197,-2.6004,-2.61,-2.61,-2.61,-2.61,-2.5965,-2.5781,-2.5684,-2.5693,-2.5693,-2.5693,-2.5693,-2.5693,-2.5693,-2.5693,-2.5693,-2.5693,-2.5693,-2.5693,-2.5693,-2.5693,-2.5693,0.0,0.0,-2.5693,-2.5693,-2.5586,-2.5537,-2.5382,-2.5382,-2.5382,-2.5382,-2.5382,-2.543,-2.5586,-2.5635,-2.5693,-2.5693,-2.5693,-2.5693,-2.5693,-2.5693,-2.5693,-2.5693,-2.5693,-2.5693,-2.5693,-2.5693,-2.5693,-2.5693,-2.5693,-2.5693,-2.5693,-3.2669,-3.2669,-3.2669,-3.2669,-3.2494,-3.2178,-3.1485,-3.1195,-3.0801,-3.0087,-2.9994,-2.9994,-2.9994,-2.9994,-2.9994,-2.9994,-2.9994,-2.9994,-2.9994,-2.9994,-2.9994,-2.9994,-2.9994,-2.9994,-2.9994,-2.9994,-2.9994,-2.9994,-2.9063,-2.8618,-2.8597,-2.7734,-2.7309,-2.7309,-2.7309,-2.7309,-2.7309,-2.7309,-2.7309,-2.7309,-2.7309,-2.7309,-2.7309,-2.7309,-2.7309,-2.7309,-2.7309,-2.7309,-2.7309,-2.7309,-2.7214,-2.7081,-2.7081,-2.6976,-2.688,-2.7034,-2.6996,-2.6948,-2.7214,-2.6928,-2.6448,-2.6352,-2.6294,-2.6294,-2.6448,-2.6342,-2.6294,-2.6294,-2.6062,-2.5868,-2.5732,-2.5693,-2.5693,-2.5693,-2.5693,-2.5693,-2.5693,-2.5693,-2.5693,-2.5693,-2.5693,-2.5693,-2.5693,-2.5693,-2.5693,-2.5693,-2.5693,0.0,-2.5693,-2.5693,-2.5693,-2.5693,-2.5693,-2.5693,-2.5693,-2.5693,-2.5693,-2.5693,-2.5693,-2.5693,-2.5693,-2.5693,-2.5693,-2.5693,-2.5693,-2.5693,-2.5693,-2.5693,-2.5693,-2.5693,-2.5693,-2.5693,-2.5693,-2.5693,-2.5693,-2.5693,-3.2669,-3.2669,-3.2706,-3.2633,-3.2246,-3.1868,-3.135,-3.0936,-3.0522,-3.0056,-2.9994,-2.9994,-2.9994,-2.9994,-2.9994,-2.9994,-2.9994,-2.9994,-2.9994,-2.9994,-2.9994,-2.9994,-2.9994,-2.9994,-2.9994,-2.9994,-2.9963,-2.9891,-2.9032,-2.8576,-2.8493,-2.7655,-2.7309,-2.7309,-2.7309,-2.7309,-2.7309,-2.7309,-2.7309,-2.7309,-2.7309,-2.7309,-2.7309,-2.7309,-2.7309,-2.7309,-2.7309,-2.7309,-2.7309,-2.7309,-2.7309,-2.7309,-2.7309,-2.7309,-2.7309,-2.7309,-2.7129,-2.6996,-2.7214,-2.6928,-2.6496,-2.6245,-2.6352,-2.6602,-2.6853,-2.6699,-2.6554,-2.6496,-2.6304,-2.6004,-2.5732,-2.5693,-2.5693,-2.5693,-2.5693,-2.5693,-2.5693,0.0,-2.5693,-2.5693,-2.5693,-2.5693,-2.5693,-2.5693,-2.5693,-2.5693,-2.5693,-2.5693,-2.5693,-2.5693,-2.5693,-2.5693,-2.5693,-2.5693,-2.5693,-2.5693,-2.5693,-2.5693,-2.5693,-2.5693,-2.5693,-2.5693,-2.5693,-2.5693,-2.5693,-2.5693,-2.5693,-2.5693,-2.5693,-2.5693,-2.5693,-2.5693,-2.5693,-2.5693,-2.5693,-2.5693,-3.2669,-3.2669,-3.2545,-3.2163,-3.2039,-3.1754,-3.0926,-3.0729,-3.0522,-3.0056,-2.9994,-2.9994,-2.9994,-2.9994,-2.9994,-2.9994,-2.9994,-2.9994,-2.9994,-2.9994,-2.9994,-2.9994,-2.9994,-2.9994,-2.9994,-2.9994,-2.9808,-2.9415,-2.8876,-2.8411,-2.8017,-2.75,-2.7309,-2.7309,-2.7309,-2.7309,-2.7309,-2.7309,-2.7309,-2.7309,-2.7309,-2.7309,-2.7309,-2.7309,-2.7309,-2.7309,-2.7309,-2.7309,-2.7309,-2.7309,-2.7309,-2.7309,-2.7309,-2.7309,-2.7309,-2.7309,-2.7262,-2.7262,-2.7309,-2.7081,-2.6747,-2.6496,-2.6651,-2.6853,-2.69,-2.6853,-2.6747,-2.6554,-2.6304,-2.6004,-2.5732,-2.5693,-2.5693,-2.5693,-2.5693,-2.5693,-2.5693,0.0,-2.5693,-2.5693,-2.5693,-2.5693,-2.5693,-2.5693,-2.5693,-2.5693,-2.5693,-2.5693,-2.5693,-2.5693,-2.5693,-2.5693,-2.5693,-2.5693,-2.5693,-2.5693,-2.5693,-2.5693,-2.5693,-2.5693,-2.5693,-2.5693,-2.5693,-2.5693,-2.5693,-2.5693,-2.5693,-2.5693,-2.5693,-2.5693,-2.5693,-2.5693,-2.5693,-2.5693,-2.5693,-2.5693,-3.2669,-3.2473,-3.2235,-3.2019,-3.1629,-3.1174,-3.075,-3.047,-3.0243,-3.0025,-2.9994,-2.9994,-2.9994,-2.9994,-2.9994,-2.9994,-2.9994,-2.9994,-2.9994,-2.9994,-2.9994,-2.9994,-2.9994,-2.9994,-2.9994,-2.9746,-2.9518,-2.9301,-2.8587,-2.8131,-2.7914,-2.7469,-2.7309,-2.7309,-2.7309,-2.7309,-2.7309,-2.7309,-2.7309,-2.7309,-2.7309,-2.7309,-2.7309,-2.7309,-2.7309,-2.7309,-2.7309,-2.7309,-2.7309,-2.7309,-2.7309,-2.7309,-2.7309,-2.7309,-2.7309,-2.7309,-2.7309,-2.7262,-2.7129,-2.7081,-2.7034,-2.6794,-2.6938,-2.7129,-2.7129,-2.689,-2.6651,-2.6554,-2.6159,-2.5868,-2.5732,-2.5693,-2.5693,-2.5693,-2.5693,-2.5693,-2.5693,-2.5693,-2.5693,-2.5693,-2.5693,-2.5693,-2.5693,-2.5693,-2.5693,-2.5693,-2.5693,-2.5693,-2.5693,-2.5693,-2.5693,-2.5693,-2.5693,-2.5693,-2.5693,-2.5693,-2.5693,-2.5693,-2.5693,-2.5693,-2.5693,-2.5693,-2.5693,-2.5693,-2.5693,-2.5693,-2.5693,-2.5693,-2.5693,-2.5693,-2.5693,-2.5693,-2.5693,-2.5693,-2.5693,-2.5693,-3.2514,-3.2142,-3.1857,-3.1743,-3.1143,-3.0646,-3.0543,-3.0222,-2.9994,-2.9994,-2.9994,-2.9994,-2.9994,-2.9994,-2.9994,-2.9994,-2.9994,-2.9994,-2.9994,-2.9994,-2.9994,-2.9994,-2.9994,-2.9942,-2.9839,-2.9487,-2.9197,-2.898,-2.8266,-2.7872,-2.7759,-2.7417,-2.7309,-2.7309,-2.7309,-2.7309,-2.7309,-2.7309,-2.7309,-2.7309,-2.7309,-2.7309,-2.7309,-2.7309,-2.7309,-2.7309,-2.7309,-2.7309,-2.7309,-2.7309,-2.7309,-2.7309,-2.7309,-2.7309,-2.7309,-2.7309,-2.7309,-2.7262,-2.7034,-2.7129,-2.7262,-2.7034,-2.7177,-2.7262,-2.7214,-2.689,-2.6544,-2.6448,-2.6062,-2.5781,-2.5684,-2.5693,-2.5693,-2.5693,0.0,-2.5693,-2.5693,-2.5693,-2.5693,-2.5693,-2.5693,-2.5693,-2.5693,-2.5693,-2.5693,-2.5693,-2.5693,-2.5693,-2.5693,-2.5693,-2.5693,-2.5693,-2.5693,-2.5693,-2.5693,-2.5693,-2.5693,-2.5693,-2.5693,-2.5693,-2.5693,-2.5693,-2.5693,-2.5693,-2.5693,-2.5693,-2.5693,-2.5693,-2.5693,-2.5693,-2.5693,-2.5693,-2.5693,-2.5693,-2.5693,-2.5693,-3.2039,-3.1733,-3.1298,-3.0864,-3.0729,-3.0543,-3.0118,-3.0015,-2.9994,-2.9994,-2.9994,-2.9994,-2.9994,-2.9994,-2.9994,-2.9994,-2.9994,-2.9994,-2.9994,-2.9994,-2.9994,-2.9994,-2.9994,-2.9798,-2.9363,-2.9321,-2.8887,-2.8028,-2.7955,-2.7717,-2.7351,-2.732,-2.7309,-2.7309,-2.7309,-2.7309,-2.7309,-2.7309,-2.7309,-2.7309,-2.7309,-2.7309,-2.7309,-2.7309,-2.7309,-2.7309,-2.7309,-2.7309,-2.7309,-2.7309,-2.7309,-2.7309,-2.7309,-2.7309,-2.7309,-2.7309,-2.7309,-2.7309,-2.7262,-2.7262,-2.7309,-2.7262,-2.7309,-2.7214,-2.6996,-2.69,-2.6747,-2.6245,-2.61,-2.6004,-2.5732,-2.5693,-2.5693,-2.5693,0.0,0.0,-2.5693,-2.5693,-2.5693,-2.5693,-2.5693,-2.5693,-2.5693,-2.5693,-2.5693,-2.5693,-2.5693,-2.5693,-2.5693,-2.5693,-2.5693,-2.5693,-2.5693,-2.5693,-2.5693,-2.5693,-2.5693,-2.5693,-2.5693,-2.5693,-2.5693,-2.5693,-2.5693,-2.5693,-2.5693,-2.5693,-2.5693,-2.5693,-2.5693,-2.5693,-2.5693,-2.5693,-2.5693,-2.5693,-2.5693,-2.5693,-3.1681,-3.1257,-3.0895,-3.0719,-3.045,-3.0201,-3.0025,-2.9994,-2.9994,-2.9994,-2.9994,-2.9994,-2.9994,-2.9994,-2.9994,-2.9994,-2.9994,-2.9994,-2.9994,-2.9994,-2.9994,-2.9994,-2.9715,-2.9487,-2.9311,-2.8742,-2.8276,-2.7924,-2.7645,-2.7475,-2.7309,-2.7309,-2.7309,-2.7309,-2.7309,-2.7309,-2.7309,-2.7309,-2.7309,-2.7309,-2.7309,-2.7309,-2.7309,-2.7309,-2.7309,-2.7309,-2.7309,-2.7309,-2.7309,-2.7309,-2.7309,-2.7309,-2.7309,-2.7309,-2.7309,-2.7309,-2.7309,-2.7309,-2.7309,-2.7309,-2.7309,-2.7309,-2.7309,-2.7214,-2.6948,-2.6747,-2.6554,-2.6197,-2.5965,-2.583,-2.5742,-2.5693,-2.5693,-2.5693,0.0,-2.5693,-2.5693,-2.5693,-2.5693,-2.5693,-2.5693,-2.5693,-2.5693,-2.5693,-2.5693,-2.5693,-2.5693,-2.5693,-2.5693,-2.5693,-2.5693,-2.5693,-2.5693,-2.5693,-2.5693,-2.5693,-2.5693,-2.5693,-2.5693,-2.5693,-2.5693,-2.5693,-2.5693,-2.5693,-2.5693,-2.5693,-2.5693,-2.5693,-2.5693,-2.5693,-2.5693,-2.5693,-2.5693,-2.5693,-2.5693,-2.5693,-3.1215,-3.0791,-3.047,-3.047,-3.0212,-2.9994,-2.9994,-2.9994,-2.9994,-2.9994,-2.9994,-2.9994,-2.9994,-2.9994,-2.9994,-2.9994,-2.9994,-2.9994,-2.9994,-2.986,-2.9777,-2.9777,-2.9477,-2.9166,-2.8876,-2.8245,-2.7852,-2.7717,-2.7455,-2.7309,-2.7309,-2.7309,-2.7309,-2.7309,-2.7309,-2.7309,-2.7309,-2.7309,-2.7309,-2.7309,-2.7309,-2.7309,-2.7309,-2.7309,-2.7309,-2.7309,-2.7309,-2.7309,-2.7309,-2.7309,-2.7309,-2.7309,-2.7309,-2.7309,-2.7309,-2.7309,-2.7309,-2.7309,-2.7309,-2.7309,-2.7309,-2.7309,-2.7214,-2.7071,-2.6842,-2.6554,-2.6304,-2.6004,-2.582,-2.5693,-2.5693,-2.5693,-2.5693,-2.5693,-2.5693,-2.5693,-2.5693,-2.5693,-2.5693,-2.5693,-2.5693,-2.5693,-2.5693,-2.5693,-2.5693,-2.5693,-2.5693,-2.5693,-2.5693,-2.5693,-2.5693,-2.5693,-2.5693,-2.5693,-2.5693,-2.5693,-2.5693,-2.5693,-2.5693,-2.5693,-2.5693,-2.5693,-2.5693,-2.5693,-2.5693,-2.5693,-2.5693,-2.5693,-2.5693,-2.5693,-2.5693,-2.5693,-2.5693,-2.5693,-2.5693,-2.5693,-3.0677,-3.0315,-2.9994,-2.9994,-2.9994,-2.9994,-2.9994,-2.9994,-2.9994,-2.9994,-2.9994,-2.9994,-2.9994,-2.9994,-2.9994,-2.9994,-2.9994,-2.9994,-2.9984,-2.9559,-2.9301,-2.929,-2.929,-2.8866,-2.7945,-2.7914,-2.7696,-2.7309,-2.7309,-2.7309,-2.7309,-2.7309,-2.7309,-2.7309,-2.7309,-2.7309,-2.7309,-2.7309,-2.7309,-2.7309,-2.7309,-2.7309,-2.7309,-2.7309,-2.7309,-2.7309,-2.7309,-2.7309,-2.7309,-2.7309,-2.7309,-2.7309,-2.7309,-2.7309,-2.7309,-2.7309,-2.7309,-2.7309,-2.7309,-2.7309,-2.7309,-2.7309,-2.7081,-2.6853,-2.6544,-2.6294,-2.6004,-2.5781,-2.5693,-2.5693,-2.5693,-2.5693,-2.5693,-2.5693,-2.5693,-2.5693,-2.5693,-2.5693,-2.5693,-2.5693,-2.5693,-2.5693,-2.5693,-2.5693,-2.5693,-2.5693,-2.5693,-2.5693,-2.5693,-2.5693,-2.5693,-2.5693,-2.5693,-2.5693,-2.5693,-2.5693,-2.5693,-2.5693,-2.5693,-2.5693,-2.5693,-2.5693,-2.5693,-2.5693,-2.5693,-2.5693,-2.5693,-2.5693,-2.5693,-2.5693,-2.5693,-2.5693,-2.5693,-2.5693,-2.5693,-2.5693,-3.0263,-3.0087,-2.9994,-2.9994,-2.9994,-2.9994,-2.9994,-2.9994,-2.9994,-2.9994,-2.9994,-2.9994,-2.9994,-2.9994,-2.9994,-2.9994,-2.9994,-2.986,-2.9528,-2.9384,-2.9021,-2.8359,-2.8338,-2.8204,-2.7935,-2.7614,-2.7444,-2.7309,-2.7309,-2.7309,-2.7309,-2.7309,-2.7309,-2.7309,-2.7309,-2.7309,-2.7309,-2.7309,-2.7309,-2.7309,-2.7309,-2.7309,-2.7309,-2.7309,-2.7309,-2.7309,-2.7309,-2.7309,-2.7309,-2.7309,-2.7309,-2.7309,-2.7309,-2.7309,-2.7309,-2.7309,-2.7309,-2.7309,-2.7309,-2.7309,-2.7262,-2.7081,-2.6948,-2.6805,-2.6294,-2.6149,-2.6004,-2.5781,-2.5693,-2.5693,-2.5693,-2.5693,-2.5693,-2.5693,-2.5693,-2.5693,-2.5693,-2.5693,-2.5693,-2.5693,-2.5693,-2.5693,-2.5693,-2.5693,-2.5693,-2.5693,-2.5693,-2.5693,-2.5693,-2.5693,-2.5693,-2.5693,-2.5693,-2.5693,-2.5693,-2.5693,-2.5693,-2.5693,-2.5693,-2.5693,-2.5693,-2.5693,-2.5693,-2.5693,-2.5693,-2.5693,-2.5693,-2.5693,-2.5693,-2.5693,-2.5693,-2.5693,-2.5693,-2.5693,-2.5693,-2.5693,-3.0056,-2.9994,-2.9994,-2.9994,-2.9994,-2.9994,-2.9994,-2.9994,-2.9994,-2.9994,-2.9994,-2.9994,-2.9994,-2.9994,-2.9994,-2.9994,-2.9829,-2.9601,-2.9321,-2.8959,-2.8504,-2.7896,-2.7759,-2.7655,-2.7655,-2.7396,-2.7309,-2.7309,-2.7309,-2.7309,-2.7309,-2.7309,-2.7309,-2.7309,-2.7309,-2.7309,-2.7309,-2.7309,-2.7309,-2.7309,-2.7309,-2.7309,-2.7309,-2.7309,-2.7309,-2.7309,-2.7309,-2.7309,-2.7309,-2.7309,-2.7309,-2.7309,-2.7309,-2.7309,-2.7309,-2.7309,-2.7309,-2.7309,-2.7309,-2.7309,-2.7214,-2.6948,-2.69,-2.6805,-2.6496,-2.6342,-2.6207,-2.6072,-2.5917,-2.5868,-2.5868,-2.5781,-2.5693,-2.5693,-2.5693,-2.5693,-2.5693,-2.5693,-2.5693,-2.5693,-2.5693,-2.5693,-2.5693,-2.5693,-2.5693,-2.5693,-2.5693,-2.5693,-2.5693,-2.5693,-2.5693,-2.5693,-2.5693,-2.5693,-2.5693,-2.5693,-2.5693,-2.5693,-2.5693,-2.5693,-2.5693,-2.5693,-2.5693,-2.5693,-2.5693,-2.5693,-2.5693,-2.5693,-2.5693,-2.5693,-2.5693,-2.5693,-2.5693,-2.5693,-2.5693,-2.5693,-3.0141,-3.0047,-2.9994,-2.9994,-2.9994,-2.9994,-2.9994,-2.9994,-2.9994,-2.9994,-2.9994,-2.9994,-2.9994,-2.9994,-2.9994,-2.9994,-2.957,-2.927,-2.9187,-2.839,-2.7903,-2.7862,-2.7479,-2.7309,-2.7309,-2.7309,-2.7309,-2.7309,-2.7309,-2.7309,-2.7309,-2.7309,-2.7309,-2.7309,-2.7309,-2.7309,-2.7309,-2.7309,-2.7309,-2.7309,-2.7309,-2.7309,-2.7309,-2.7309,-2.7309,-2.7309,-2.7309,-2.7309,-2.7309,-2.7309,-2.7309,-2.7309,-2.7309,-2.7309,-2.7309,-2.7309,-2.7309,-2.7309,-2.7309,-2.7309,-2.7262,-2.6996,-2.6948,-2.69,-2.69,-2.6699,-2.6496,-2.6448,-2.6245,-2.61,-2.6052,-2.5868,-2.5693,-2.5693,-2.5693,-2.5693,-2.5693,-2.5693,-2.5693,-2.5693,-2.5693,-2.5693,-2.5693,-2.5693,-2.5693,-2.5693,-2.5693,-2.5693,-2.5693,-2.5693,-2.5693,-2.5693,-2.5693,-2.5693,-2.5693,-2.5693,-2.5693,-2.5693,-2.5693,-2.5693,-2.5693,-2.5693,-2.5693,-2.5693,-2.5693,-2.5693,-2.5693,-2.5693,-2.5693,-2.5693,-2.5693,-2.5693,-2.5693,-2.5693,-2.5693,-2.5693,-3.1227,-3.0588,-2.9994,-2.9994,-2.9994,-2.9994,-2.9994,-2.9994,-2.9994,-2.9994,-2.9994,-2.9994,-2.9994,-2.9994,-2.9994,-2.9994,-2.957,-2.9001,-2.8266,-2.7989,-2.7769,-2.7417,-2.7361,-2.7309,-2.7309,-2.7309,-2.7309,-2.7309,-2.7309,-2.7309,-2.7309,-2.7309,-2.7309,-2.7309,-2.7309,-2.7309,-2.7309,-2.7309,-2.7309,-2.7309,-2.7309,-2.7309,-2.7309,-2.7309,-2.7309,-2.7309,-2.7309,-2.7309,-2.7309,-2.7309,-2.7309,-2.7309,-2.7309,-2.7309,-2.7309,-2.7309,-2.7309,-2.7309,-2.7309,-2.7309,-2.7309,-2.7214,-2.7214,-2.7119,-2.6699,-2.6544,-2.6448,-2.6245,-2.6149,-2.6052,-2.583,-2.5732,-2.5693,-2.5693,-2.5693,-2.5693,-2.5693,-2.5693,-2.5693,-2.5693,-2.5693,-2.5693,-2.5693,-2.5693,-2.5693,-2.5693,-2.5693,-2.5693,-2.5693,-2.5693,-2.5693,-2.5693,-2.5693,-2.5693,-2.5693,-2.5693,-2.5693,-2.5693,-2.5693,-2.5693,-2.5693,-2.5693,-2.5693,-2.5693,-2.5693,-2.5693,-2.5693,-2.5693,-2.5693,-2.5693,-2.5693,-2.5693,-2.5693,-2.5693,-2.5693,-2.5693,-3.1677,-3.1135,-3.0588,-3.0099,-2.9994,-2.9994,-2.9994,-2.9994,-2.9994,-2.9994,-2.9994,-2.9994,-2.9994,-2.9798,-2.958,-2.9352,-2.8918,-2.8442,-2.7955,-2.7728,-2.75,-2.732,-2.7309,-2.7309,-2.7309,-2.7309,-2.7309,-2.7309,-2.7309,-2.7309,-2.7309,-2.7309,-2.7309,-2.7309,-2.7309,-2.7309,-2.7309,-2.7309,-2.7309,-2.7309,-2.7309,-2.7309,-2.7309,-2.7309,-2.7309,-2.7309,-2.7309,-2.7309,-2.7309,-2.7309,-2.7309,-2.7309,-2.7309,-2.7309,-2.7309,-2.7309,-2.7309,-2.7309,-2.7309,-2.7309,-2.7309,-2.7309,-2.7309,-2.7214,-2.6928,-2.688,-2.6832,-2.6544,-2.64,-2.6207,-2.5917,-2.5781,-2.5693,-2.5693,-2.5693,-2.5693,-2.5693,-2.5693,-2.5693,-2.5693,-2.5693,-2.5693,-2.5693,-2.5693,-2.5693,-2.5693,-2.5693,-2.5693,-2.5693,-2.5693,-2.5693,-2.5693,-2.5693,-2.5693,-2.5693,-2.5693,-2.5693,-2.5693,-2.5693,-2.5693,-2.5693,-2.5693,-2.5693,-2.5693,-2.5693,-2.5693,-2.5693,-2.5693,-2.5693,-2.5693,-2.5693,-2.5693,-2.5693,-2.5693,-2.5693,-2.5693,-3.2033,-3.1586,-3.1043,-3.0141,-2.9994,-2.9994,-2.9994,-2.9994,-2.9994,-2.9994,-2.9994,-2.9963,-2.9891,-2.9466,-2.9001,-2.8535,-2.8142,-2.7893,-2.781,-2.7469,-2.7309,-2.7309,-2.7309,-2.7309,-2.7309,-2.7309,-2.7309,-2.7309,-2.7309,-2.7309,-2.7309,-2.7309,-2.7309,-2.7309,-2.7309,-2.7309,-2.7309,-2.7309,-2.7309,-2.7309,-2.7309,-2.7309,-2.7309,-2.7309,-2.7309,-2.7309,-2.7309,-2.7309,-2.7309,-2.7309,-2.7309,-2.7309,-2.7309,-2.7309,-2.7309,-2.7309,-2.7309,-2.7309,-2.7309,-2.7309,-2.7309,-2.7309,-2.7309,-2.7309,-2.7309,-2.7262,-2.7177,-2.69,-2.6602,-2.6352,-2.61,-2.5868,-2.5732,-2.5684,-2.5732,-2.5732,-2.5693,-2.5693,-2.5693,-2.5693,-2.5732,-2.5732,-2.5693,-2.5732,-2.5732,-2.5693,-2.5693,-2.5693,-2.5693,-2.5693,-2.5693,-2.5693,-2.5693,-2.5693,-2.5693,-2.5693,-2.5693,-2.5693,-2.5693,-2.5693,-2.5693,-2.5693,-2.5693,-2.5693,-2.5693,-2.5693,-2.5693,-2.5693,-2.5693,-2.5693,-2.5693,-2.5693,-2.5693,-2.5693,-2.5693,-2.5693,-3.3001,-3.1494,-3.0193,-3.0047,-2.9994,-2.9994,-2.9994,-2.9994,-2.9994,-2.9994,-2.9994,-2.9849,-2.9446,-2.899,-2.8524,-2.8059,-2.7966,-2.7759,-2.7423,-2.734,-2.7309,-2.7309,-2.7309,-2.7309,-2.7309,-2.7309,-2.7309,-2.7309,-2.7309,-2.7309,-2.7309,-2.7309,-2.7309,-2.7309,-2.7309,-2.7309,-2.7309,-2.7309,-2.7309,-2.7309,-2.7309,-2.7309,-2.7309,-2.7309,-2.7309,-2.7309,-2.7309,-2.7309,-2.7309,-2.7309,-2.7309,-2.7309,-2.7309,-2.7309,-2.7309,-2.7309,-2.7309,-2.7309,-2.7309,-2.7309,-2.7309,-2.7309,-2.7309,-2.7309,-2.7309,-2.7129,-2.69,-2.6592,-2.6352,-2.6052,-2.5781,-2.5917,-2.5965,-2.5732,-2.5868,-2.5955,-2.5732,-2.5693,-2.5693,-2.5693,-2.5917,-2.5965,-2.5732,-2.5917,-2.5965,-2.5742,-2.5693,-2.5693,-2.5693,-2.5693,-2.5693,-2.5693,-2.5693,-2.5693,-2.5693,-2.5693,-2.5693,-2.5693,-2.5693,-2.5693,-2.5693,-2.5693,-2.5693,-2.5693,-2.5693,-2.5693,-2.5693,-2.5693,-2.5693,-2.5693,-2.5693,-2.5693,-2.5693,-2.5693,-2.5693,-2.5693,-3.3449,-3.2448,-3.1403,-3.0193,-2.9994,-2.9994,-2.9994,-2.9994,-2.9994,-2.9994,-2.9766,-2.9528,-2.9332,-2.8659,-2.8048,-2.7593,-2.7552,-2.7469,-2.732,-2.7309,-2.7309,-2.7309,-2.7309,-2.7309,-2.7309,-2.7309,-2.7309,-2.7309,-2.7309,-2.7309,-2.7309,-2.7309,-2.7309,-2.7309,-2.7309,-2.7309,-2.7309,-2.7309,-2.7309,-2.7309,-2.7309,-2.7309,-2.7309,-2.7309,-2.7309,-2.7309,-2.7309,-2.7309,-2.7309,-2.7309,-2.7309,-2.7309,-2.7309,-2.7309,-2.7309,-2.7309,-2.7309,-2.7309,-2.7309,-2.7309,-2.7309,-2.7309,-2.7309,-2.7309,-2.7309,-2.7081,-2.6853,-2.6757,-2.6651,-2.6448,-2.6217,-2.6255,-2.6304,-2.6169,-2.611,-2.6052,-2.5965,-2.5917,-2.5965,-2.612,-2.6255,-2.6197,-2.5965,-2.6052,-2.6004,-2.5732,-2.5693,-2.5693,-2.5693,-2.5693,-2.5693,-2.5693,-2.5693,-2.5693,-2.5693,-2.5693,-2.5693,-2.5693,-2.5693,-2.5693,-2.5693,-2.5693,-2.5693,-2.5693,-2.5693,-2.5693,-2.5693,-2.5693,-2.5693,-2.5693,-2.5693,-2.5693,-2.5693,-2.5693,-2.5693,-2.5693]},{"header":{"parameterUnit":"m.s-1","parameterCategory":1,"la1":30.6,"la2":28.766,"lo1":-90.7593,"lo2":-88.6598,"dy":0.0162,"dx":0.0183,"nx":116,"ny":114,"refTime":"2023-06-21T12:00:00:Z","depth":0,"parameterNumber":3,"parameterNumberName":"V-component_of_WINDS"},"data":[0.0,0.0,0.0,0.0,0.0,0.0,0.0,0.0,0.0,0.0,0.0,0.0,0.0,0.0,0.0,0.0,0.0,0.0,0.0,0.0,0.0,0.0,0.0,0.0,0.0,0.0,0.0,0.0,0.0,0.0,0.0,0.0,0.0,0.0,0.0,0.0,0.0,0.0,0.0,0.0,0.0,0.0,0.0,0.0,0.0,0.0,0.0,0.0,0.0,0.0,0.0,0.0,0.0,0.0,0.0,0.0,0.0,0.0,0.0,0.0,0.0,0.0,0.0,0.0,0.0,0.0,0.0,0.0,0.0,0.0,0.0,0.0,0.0,0.0,0.0,0.0,0.0,0.0,0.0,0.0,0.0,0.0,0.0,0.0,0.0,0.0,0.0,0.0,0.0,0.0,0.0,0.0,0.0,0.0,0.0,0.0,0.0,0.0,0.0,0.0,0.0,0.0,0.0,0.0,0.0,0.0,0.0,0.0,0.0,0.0,0.0,0.0,0.0,0.0,0.0,0.0,0.0,0.0,0.0,0.0,0.0,0.0,0.0,0.0,0.0,0.0,0.0,0.0,0.0,0.0,0.0,0.0,0.0,0.0,0.0,0.0,0.0,0.0,0.0,0.0,0.0,0.0,0.0,0.0,0.0,0.0,0.0,0.0,0.0,0.0,0.0,0.0,0.0,0.0,0.0,0.0,0.0,0.0,0.0,0.0,0.0,0.0,0.0,0.0,0.0,0.0,0.0,0.0,0.0,0.0,0.0,0.0,0.0,0.0,0.0,0.0,0.0,0.0,0.0,0.0,0.0,0.0,0.0,0.0,0.0,0.0,0.0,0.0,0.0,0.0,0.0,0.0,0.0,0.0,0.0,0.0,0.0,0.0,0.0,0.0,0.0,0.0,0.0,0.0,0.0,0.0,0.0,0.0,0.0,0.0,0.0,0.0,0.0,0.0,0.0,0.0,0.0,0.0,0.0,0.0,0.0,0.0,0.0,0.0,0.0,0.0,0.0,0.0,0.0,0.0,0.0,0.0,0.0,0.0,0.0,0.0,0.0,0.0,0.0,0.0,0.0,0.0,0.0,0.0,0.0,0.0,0.0,0.0,0.0,0.0,0.0,0.0,0.0,0.0,0.0,0.0,0.0,0.0,0.0,0.0,0.0,0.0,0.0,0.0,0.0,0.0,0.0,0.0,0.0,0.0,0.0,0.0,0.0,0.0,0.0,0.0,0.0,0.0,0.0,0.0,0.0,0.0,0.0,0.0,0.0,0.0,0.0,0.0,0.0,0.0,0.0,0.0,0.0,0.0,0.0,0.0,0.0,0.0,0.0,0.0,0.0,0.0,0.0,0.0,0.0,0.0,0.0,0.0,0.0,0.0,0.0,0.0,0.0,0.0,0.0,0.0,0.0,0.0,0.0,0.0,0.0,0.0,0.0,0.0,0.0,0.0,0.0,0.0,0.0,0.0,0.0,0.0,0.0,0.0,0.0,0.0,0.0,0.0,0.0,0.0,0.0,0.0,0.0,0.0,0.0,0.0,0.0,0.0,0.0,0.0,0.0,0.0,0.0,0.0,0.0,0.0,0.0,0.0,0.0,0.0,0.0,0.0,0.0,0.0,0.0,0.0,0.0,0.0,0.0,0.0,0.0,0.0,0.0,0.0,0.0,0.0,0.0,0.0,0.0,0.0,0.0,0.0,0.0,0.0,0.0,0.0,0.0,0.0,0.0,0.0,0.0,0.0,0.0,0.0,0.0,0.0,0.0,0.0,0.0,0.0,0.0,0.0,0.0,0.0,0.0,0.0,0.0,0.0,0.0,0.0,0.0,0.0,0.0,0.0,0.0,0.0,0.0,0.0,0.0,0.0,0.0,0.0,0.0,0.0,0.0,0.0,0.0,0.0,0.0,0.0,0.0,0.0,0.0,0.0,0.0,0.0,0.0,0.0,0.0,0.0,0.0,0.0,0.0,0.0,0.0,0.0,0.0,0.0,0.0,0.0,0.0,0.0,0.0,0.0,0.0,0.0,0.0,0.0,0.0,0.0,0.0,0.0,0.0,0.0,0.0,0.0,0.0,0.0,0.0,0.0,0.0,0.0,0.0,0.0,0.0,0.0,0.0,0.0,0.0,0.0,0.0,0.0,0.0,0.0,0.0,0.0,0.0,0.0,0.0,0.0,0.0,0.0,0.0,0.0,0.0,0.0,0.0,0.0,0.0,0.0,0.0,0.0,0.0,0.0,0.0,0.0,0.0,0.0,0.0,0.0,0.0,0.0,0.0,0.0,0.0,0.0,0.0,0.0,0.0,0.0,0.0,0.0,0.0,0.0,0.0,0.0,0.0,0.0,0.0,0.0,0.0,0.0,0.0,0.0,0.0,0.0,0.0,0.0,0.0,0.0,0.0,0.0,0.0,0.0,0.0,0.0,0.0,0.0,0.0,0.0,0.0,0.0,0.0,0.0,0.0,0.0,0.0,0.0,0.0,0.0,0.0,0.0,0.0,0.0,0.0,0.0,0.0,0.0,0.0,0.0,0.0,0.0,0.0,0.0,0.0,0.0,0.0,0.0,0.0,0.0,0.0,0.0,0.0,0.0,0.0,0.0,0.0,0.0,0.0,0.0,0.0,0.0,0.0,0.0,0.0,0.0,0.0,0.0,0.0,0.0,0.0,0.0,0.0,0.0,0.0,0.0,0.0,0.0,0.0,0.0,0.0,0.0,0.0,0.0,0.0,0.0,0.0,0.0,0.0,0.0,0.0,0.0,0.0,0.0,0.0,0.0,0.0,0.0,0.0,0.0,0.0,0.0,0.0,0.0,0.0,0.0,0.0,0.0,0.0,0.0,0.0,0.0,0.0,0.0,0.0,0.0,0.0,0.0,0.0,0.0,0.0,0.0,0.0,0.0,0.0,0.0,0.0,0.0,0.0,0.0,0.0,0.0,0.0,0.0,0.0,0.0,0.0,0.0,0.0,0.0,0.0,0.0,0.0,0.0,0.0,0.0,0.0,0.0,0.0,0.0,0.0,0.0,0.0,0.0,0.0,0.0,0.0,0.0,0.0,0.0,0.0,0.0,0.0,0.0,0.0,0.0,0.0,0.0,0.0,0.0,0.0,0.0,0.0,0.0,0.0,0.0,0.0,0.0,0.0,0.0,0.0,0.0,0.0,0.0,0.0,0.0,0.0,0.0,0.0,0.0,0.0,0.0,0.0,0.0,0.0,0.0,0.0,0.0,0.0,0.0,0.0,0.0,0.0,0.0,0.0,0.0,0.0,0.0,0.0,0.0,0.0,0.0,0.0,0.0,0.0,0.0,0.0,0.0,0.0,0.0,0.0,0.0,0.0,0.0,0.0,0.0,0.0,0.0,0.0,0.0,0.0,0.0,0.0,0.0,0.0,0.0,0.0,0.0,0.0,0.0,0.0,0.0,0.0,0.0,0.0,0.0,0.0,0.0,0.0,0.0,0.0,0.0,0.0,0.0,0.0,0.0,0.0,0.0,0.0,0.0,0.0,0.0,0.0,0.0,0.0,0.0,0.0,0.0,0.0,0.0,0.0,0.0,0.0,0.0,0.0,0.0,0.0,0.0,0.0,0.0,0.0,0.0,0.0,0.0,0.0,0.0,0.0,0.0,0.0,0.0,0.0,0.0,0.0,0.0,0.0,0.0,0.0,0.0,0.0,0.0,0.0,0.0,0.0,0.0,0.0,0.0,0.0,0.0,0.0,0.0,0.0,0.0,0.0,0.0,0.0,0.0,0.0,0.0,0.0,0.0,0.0,0.0,0.0,0.0,0.0,0.0,0.0,0.0,0.0,0.0,0.0,0.0,0.0,0.0,0.0,0.0,0.0,0.0,0.0,0.0,0.0,0.0,0.0,0.0,0.0,0.0,0.0,0.0,0.0,0.0,0.0,0.0,0.0,0.0,0.0,0.0,0.0,0.0,0.0,0.0,0.0,0.0,0.0,0.0,0.0,0.0,0.0,0.0,0.0,0.0,0.0,0.0,0.0,0.0,0.0,0.0,0.0,0.0,0.0,0.0,0.0,0.0,0.0,0.0,0.0,0.0,0.0,0.0,0.0,0.0,0.0,0.0,0.0,0.0,0.0,0.0,0.0,0.0,0.0,0.0,0.0,0.0,0.0,0.0,0.0,0.0,0.0,0.0,0.0,0.0,0.0,0.0,0.0,0.0,0.0,0.0,0.0,0.0,0.0,0.0,0.0,0.0,0.0,0.0,0.0,0.0,0.0,0.0,0.0,0.0,0.0,0.0,0.0,0.0,0.0,0.0,0.0,0.0,0.0,0.0,0.0,0.0,0.0,0.0,0.0,0.0,0.0,0.0,0.0,0.0,0.0,0.0,0.0,0.0,0.0,0.0,0.0,0.0,0.0,0.0,0.0,0.0,0.0,0.0,0.0,0.0,0.0,0.0,0.0,0.0,0.0,0.0,0.0,0.0,0.0,0.0,0.0,0.0,0.0,0.0,0.0,0.0,0.0,0.0,0.0,0.0,0.0,0.0,0.0,0.0,0.0,0.0,0.0,0.0,0.0,0.0,0.0,0.0,0.0,0.0,0.0,0.0,0.0,0.0,0.0,0.0,0.0,0.0,0.0,0.0,0.0,0.0,0.0,0.0,0.0,0.0,0.0,0.0,0.0,0.0,0.0,0.0,0.0,0.0,0.0,0.0,0.0,0.0,0.0,0.0,0.0,0.0,0.0,0.0,0.0,0.0,0.0,0.0,0.0,0.0,0.0,0.0,0.0,0.0,0.0,0.0,0.0,0.0,0.0,0.0,0.0,0.0,0.0,0.0,0.0,0.0,0.0,0.0,0.0,0.0,0.0,0.0,0.0,0.0,0.0,0.0,0.0,0.0,0.0,0.0,0.0,0.0,0.0,0.0,0.0,0.0,0.0,0.0,0.0,0.0,0.0,0.0,0.0,0.0,0.0,0.0,0.0,0.0,0.0,0.0,0.0,0.0,0.0,0.0,0.0,0.0,0.0,0.0,0.0,0.0,0.0,0.0,0.0,0.0,0.0,0.0,0.0,0.0,0.0,0.0,0.0,0.0,0.0,0.0,0.0,0.0,0.0,0.0,0.0,0.0,0.0,0.0,0.0,0.0,0.0,0.0,0.0,0.0,0.0,0.0,0.0,0.0,0.0,0.0,0.0,0.0,0.0,0.0,0.0,0.0,0.0,0.0,0.0,0.0,0.0,0.0,0.0,0.0,0.0,0.0,0.0,0.0,0.0,0.0,0.0,0.0,0.0,0.0,0.0,0.0,0.0,0.0,0.0,0.0,0.0,0.0,0.0,0.0,0.0,0.0,0.0,0.0,0.0,0.0,0.0,0.0,0.0,0.0,0.0,0.0,0.0,0.0,0.0,0.0,0.0,0.0,0.0,0.0,0.0,0.0,0.0,0.0,0.0,0.0,0.0,0.0,0.0,0.0,0.0,0.0,0.0,0.0,0.0,0.0,0.0,0.0,0.0,0.0,0.0,0.0,0.0,0.0,0.0,0.0,0.0,0.0,0.0,0.0,0.0,0.0,0.0,0.0,0.0,0.0,0.0,0.0,0.0,0.0,0.0,0.0,0.0,0.0,0.0,0.0,0.0,0.0,0.0,0.0,0.0,0.0,0.0,0.0,0.0,0.0,0.0,0.0,0.0,0.0,0.0,0.0,0.0,0.0,0.0,0.0,0.0,0.0,0.0,0.0,0.0,0.0,0.0,0.0,0.0,0.0,0.0,0.0,0.0,0.0,0.0,0.0,0.0,0.0,0.0,0.0,0.0,0.0,0.0,0.0,0.0,0.0,0.0,0.0,0.0,0.0,0.0,0.0,0.0,0.0,0.0,0.0,0.0,0.0,0.0,0.0,0.0,0.0,0.0,0.0,0.0,0.0,0.0,0.0,0.0,0.0,0.0,0.0,0.0,0.0,0.0,0.0,0.0,0.0,0.0,0.0,0.0,0.0,0.0,0.0,0.0,0.0,0.0,0.0,0.0,0.0,0.0,0.0,0.0,0.0,0.0,0.0,0.0,0.0,0.0,0.0,0.0,0.0,0.0,0.0,0.0,0.0,0.0,0.0,0.0,0.0,0.0,0.0,0.0,0.0,0.0,0.0,-4.4973,-4.4941,0.0,0.0,0.0,0.0,0.0,0.0,0.0,0.0,0.0,0.0,0.0,0.0,0.0,0.0,0.0,0.0,0.0,0.0,0.0,0.0,0.0,0.0,0.0,0.0,0.0,0.0,0.0,0.0,0.0,0.0,0.0,0.0,0.0,0.0,0.0,0.0,0.0,0.0,0.0,0.0,0.0,0.0,0.0,0.0,0.0,0.0,0.0,0.0,0.0,0.0,0.0,0.0,0.0,0.0,0.0,0.0,0.0,0.0,0.0,0.0,0.0,0.0,0.0,0.0,0.0,0.0,0.0,0.0,0.0,0.0,0.0,0.0,0.0,0.0,0.0,0.0,0.0,0.0,0.0,0.0,0.0,0.0,0.0,0.0,0.0,0.0,0.0,0.0,0.0,0.0,0.0,0.0,0.0,0.0,0.0,0.0,0.0,0.0,0.0,0.0,0.0,0.0,0.0,0.0,0.0,0.0,0.0,0.0,0.0,0.0,0.0,0.0,0.0,0.0,-4.503,-4.4893,0.0,0.0,0.0,0.0,0.0,0.0,0.0,0.0,0.0,0.0,0.0,0.0,0.0,0.0,0.0,0.0,0.0,0.0,0.0,0.0,0.0,0.0,0.0,0.0,0.0,0.0,0.0,0.0,0.0,0.0,0.0,0.0,0.0,0.0,0.0,0.0,0.0,0.0,0.0,0.0,0.0,0.0,0.0,0.0,0.0,0.0,0.0,0.0,0.0,0.0,0.0,0.0,0.0,0.0,0.0,0.0,0.0,0.0,0.0,0.0,0.0,0.0,0.0,0.0,0.0,0.0,0.0,0.0,0.0,0.0,0.0,0.0,0.0,0.0,0.0,0.0,0.0,0.0,0.0,0.0,0.0,0.0,0.0,0.0,0.0,0.0,0.0,0.0,0.0,0.0,0.0,0.0,0.0,0.0,0.0,0.0,0.0,0.0,0.0,0.0,0.0,0.0,0.0,0.0,0.0,0.0,0.0,0.0,-4.6039,-4.5845,-4.5012,-4.6104,-4.643,-4.6082,-4.5076,-4.4991,-4.5592,-4.52,0.0,0.0,0.0,0.0,0.0,0.0,0.0,0.0,0.0,0.0,0.0,0.0,0.0,0.0,0.0,0.0,0.0,0.0,0.0,0.0,0.0,0.0,0.0,0.0,0.0,0.0,0.0,0.0,0.0,0.0,0.0,0.0,0.0,0.0,0.0,0.0,0.0,0.0,-3.5577,-3.56,-3.56,-3.56,-3.56,0.0,0.0,0.0,0.0,0.0,0.0,0.0,0.0,0.0,0.0,0.0,0.0,0.0,0.0,0.0,0.0,0.0,0.0,0.0,0.0,0.0,0.0,0.0,0.0,0.0,0.0,0.0,0.0,0.0,0.0,0.0,0.0,0.0,0.0,0.0,0.0,0.0,0.0,0.0,0.0,0.0,0.0,0.0,-4.5773,-4.5883,0.0,0.0,0.0,0.0,0.0,0.0,0.0,0.0,0.0,0.0,0.0,0.0,0.0,-4.6708,-4.6782,-4.6836,-4.6663,-4.6329,-4.608,-4.5712,-4.5258,-4.5366,-4.5622,-4.5915,-4.5347,0.0,-4.7283,-4.722,0.0,0.0,0.0,0.0,0.0,0.0,0.0,0.0,0.0,0.0,0.0,0.0,0.0,0.0,0.0,0.0,0.0,0.0,0.0,0.0,0.0,0.0,0.0,0.0,0.0,0.0,0.0,0.0,0.0,0.0,0.0,0.0,0.0,0.0,0.0,0.0,-3.5549,-3.56,-3.56,-3.56,-3.56,-3.56,-3.56,-3.56,-3.5616,-3.5994,0.0,0.0,0.0,0.0,0.0,0.0,0.0,0.0,0.0,0.0,0.0,0.0,0.0,0.0,0.0,0.0,0.0,0.0,0.0,0.0,0.0,0.0,0.0,0.0,0.0,0.0,0.0,0.0,0.0,0.0,0.0,0.0,0.0,0.0,0.0,0.0,0.0,0.0,0.0,-4.562,-4.5971,-4.7113,-4.6247,-4.5843,0.0,0.0,0.0,0.0,0.0,0.0,0.0,0.0,0.0,-4.6562,-4.6489,-4.6434,-4.6434,-4.6434,-4.6341,-4.6171,-4.6451,-4.6337,-4.5924,-4.6359,-4.666,-4.6839,-4.664,-4.7118,-4.7922,-4.7028,-4.6679,-4.6731,0.0,0.0,0.0,0.0,-4.726,-4.726,0.0,0.0,0.0,0.0,0.0,0.0,0.0,0.0,0.0,0.0,0.0,0.0,0.0,0.0,0.0,-3.4899,0.0,0.0,0.0,0.0,0.0,0.0,0.0,0.0,0.0,0.0,0.0,0.0,-3.5594,-3.56,-3.56,-3.56,-3.56,-3.56,-3.56,-3.56,-3.56,-3.56,-3.6597,0.0,0.0,0.0,0.0,0.0,0.0,0.0,0.0,0.0,0.0,0.0,0.0,0.0,0.0,0.0,0.0,0.0,0.0,0.0,0.0,0.0,0.0,0.0,0.0,0.0,0.0,0.0,0.0,0.0,0.0,0.0,0.0,0.0,0.0,0.0,0.0,0.0,0.0,-4.6368,-4.6313,-4.7827,-4.65,-4.5876,0.0,0.0,0.0,0.0,0.0,0.0,-4.6801,-4.6782,-4.6782,-4.6782,-4.6416,-4.6214,-4.6214,-4.6416,-4.6507,-4.6526,-4.7113,-4.7217,-4.69,-4.7381,-4.7653,-4.7775,-4.7653,-4.7795,-4.8041,-4.6965,-4.6649,-4.6923,-4.7274,-4.7755,-4.8306,-4.8306,-4.8306,-4.8306,0.0,0.0,0.0,0.0,0.0,0.0,0.0,0.0,0.0,0.0,0.0,0.0,0.0,0.0,-3.4899,-3.4899,-3.4899,-3.4899,0.0,0.0,0.0,0.0,0.0,0.0,0.0,0.0,0.0,-3.56,-3.56,-3.56,-3.56,-3.56,-3.56,-3.56,-3.56,-3.56,-3.56,-3.56,-3.6907,-3.8937,0.0,0.0,0.0,0.0,0.0,0.0,0.0,0.0,0.0,0.0,0.0,0.0,0.0,0.0,0.0,0.0,0.0,0.0,0.0,0.0,0.0,0.0,0.0,0.0,0.0,0.0,0.0,0.0,0.0,0.0,0.0,0.0,0.0,0.0,0.0,0.0,0.0,0.0,0.0,-4.7149,-4.6397,0.0,0.0,0.0,0.0,-4.7002,-4.6655,-4.6306,-4.5975,-4.5957,-4.5957,-4.5957,-4.6654,-4.7039,-4.7039,-4.7791,-4.8177,-4.8177,-4.8233,-4.8232,-4.8175,-4.7797,-4.7836,-4.8248,-4.7795,-4.7611,-4.7674,-4.8021,-4.8195,-4.8212,-4.8232,-4.8269,-4.8306,-4.8306,-4.8306,-4.8306,0.0,0.0,0.0,0.0,0.0,0.0,0.0,0.0,0.0,0.0,0.0,0.0,0.0,-3.4899,-3.4899,-3.4899,-3.4899,-3.4947,-3.5018,0.0,0.0,0.0,0.0,0.0,0.0,0.0,-3.5532,-3.56,-3.56,-3.5853,-3.6366,-3.6366,-3.6637,-3.707,-3.707,-3.6823,-3.6332,-3.5802,-3.6631,-3.8328,-3.8802,-4.0206,0.0,0.0,0.0,0.0,0.0,0.0,0.0,0.0,0.0,0.0,0.0,0.0,0.0,0.0,0.0,0.0,0.0,0.0,0.0,0.0,0.0,0.0,0.0,0.0,0.0,0.0,0.0,0.0,0.0,0.0,0.0,0.0,0.0,0.0,0.0,0.0,0.0,-4.7094,-4.663,0.0,-4.7057,-4.6256,-4.5868,-4.6305,-4.6651,-4.6796,-4.6672,-4.7168,-4.7443,-4.7443,-4.7718,-4.7865,-4.7865,-4.8159,-4.8306,-4.8306,-4.8306,-4.8306,-4.8287,-4.8132,-4.8152,-4.8287,-4.8114,-4.8055,-4.8055,-4.823,-4.8132,-4.7877,-4.8172,-4.8306,-4.8306,-4.8306,-4.8306,-4.8306,0.0,0.0,0.0,0.0,0.0,0.0,0.0,0.0,0.0,0.0,0.0,-3.4899,-3.4899,-3.4899,-3.4899,-3.4899,-3.4947,-3.4994,-3.5018,0.0,0.0,0.0,0.0,0.0,0.0,-3.5571,-3.5594,-3.56,-3.5853,-3.6282,-3.6812,-3.7066,-3.7432,-3.7905,-3.7905,-3.7635,-3.7127,-3.6603,-3.6975,-3.7973,-3.87,-3.9884,-4.1322,0.0,0.0,0.0,0.0,0.0,0.0,0.0,0.0,0.0,0.0,0.0,0.0,0.0,0.0,0.0,0.0,0.0,0.0,0.0,0.0,0.0,0.0,0.0,0.0,0.0,0.0,0.0,0.0,0.0,0.0,0.0,0.0,0.0,0.0,0.0,-4.7094,-4.7094,-4.6629,-4.6517,-4.7057,-4.6391,-4.6134,-4.6672,-4.7186,-4.7498,-4.7498,-4.8012,-4.8306,-4.8306,-4.8306,-4.8306,-4.8306,-4.8306,-4.8306,-4.8306,-4.8306,-4.8306,-4.8306,-4.8306,-4.8306,-4.8306,-4.8306,-4.8306,-4.8306,-4.8306,-4.8297,-4.8277,-4.8281,-4.8306,-4.8306,-4.8306,-4.8306,-4.8306,0.0,0.0,0.0,0.0,0.0,0.0,0.0,0.0,0.0,0.0,-3.4899,-3.4899,-3.4899,-3.4899,-3.4899,-3.4899,-3.5018,-3.5041,-3.4923,-3.5018,0.0,0.0,0.0,0.0,-3.5492,-3.5492,-3.556,-3.5633,-3.6417,-3.6829,-3.688,-3.7601,-3.7956,-3.7973,-3.7973,-3.7973,-3.7939,-3.7973,-3.7973,-3.8007,-3.87,-3.9868,-4.117,0.0,0.0,0.0,0.0,0.0,0.0,0.0,0.0,0.0,0.0,0.0,0.0,0.0,0.0,0.0,0.0,0.0,0.0,0.0,0.0,0.0,0.0,0.0,0.0,0.0,0.0,0.0,0.0,0.0,0.0,0.0,0.0,0.0,-4.7472,-4.7284,-4.7094,-4.7094,-4.6434,-4.6287,-4.7058,-4.7131,-4.7461,-4.8251,-4.8306,-4.8306,-4.8306,-4.8306,-4.8306,-4.8306,-4.8306,-4.8306,-4.8306,-4.8306,-4.8324,-4.8343,-4.8343,-4.8361,-4.8379,-4.8379,-4.8379,-4.8379,-4.8379,-4.8379,-4.8379,-4.8379,-4.8875,-4.9555,-4.8673,-4.8361,-4.8379,-4.8379,-4.8379,-4.8379,0.0,0.0,0.0,0.0,0.0,0.0,0.0,0.0,0.0,0.0,-3.4899,-3.4899,-3.4899,-3.4899,-3.4947,-3.5058,-3.4994,-3.5018,-3.5175,0.0,0.0,0.0,0.0,0.0,-3.5571,-3.5571,-3.5864,-3.6468,-3.6694,-3.7354,-3.8396,-3.8599,-3.8971,-3.9503,-3.9503,-3.9191,-3.8717,-3.9259,-3.9174,-3.8717,-3.892,-3.9546,-4.0468,0.0,0.0,0.0,0.0,0.0,0.0,0.0,0.0,0.0,0.0,0.0,0.0,0.0,0.0,0.0,0.0,0.0,0.0,0.0,0.0,0.0,0.0,0.0,0.0,0.0,0.0,0.0,0.0,0.0,0.0,0.0,0.0,-4.6564,-4.6393,-4.68,-4.7094,-4.7094,-4.7406,-4.7737,-4.7957,-4.7957,-4.8067,-4.8288,-4.8306,-4.8306,-4.8306,-4.8306,-4.8306,-4.8306,-4.8306,-4.8306,-4.8306,-4.8306,-4.8618,-4.9243,-4.9243,-4.9554,-5.0105,-5.0105,-5.0105,-5.0105,-5.0105,-5.0105,-5.0105,-5.0105,-5.0251,-5.038,-4.9554,-4.9591,-5.0105,-5.0105,-5.0105,-5.0105,0.0,0.0,0.0,0.0,0.0,0.0,0.0,0.0,0.0,0.0,-3.4899,-3.4899,-3.4899,-3.5095,-3.5142,-3.5018,-3.5188,-3.5234,-3.5152,0.0,0.0,0.0,0.0,-3.5549,-3.56,-3.5943,-3.6332,-3.6795,-3.7422,-3.8166,-3.9005,-3.9334,-3.9706,-4.0096,-4.0096,-3.9859,-3.9503,-4.0133,-4.0146,-3.9778,-3.9976,-4.0185,-4.0436,-4.0872,-4.1518,-4.2321,-4.3464,-4.4249,-4.4892,-4.5919,0.0,0.0,0.0,0.0,0.0,0.0,0.0,0.0,0.0,0.0,0.0,0.0,0.0,0.0,0.0,0.0,0.0,0.0,0.0,0.0,0.0,0.0,0.0,0.0,-4.7379,-4.7175,-4.6929,-4.7315,-4.759,-4.759,-4.8012,-4.8306,-4.8306,-4.8306,-4.8306,-4.8306,-4.8306,-4.8306,-4.8306,-4.8306,-4.8306,-4.8306,-4.8655,-4.8838,-4.8838,-4.9187,-4.9609,-5.0086,-5.0086,-5.0343,-5.0802,-5.0802,-5.0802,-5.0802,-5.0802,-5.0802,-5.0802,-5.0802,-5.1004,-5.1224,0.0,0.0,0.0,0.0,-5.0802,-5.0802,0.0,0.0,0.0,0.0,0.0,0.0,0.0,0.0,0.0,0.0,0.0,-3.4899,-3.4899,-3.5287,-3.5385,-3.5024,-3.547,-3.556,0.0,0.0,0.0,-3.5469,-3.5549,-3.5633,-3.5695,-3.6434,-3.688,-3.7049,-3.8345,-3.9039,-3.914,-3.9791,-4.0096,-4.0096,-4.0146,-4.0171,-4.0221,-4.0683,-4.0896,-4.0919,-4.1326,-4.1253,-4.0896,-4.0896,-4.1574,-4.2625,-4.3191,-4.3843,-4.4643,-4.5926,0.0,0.0,0.0,0.0,0.0,0.0,0.0,0.0,0.0,0.0,0.0,0.0,0.0,0.0,0.0,0.0,0.0,0.0,0.0,0.0,0.0,0.0,0.0,0.0,-4.8306,-4.8306,-4.8306,-4.8306,-4.8306,-4.8306,-4.8306,-4.8306,-4.8306,-4.8306,-4.8306,-4.8306,-4.8306,-4.8343,-4.8434,0.0,0.0,0.0,0.0,-4.9739,-4.9739,-5.0435,-5.0857,-5.0949,-5.0949,-5.0986,-5.1077,-5.1077,-5.1077,-5.1077,-5.1077,-5.1077,-5.1077,-5.1077,-5.1481,-5.205,-5.1353,-5.1077,-5.1077,-5.1077,-5.1077,-5.1077,0.0,0.0,0.0,0.0,0.0,0.0,0.0,0.0,0.0,-3.4899,-3.4899,-3.4899,-3.4899,-3.4977,-3.5195,-3.5605,-3.5633,-3.5633,0.0,0.0,-3.5314,-3.5337,-3.5503,-3.5841,-3.638,-3.6681,-3.7388,-3.8565,-3.8853,-3.9292,-3.9893,-4.0028,-4.0096,-4.0138,-4.0483,-4.0659,-4.07,-4.1162,-4.1348,-4.137,-4.1459,-4.1455,-4.1348,-4.1348,-4.174,-4.2376,-4.314,-4.373,-4.4321,-4.5234,-4.5961,-4.654,-4.6685,0.0,0.0,0.0,0.0,0.0,0.0,0.0,0.0,0.0,0.0,0.0,0.0,0.0,0.0,0.0,0.0,0.0,0.0,0.0,0.0,-4.8267,-4.8306,-4.8306,-4.8306,-4.8306,-4.8306,-4.8306,-4.8306,-4.8306,-4.8306,-4.8306,-4.8306,-4.8306,-4.8306,-4.8618,-4.9317,-4.9353,-4.9646,-5.0306,-5.049,-5.0563,-5.0563,-5.0729,-5.1132,-5.1756,-5.1756,0.0,-5.2726,-5.2726,-5.2726,-5.2726,-5.2726,-5.2726,-5.2726,-5.2726,-5.2839,-5.2968,-5.2803,-5.2726,-5.2726,-5.2726,-5.2726,-5.2726,0.0,0.0,0.0,0.0,0.0,0.0,0.0,0.0,0.0,0.0,-3.4899,-3.4899,-3.4899,-3.5102,-3.5287,-3.5333,-3.5287,0.0,0.0,-3.5297,-3.5222,-3.5291,-3.5406,-3.5811,-3.6575,-3.7027,-3.7841,-3.8988,-3.9385,-3.974,-4.0096,-4.0096,-4.0221,-4.0458,-4.07,-4.0926,-4.1185,-4.1652,-4.1846,-4.1867,-4.2098,-4.22,-4.218,-4.1931,-4.2136,-4.2591,-4.3005,-4.3287,-4.3607,-4.4421,-4.4965,-4.5436,-4.625,-4.6776,-4.7192,0.0,0.0,0.0,0.0,0.0,0.0,0.0,0.0,0.0,0.0,0.0,0.0,0.0,0.0,-4.7515,0.0,0.0,-4.813,-4.8228,-4.8286,-4.8306,-4.8306,-4.8306,-4.8306,-4.8306,-4.8306,-4.8306,-4.8306,-4.8306,-4.8306,-4.8306,-4.8691,-4.9132,-4.9574,-4.9996,-5.038,-5.0784,-5.1187,-5.1389,-5.1389,-5.1811,-5.2215,-5.2601,-5.2601,-5.2821,-5.3185,-5.3185,-5.3185,-5.3185,-5.3185,-5.3185,-5.3185,-5.3185,-5.3185,-5.3185,-5.3185,-5.3185,-5.3185,-5.3185,-5.3185,-5.3185,0.0,0.0,0.0,0.0,0.0,0.0,0.0,0.0,0.0,0.0,-3.4899,-3.4899,-3.4899,-3.5241,-3.5339,0.0,0.0,0.0,0.0,-3.5135,-3.5152,-3.5245,-3.5314,-3.578,-3.6747,-3.7417,-3.8256,-3.9314,-3.9915,-4.0279,-4.036,-4.036,-4.0563,-4.0926,-4.1019,-4.1276,-4.1674,-4.2136,-4.2338,-4.2378,-4.2749,-4.2901,-4.2863,-4.2478,-4.2575,-4.2901,-4.2901,-4.2901,-4.301,-4.3643,-4.3969,-4.4331,-4.5617,-4.625,-4.6631,-4.7283,-4.7591,0.0,0.0,0.0,0.0,0.0,0.0,0.0,0.0,0.0,-4.7717,-4.7717,-4.7717,-4.7759,-4.7881,-4.7947,-4.8032,-4.8187,-4.8247,-4.8305,-4.8287,-4.8287,-4.8305,-4.8287,-4.8287,-4.8305,-4.8287,-4.8434,-4.8506,-4.8545,-4.9334,-4.9904,-5.0069,-5.0674,-5.1096,-5.1261,-5.1903,-5.2234,-5.2234,-5.2894,-5.3185,-5.3185,-5.3185,-5.3185,-5.3185,-5.3185,-5.3185,-5.3185,-5.3185,-5.3185,-5.3203,-5.3369,-5.3424,-5.3463,-5.361,-5.3683,-5.3628,-5.3314,-5.3185,-5.3185,0.0,0.0,0.0,0.0,0.0,0.0,0.0,0.0,0.0,0.0,0.0,0.0,0.0,0.0,0.0,0.0,0.0,0.0,-3.5526,-3.5258,-3.5105,-3.5128,-3.5337,-3.6078,-3.7382,-3.7711,-3.8717,-4.0426,-4.0607,-4.0926,-4.1348,-4.1348,-4.137,-4.1437,-4.1846,-4.2074,-4.2157,-4.2634,-4.2825,-4.2825,-4.2882,-4.2901,-4.2882,-4.2844,-4.2844,-4.2901,-4.2901,-4.2901,-4.29,-4.301,-4.3517,-4.4132,-4.4313,-4.5345,-4.6522,-4.6613,0.0,-4.7717,-4.7717,-4.7717,-4.7717,-4.7717,-4.7717,-4.7717,0.0,0.0,-4.7717,-4.7717,-4.778,-4.7881,-4.7899,-4.7947,-4.8032,-4.8187,-4.8207,-4.8228,-4.8287,-4.8247,-4.8228,-4.8287,-4.8247,-4.8228,-4.8287,-4.8887,-4.9345,-4.9444,-5.0196,-5.0986,-5.1683,-5.1811,-5.2197,-5.2913,-5.3023,-5.3078,-5.3078,-5.317,-5.3185,-5.3185,-5.3185,-5.3185,-5.3185,-5.3185,-5.3185,-5.3185,-5.3185,-5.3185,-5.3259,-5.3977,-5.4271,-5.4344,-5.5042,-5.5317,-5.5152,-5.3739,-5.3185,-5.3185,0.0,0.0,0.0,0.0,0.0,0.0,0.0,0.0,0.0,0.0,0.0,0.0,0.0,0.0,0.0,0.0,0.0,0.0,-3.5195,-3.531,-3.5264,-3.4994,-3.5435,-3.6015,-3.6725,-3.6944,-3.7867,-3.9542,-3.9615,-4.0134,-4.1094,-4.1094,-4.1388,-4.1909,-4.2115,-4.2358,-4.2614,-4.2825,-4.2901,-4.2901,-4.2901,-4.2901,-4.2901,-4.2901,-4.2901,-4.2901,-4.2901,-4.2901,0.0,0.0,-4.3137,-4.3462,-4.3951,-4.4548,-4.52,-4.5653,-4.6051,0.0,-4.6884,-4.7355,-4.7717,-4.7717,-4.7717,-4.7717,-4.7717,-4.7717,-4.7717,-4.7717,-4.7738,-4.778,-4.778,-4.7863,-4.7966,0.0,-4.8048,-4.8072,-4.8131,-4.8092,-4.813,-4.8228,-4.8108,-4.8269,-4.8886,-4.9232,-4.9594,-5.0012,-5.0879,-5.1525,-5.1854,-5.2394,-5.2858,-5.3185,-5.3185,-5.3185,-5.3185,-5.3185,-5.3185,-5.3185,-5.3185,-5.3185,-5.3185,-5.3185,-5.3463,-5.3904,-5.3904,-5.4161,-5.462,-5.4884,-5.5031,-5.5133,-5.529,-5.5418,-5.5412,-5.4818,-5.4601,-5.4601,0.0,0.0,0.0,0.0,0.0,0.0,0.0,0.0,0.0,0.0,0.0,0.0,0.0,0.0,0.0,0.0,0.0,0.0,0.0,-3.5407,-3.5504,-3.5316,-3.5744,-3.6173,-3.6601,-3.6605,-3.7371,-3.8982,-3.8904,-3.9593,-4.1024,-4.1046,-4.1545,-4.2398,-4.2398,-4.2577,-4.2901,-4.2901,-4.2901,-4.2901,-4.2901,-4.2901,-4.2901,-4.2901,-4.2901,-4.2901,-4.2901,-4.2901,0.0,0.0,-4.2901,-4.301,-4.3588,-4.3914,-4.4204,-4.4802,-4.5128,-4.5472,-4.6287,-4.6939,-4.7428,-4.7624,-4.7717,-4.7717,-4.7717,-4.7717,-4.7717,-4.7717,-4.7717,-4.7717,-4.7717,-4.778,-4.7861,-4.7881,-4.7945,-4.797,-4.7992,-4.7972,-4.801,-4.813,-4.8207,-4.86,-4.9528,-4.9663,-4.9971,-5.0733,-5.166,-5.22,-5.22,-5.2831,-5.3185,-5.3185,-5.3185,-5.3185,-5.3185,-5.3164,-5.3124,-5.3124,-5.3103,-5.3082,-5.31,-5.332,-5.3851,-5.4624,-5.4664,-5.5016,-5.5548,-5.5678,-5.5788,-5.5874,-5.5894,-5.5962,-5.6008,-5.6163,-5.5933,-5.553,0.0,0.0,0.0,0.0,0.0,0.0,0.0,0.0,0.0,0.0,0.0,0.0,0.0,0.0,0.0,0.0,0.0,0.0,0.0,-3.5594,-3.5837,-3.6333,-3.6374,-3.678,-3.7644,-3.7286,-3.7867,-3.9481,-3.9157,-3.9873,-4.1573,-4.1648,-4.2102,-4.2882,-4.2882,-4.2882,-4.2901,-4.2901,-4.2901,-4.2901,-4.2901,-4.2901,-4.2901,-4.2901,-4.2901,-4.2901,-4.2901,0.0,0.0,0.0,-4.2901,-4.2901,-4.2937,-4.3462,0.0,-4.4132,-4.4693,-4.5472,-4.6287,-4.6522,-4.6721,-4.7518,-4.7717,-4.7717,-4.7717,-4.7717,-4.7717,-4.7717,-4.7717,-4.7717,-4.7717,-4.7699,-4.7759,-4.7881,-4.7902,-4.7925,-4.7992,-4.7927,-4.7925,-4.801,-4.8639,-4.9377,0.0,-5.028,-5.0772,-5.1697,-5.2627,-5.3148,-5.3148,-5.3167,-5.3185,-5.3185,-5.3185,-5.3185,-5.3185,-5.3082,-5.2999,-5.2999,-5.2872,-5.2806,-5.2842,-5.3626,-5.441,-5.5181,-5.5313,-5.5377,-5.5468,-5.6255,-5.6584,-5.6658,-5.7426,-5.7648,-5.7552,-5.7671,-5.6749,-5.5418,0.0,0.0,0.0,0.0,0.0,0.0,0.0,0.0,0.0,0.0,0.0,0.0,0.0,0.0,0.0,0.0,0.0,0.0,0.0,-3.5666,-3.5972,-3.5864,-3.6516,-3.6803,-3.6717,-3.6751,-3.7262,-3.83,-3.8178,-3.8892,-4.0346,-4.0347,-4.0683,-4.1233,-4.1307,-4.1307,-4.1307,-4.1307,-4.1307,-4.1307,-4.1307,-4.1633,-4.2103,-4.2103,-4.2448,-4.2901,0.0,0.0,0.0,-4.2901,-4.2901,-4.2901,-4.2901,-4.31,-4.3299,-4.3299,-4.424,-4.5363,-4.5635,-4.6486,-4.7373,-4.7645,-4.7717,-4.7717,-4.7717,-4.7717,-4.7717,-4.7717,-4.7717,-4.7717,-4.7717,-4.7717,-4.7699,-4.7759,-4.7759,-4.778,-4.7804,-4.7783,-4.7801,-4.7925,-4.8551,0.0,0.0,0.0,0.0,-5.2265,-5.2791,-5.3039,-5.2934,-5.3039,-5.3039,-5.2934,-5.2934,-5.2934,-5.2934,-5.289,-5.2868,-5.2868,-5.3353,-5.363,-5.3756,-5.456,-5.5364,-5.6131,-5.6269,-5.6626,-5.7139,-5.7303,-5.7454,-5.7542,-5.7635,-5.7697,-5.7721,-5.7673,-5.7374,-5.6987,0.0,0.0,0.0,0.0,0.0,0.0,0.0,0.0,0.0,0.0,0.0,0.0,0.0,0.0,0.0,0.0,0.0,0.0,0.0,0.0,-3.5933,-3.582,-3.6437,-3.662,-3.6277,-3.6253,-3.6658,-3.749,-3.7352,-3.8041,-3.9484,-3.9561,-3.9893,-4.0438,-4.0474,-4.0492,-4.0492,-4.0492,-4.0492,-4.0492,-4.0492,-4.08,-4.1288,-4.1596,-4.2012,0.0,0.0,0.0,0.0,-4.2901,-4.2901,-4.2901,-4.2901,-4.2901,-4.2901,-4.2901,-4.3625,-4.4566,-4.5146,-4.6051,-4.6993,-4.7572,-4.7717,-4.7717,-4.7717,-4.7717,-4.7717,-4.7717,-4.7717,-4.7717,-4.7717,-4.7717,-4.7717,-4.7717,-4.7717,-4.7717,-4.7717,-4.7717,-4.7738,-4.7819,-4.872,-4.955,0.0,0.0,0.0,-5.2576,-5.2787,-5.2893,-5.2806,-5.2872,-5.289,-5.2806,-5.2806,-5.2806,-5.2806,-5.2761,-5.2739,-5.2739,-5.3249,-5.3881,-5.4578,-5.509,-5.5912,-5.6953,-5.7111,-5.7451,-5.7927,-5.7857,-5.7839,-5.7927,-5.7745,-5.7697,-5.7721,-5.7697,-5.7721,-5.7792,0.0,0.0,0.0,0.0,0.0,0.0,0.0,0.0,0.0,0.0,0.0,0.0,0.0,0.0,0.0,0.0,0.0,0.0,0.0,0.0,0.0,-3.6151,-3.6172,-3.6256,-3.6422,-3.5912,-3.6143,-3.7129,-3.6746,-3.7408,-3.9031,-3.921,-3.9696,-4.0383,-4.0365,-4.0383,-4.0383,-4.0383,-4.0383,-4.0383,-4.0383,-4.0401,-4.0528,-4.1288,0.0,0.0,0.0,0.0,0.0,0.0,-4.2901,-4.2901,-4.2901,-4.2901,-4.2901,-4.2901,-4.2937,-4.3299,-4.4874,-4.5327,-4.5743,-4.7319,-4.7717,-4.7717,-4.7717,-4.7717,-4.7717,-4.7717,-4.7717,-4.7717,0.0,0.0,-4.7717,-4.7717,-4.7717,-4.7717,-4.7717,-4.7717,-4.7717,0.0,0.0,0.0,0.0,0.0,0.0,-5.259,0.0,-5.2783,-5.2783,-5.2783,-5.2783,-5.2783,-5.2783,-5.2783,-5.2783,-5.2654,-5.2608,-5.259,-5.2645,-5.3549,-5.5212,-5.5249,-5.6124,-5.7625,-5.7745,-5.7815,-5.7815,-5.7815,-5.7815,-5.7815,-5.7815,-5.7721,-5.7625,-5.7745,-5.7792,-5.7792,0.0,0.0,0.0,0.0,0.0,0.0,0.0,0.0,0.0,0.0,0.0,0.0,0.0,0.0,0.0,0.0,0.0,0.0,0.0,0.0,0.0,0.0,0.0,0.0,0.0,0.0,0.0,0.0,0.0,-3.7612,-3.8062,-3.8115,-3.8276,-3.8563,-3.8633,-3.8702,-3.879,-3.879,-3.879,-3.879,0.0,-3.9152,-3.9695,0.0,0.0,0.0,0.0,0.0,0.0,0.0,0.0,0.0,-4.2901,-4.2901,-4.2901,-4.2901,-4.3317,-4.4005,-4.5037,-4.5743,-4.645,-4.7464,-4.7717,-4.7717,-4.7717,-4.7717,-4.7717,-4.7717,-4.7717,-4.7717,0.0,0.0,0.0,-4.7717,-4.7717,0.0,-4.7717,-4.7717,0.0,-4.7717,0.0,-5.0112,-5.0112,-5.1584,0.0,0.0,-5.2712,-5.2761,-5.2654,-5.2654,-5.2627,-5.2572,-5.2572,-5.2572,-5.2572,-5.2549,-5.2536,-5.2608,-5.3152,-5.4039,-5.5231,-5.5814,-5.6705,-5.7745,-5.7886,-5.795,-5.795,-5.795,-5.795,-5.795,-5.795,-5.7881,-5.7745,-5.7792,-5.7792,-5.7792,0.0,0.0,0.0,0.0,0.0,0.0,0.0,0.0,0.0,0.0,0.0,0.0,0.0,0.0,0.0,0.0,0.0,0.0,0.0,0.0,0.0,0.0,0.0,0.0,0.0,0.0,0.0,0.0,0.0,0.0,0.0,-3.7757,-3.7828,-3.7899,-3.7967,-3.8036,-3.8105,0.0,0.0,0.0,0.0,0.0,0.0,0.0,0.0,0.0,0.0,0.0,0.0,0.0,0.0,-4.2901,-4.2901,-4.2901,-4.2901,-4.2901,0.0,-4.3824,-4.4983,-4.5635,-4.625,-4.7428,-4.7717,-4.7717,-4.7717,-4.7717,-4.7717,-4.7717,-4.7717,-4.7717,-4.7717,-4.7717,-4.7717,0.0,0.0,0.0,-4.7717,-4.7717,-4.7717,0.0,-4.9112,0.0,-5.0112,-5.1556,-5.2498,0.0,-5.2595,-5.2645,-5.2559,-5.2559,-5.2531,-5.2498,-5.2498,-5.2498,-5.2498,-5.2498,-5.2531,-5.2608,-5.3375,-5.4262,-5.5231,-5.6033,-5.6906,-5.7792,-5.7881,-5.7927,-5.7927,-5.7973,-5.7707,-5.7344,-5.7757,-5.7619,-5.7227,-5.7593,-5.7721,-5.7721,0.0,0.0,0.0,0.0,0.0,0.0,0.0,0.0,0.0,0.0,0.0,0.0,0.0,0.0,0.0,0.0,0.0,0.0,0.0,0.0,0.0,0.0,0.0,0.0,0.0,0.0,0.0,0.0,0.0,0.0,0.0,0.0,0.0,0.0,0.0,0.0,0.0,0.0,0.0,0.0,0.0,0.0,0.0,0.0,0.0,0.0,0.0,0.0,0.0,0.0,-4.2901,-4.2901,-4.2901,-4.2901,-4.2901,-4.2901,-4.2901,-4.3244,-4.4856,-4.5291,-4.5689,-4.7301,-4.7717,-4.7717,-4.7717,-4.7717,-4.7717,-4.7717,0.0,-4.7717,-4.7717,-4.7717,-4.7717,-4.7717,0.0,-4.7717,-4.7717,-4.7717,-4.7717,-4.7717,-4.9112,-5.0112,-5.0112,-5.1556,-5.2498,-5.2498,-5.2498,-5.2498,-5.2498,-5.2498,-5.2498,-5.2498,-5.2498,-5.2498,-5.2498,-5.2498,-5.2562,-5.2749,-5.3458,-5.4327,-5.5372,-5.6064,-5.6901,-5.7768,-5.7768,-5.7768,-5.7768,-5.7904,-5.7394,-5.6622,-5.7337,-5.7113,-5.6452,-5.703,-5.7249,-5.7249,0.0,0.0,0.0,0.0,0.0,0.0,0.0,0.0,0.0,0.0,-3.4899,0.0,0.0,0.0,0.0,0.0,0.0,0.0,0.0,0.0,0.0,0.0,0.0,0.0,0.0,0.0,0.0,0.0,0.0,0.0,0.0,0.0,0.0,0.0,0.0,0.0,0.0,0.0,0.0,0.0,0.0,0.0,0.0,0.0,0.0,0.0,0.0,0.0,0.0,0.0,-4.2901,-4.2901,-4.2901,-4.2901,-4.2901,-4.2901,-4.2901,-4.3244,-4.4856,-4.5291,-4.5689,-4.7301,-4.7717,-4.7717,-4.7717,-4.7717,0.0,0.0,-4.7717,-4.7717,-4.7717,-4.7717,-4.7717,-4.7717,-4.7717,-4.7717,-4.7717,-4.7717,-4.7717,0.0,-4.9112,-5.0112,-5.0112,-5.1556,0.0,0.0,-5.2498,-5.2498,-5.2498,-5.2498,-5.2498,-5.2498,-5.2498,-5.2498,-5.2498,-5.2498,-5.2847,-5.3499,-5.3644,-5.4513,-5.6036,-5.6182,-5.6764,-5.7649,-5.7649,0.0,-5.7649,-5.7673,-5.7558,-5.7328,-5.6846,-5.6483,-5.6164,-5.5631,-5.5449,-5.5449,0.0,0.0,0.0,0.0,0.0,0.0,0.0,0.0,0.0,0.0,-3.4899,-3.4899,0.0,0.0,0.0,0.0,0.0,0.0,0.0,0.0,0.0,0.0,0.0,0.0,0.0,0.0,-3.5907,-3.6542,0.0,0.0,0.0,-3.7374,-3.7485,0.0,0.0,0.0,0.0,0.0,0.0,0.0,0.0,0.0,0.0,0.0,0.0,0.0,0.0,0.0,0.0,0.0,-4.2901,-4.2901,-4.2901,-4.2901,-4.2901,-4.2901,-4.2901,-4.3244,-4.4856,-4.5291,-4.5689,-4.7301,-4.7717,-4.7717,-4.7717,0.0,0.0,0.0,-4.7717,-4.7717,-4.7717,-4.7717,0.0,-4.7717,-4.7717,-4.7717,-4.7717,-4.7717,-4.7717,-4.7717,-4.9112,-5.0112,-5.0112,-5.1556,-5.2498,-5.2498,-5.2498,-5.2498,-5.2498,-5.2498,-5.2498,-5.2498,-5.2498,-5.2498,-5.2498,-5.2498,-5.2896,-5.3711,-5.4128,-5.4931,-5.6109,-5.6527,-5.7,-5.7504,-5.7504,-5.7504,-5.7504,-5.7577,-5.7273,-5.6734,-5.6406,-5.5976,-5.5474,-5.5094,-5.4943,-5.4943,0.0,0.0,0.0,0.0,0.0,0.0,0.0,-3.4899,-3.4899,-3.4899,-3.4899,-3.4899,-3.4899,-3.4899,-3.4899,0.0,0.0,0.0,0.0,0.0,0.0,0.0,0.0,0.0,0.0,0.0,0.0,-3.6062,-3.644,0.0,0.0,0.0,0.0,0.0,-3.7375,-3.7613,0.0,0.0,0.0,0.0,0.0,0.0,0.0,0.0,0.0,0.0,0.0,0.0,0.0,0.0,-4.2901,-4.2901,-4.2901,-4.2901,-4.2901,-4.2901,-4.2901,-4.3244,-4.4856,-4.5291,-4.5689,-4.7301,-4.7717,-4.7717,-4.7717,-4.7717,0.0,-4.7717,-4.7717,-4.7717,-4.7717,-4.7717,-4.7717,0.0,-4.7717,-4.7717,-4.7717,-4.7717,-4.7717,0.0,-4.9112,0.0,-5.0112,-5.1556,0.0,-5.2498,-5.2498,-5.2498,-5.2498,-5.2498,-5.2498,-5.2498,-5.2498,-5.2498,-5.2498,-5.2661,-5.3168,-5.3965,-5.4762,-5.5522,-5.6265,-5.6899,-5.7257,-5.7356,-5.7356,-5.7356,-5.7381,-5.7461,-5.7024,-5.6235,-5.6007,-5.5511,-5.487,-5.4508,-5.4399,-5.4399,0.0,0.0,0.0,0.0,0.0,0.0,0.0,-3.4899,-3.4899,-3.4899,-3.4899,-3.4899,-3.4899,-3.4899,-3.4899,0.0,0.0,0.0,0.0,0.0,0.0,0.0,0.0,0.0,0.0,0.0,0.0,-3.5661,-3.5705,0.0,0.0,0.0,0.0,0.0,0.0,-3.7318,-3.7613,0.0,0.0,0.0,0.0,0.0,0.0,0.0,0.0,0.0,0.0,0.0,0.0,0.0,0.0,-4.2901,-4.2901,-4.2901,-4.2901,-4.2901,0.0,0.0,-4.4856,-4.5291,-4.5689,-4.7301,-4.7717,-4.7717,-4.7717,0.0,-4.7717,-4.7717,-4.7717,-4.7717,-4.7717,-4.7717,-4.7717,-4.7717,0.0,-4.7717,-4.7717,-4.7717,-4.7717,-4.7717,0.0,0.0,-5.0112,-5.1556,-5.2498,-5.2498,-5.2498,-5.2498,-5.2498,-5.2498,-5.2498,-5.2498,-5.2498,-5.2498,-5.2498,-5.3222,-5.4001,-5.4798,-5.554,-5.6319,-5.708,-5.717,-5.7206,-5.7213,-5.7213,-5.7213,0.0,-5.7213,-5.7177,-5.6953,-5.5558,-5.4961,-5.4725,-5.3259,-5.2715,-5.2715,0.0,0.0,0.0,0.0,0.0,0.0,0.0,-3.4899,-3.4899,-3.4899,-3.4899,-3.4899,-3.4899,-3.5297,-3.5379,0.0,0.0,0.0,0.0,0.0,0.0,0.0,0.0,0.0,0.0,0.0,-3.4977,-3.5171,-3.5453,0.0,0.0,0.0,0.0,0.0,0.0,-3.7226,-3.7375,0.0,0.0,0.0,0.0,0.0,0.0,0.0,0.0,0.0,0.0,0.0,0.0,0.0,0.0,0.0,-4.2901,-4.2901,0.0,0.0,-4.2901,-4.3244,-4.4856,-4.5291,-4.5689,-4.7301,-4.7717,-4.7717,-4.7717,0.0,-4.7717,-4.7717,-4.7717,-4.7717,-4.7717,-4.7717,-4.7717,-4.7717,0.0,0.0,-4.7717,-4.7717,-4.7717,-4.7717,-4.8695,0.0,0.0,0.0,-5.1973,-5.2462,-5.2498,-5.2498,-5.2498,-5.2498,-5.2498,-5.2498,-5.2498,-5.2498,-5.2498,-5.2824,-5.3385,-5.4182,-5.4472,-5.5033,-5.583,-5.583,-5.583,-5.583,-5.583,-5.583,0.0,-5.583,-5.583,-5.5703,-5.4617,-5.4182,-5.4037,-5.2915,-5.2498,-5.2498,0.0,0.0,0.0,0.0,0.0,0.0,-3.4899,-3.4899,-3.4899,-3.4899,-3.4899,-3.4899,-3.4899,-3.5562,-3.5694,-3.4965,0.0,0.0,0.0,0.0,0.0,0.0,0.0,0.0,0.0,0.0,-3.4899,-3.4899,-3.5241,-3.5218,0.0,0.0,-3.6011,-3.6011,0.0,0.0,0.0,0.0,0.0,0.0,0.0,0.0,0.0,0.0,0.0,0.0,0.0,0.0,0.0,0.0,0.0,0.0,0.0,0.0,0.0,0.0,-4.3082,-4.3534,-4.4928,-4.5472,-4.5979,-4.7373,-4.7717,-4.7717,0.0,0.0,-4.7717,-4.7717,-4.7717,-4.7717,-4.7717,-4.7717,-4.7717,0.0,0.0,-4.7717,-4.7717,-4.7717,-4.7717,-4.7717,0.0,-4.9474,-5.0057,-5.1031,-5.1882,-5.2462,-5.2498,-5.2498,-5.2498,-5.2498,-5.2498,-5.2498,-5.2498,-5.2498,-5.2498,-5.2733,-5.3132,-5.3693,-5.3947,-5.4345,-5.4907,-5.4907,-5.4907,-5.4907,-5.4907,-5.4907,0.0,-5.4907,-5.4907,-5.4834,-5.4019,-5.3693,-5.3603,-5.2788,-5.2498,-5.2498,0.0,0.0,0.0,0.0,0.0,0.0,0.0,-3.4899,-3.4899,-3.4899,-3.4899,-3.4899,-3.4899,-3.5562,-3.5694,-3.4965,0.0,0.0,0.0,0.0,0.0,0.0,0.0,0.0,0.0,0.0,-3.4899,-3.4899,-3.4899,-3.4899,-3.4899,-3.5041,-3.5588,-3.6402,0.0,0.0,0.0,0.0,0.0,0.0,0.0,0.0,0.0,0.0,0.0,0.0,0.0,0.0,0.0,0.0,0.0,0.0,0.0,0.0,0.0,0.0,-4.3463,-4.4258,-4.5073,-4.5888,-4.6685,-4.7518,-4.7717,-4.7717,0.0,0.0,-4.7717,-4.7717,-4.7717,-4.7717,-4.7717,-4.7717,-4.7717,-4.7717,-4.7717,0.0,-4.7717,-4.7717,-4.7717,0.0,0.0,-5.0093,-5.0112,-5.1538,-5.248,-5.2498,-5.2498,0.0,-5.2498,-5.2498,-5.2498,-5.2498,-5.2498,-5.2498,-5.2498,-5.3295,-5.3693,-5.3711,-5.4508,-5.4907,-5.4907,-5.4907,-5.4907,-5.4907,-5.4907,-5.4907,0.0,-5.4907,-5.4907,-5.4834,-5.4019,-5.3693,-5.3603,-5.2788,-5.2498,-5.2498,0.0,0.0,0.0,0.0,0.0,0.0,0.0,-3.4899,-3.4899,-3.4899,-3.4899,-3.4899,-3.4899,-3.6009,-3.6257,-3.5015,0.0,0.0,0.0,0.0,0.0,0.0,0.0,0.0,0.0,0.0,-3.4899,-3.4899,-3.4899,-3.4899,-3.4899,-3.5041,-3.543,-3.6084,-3.6501,-3.698,0.0,0.0,0.0,0.0,0.0,0.0,0.0,0.0,0.0,0.0,0.0,0.0,0.0,0.0,0.0,0.0,0.0,0.0,0.0,0.0,0.0,0.0,-4.4928,-4.549,-4.6015,-4.7373,-4.7717,-4.7717,-4.7717,-4.7717,-4.7717,-4.7717,-4.7717,-4.7717,-4.7717,-4.7717,-4.7717,-4.7717,-4.7717,0.0,0.0,0.0,0.0,-4.7717,-4.9112,-5.0329,0.0,0.0,-5.2498,-5.2498,-5.2498,-5.2498,-5.2498,-5.2498,-5.2498,-5.2498,-5.2498,-5.2498,-5.2498,-5.2752,-5.2878,-5.2878,-5.3132,-5.3259,-5.3259,-5.3259,-5.3259,-5.3259,-5.3259,-5.3259,-5.3259,-5.3259,-5.3259,-5.3222,-5.2987,-5.2878,-5.2842,-5.2589,-5.2498,-5.2498,0.0,0.0,0.0,0.0,0.0,0.0,0.0,-3.4899,-3.4899,-3.4899,-3.4899,-3.5015,-3.528,-3.639,-3.6738,-3.581,0.0,0.0,0.0,0.0,0.0,0.0,0.0,0.0,0.0,-3.4899,-3.4899,-3.4899,-3.4899,-3.4899,-3.4899,-3.4994,-3.5333,-3.5912,-3.6236,-3.6684,0.0,0.0,0.0,0.0,0.0,0.0,-3.6512,0.0,0.0,0.0,0.0,0.0,0.0,0.0,0.0,0.0,0.0,0.0,0.0,0.0,-4.3714,-4.3483,0.0,-4.5366,-4.5893,-4.7111,-4.7407,0.0,0.0,-4.7717,-4.7717,-4.7717,-4.7717,-4.7717,-4.7717,-4.7717,-4.7717,-4.7717,-4.7717,0.0,0.0,0.0,0.0,-4.8134,0.0,0.0,0.0,-5.1737,-5.2172,-5.248,-5.2498,-5.2498,-5.2498,-5.2498,-5.2498,-5.2498,-5.2498,-5.2498,-5.2498,-5.2498,-5.2498,-5.2498,-5.2498,-5.2498,-5.2498,-5.2498,-5.2498,-5.2498,-5.2498,-5.2498,0.0,-5.2498,-5.2498,-5.2498,-5.2498,-5.2498,-5.2498,-5.2498,-5.2498,-5.2498,0.0,0.0,0.0,0.0,0.0,0.0,0.0,0.0,0.0,0.0,-3.4949,-3.5247,-3.5926,-3.6721,-3.7168,0.0,0.0,0.0,0.0,0.0,0.0,0.0,0.0,0.0,0.0,-3.4899,-3.4899,-3.4899,-3.4899,-3.4899,-3.4899,-3.4899,-3.5247,-3.5907,-3.5907,-3.6228,-3.6796,-3.6756,-3.6433,-3.5929,-3.6156,-3.6014,0.0,0.0,0.0,0.0,0.0,0.0,0.0,0.0,0.0,0.0,0.0,0.0,0.0,0.0,0.0,0.0,0.0,-4.547,-4.6216,-4.6758,-4.6931,0.0,0.0,0.0,0.0,-4.7717,-4.7657,-4.7657,-4.7678,-4.7657,-4.7657,-4.7678,-4.7717,0.0,0.0,-4.7717,0.0,0.0,-4.8891,0.0,-5.114,-5.1285,-5.1629,-5.2426,-5.2498,-5.2498,-5.2498,-5.2498,-5.2498,-5.2498,-5.2498,-5.2498,-5.2498,-5.2498,-5.2498,-5.2498,-5.2498,-5.2498,-5.2498,-5.2498,-5.2498,0.0,-5.2498,-5.2498,-5.2498,-5.2498,-5.2498,-5.2498,-5.2498,-5.2498,-5.2498,-5.2498,-5.2498,-5.2498,0.0,0.0,0.0,0.0,0.0,0.0,0.0,0.0,0.0,0.0,-3.5396,-3.581,-3.5976,-3.7168,-3.7715,0.0,0.0,0.0,0.0,0.0,0.0,0.0,0.0,0.0,0.0,-3.4899,-3.4899,-3.4899,-3.4899,-3.4899,-3.4899,-3.4899,-3.5247,-3.5907,-3.5907,-3.6228,-3.6776,-3.6412,-3.6182,-3.6032,-3.5849,-3.6067,0.0,0.0,0.0,0.0,-4.0984,-4.1919,0.0,0.0,0.0,0.0,0.0,0.0,0.0,0.0,-4.4906,-4.4898,-4.4717,0.0,-4.5965,-4.6702,-4.7214,-4.7533,0.0,0.0,0.0,0.0,0.0,0.0,0.0,0.0,-4.7214,-4.7636,0.0,-4.7717,-4.7717,-4.7717,0.0,-4.88,-4.8891,-4.9546,-5.114,-5.1285,-5.1629,-5.2426,-5.2498,-5.2498,-5.2498,-5.2498,-5.2498,-5.2498,-5.2498,-5.2498,-5.2498,-5.2498,-5.2498,-5.2498,-5.2498,-5.2498,-5.2498,-5.2498,-5.2498,-5.2498,-5.2498,-5.2498,-5.2498,-5.2498,-5.2498,-5.2498,-5.2498,-5.2498,-5.2498,-5.2498,-5.2498,-5.2498,0.0,0.0,0.0,0.0,0.0,0.0,0.0,0.0,0.0,0.0,0.0,0.0,0.0,0.0,0.0,0.0,0.0,0.0,0.0,0.0,0.0,0.0,0.0,0.0,-3.4899,-3.4899,-3.4899,-3.4899,-3.4899,-3.4899,-3.4899,-3.497,-3.5211,-3.5633,-3.5694,-3.5893,-3.6195,-3.5915,-3.5822,-3.5839,-3.6056,0.0,0.0,0.0,0.0,0.0,-4.1484,-4.2191,0.0,-4.402,-4.4615,-4.4654,0.0,0.0,0.0,0.0,-4.4998,-4.4917,-4.4682,-4.5044,-4.5668,-4.6371,-4.6753,-4.7039,0.0,0.0,0.0,0.0,0.0,0.0,0.0,0.0,0.0,0.0,-4.7717,0.0,0.0,0.0,-4.7859,-4.8294,-4.8348,-4.8858,0.0,-5.0198,-5.0687,-5.1864,-5.1937,-5.21,-5.248,-5.2498,-5.2498,-5.2498,-5.2498,-5.2498,-5.2498,-5.2498,-5.2498,-5.2498,-5.2498,-5.2498,-5.2498,-5.2498,-5.2498,-5.2498,-5.2498,-5.2498,-5.2498,-5.2498,-5.2498,-5.2498,-5.2498,-5.2498,-5.2498,-5.2498,-5.2498,-5.2498,0.0,0.0,0.0,0.0,0.0,0.0,0.0,0.0,0.0,0.0,0.0,0.0,0.0,0.0,0.0,0.0,0.0,0.0,0.0,0.0,0.0,0.0,0.0,-3.4899,-3.4899,-3.4899,-3.4899,-3.4899,-3.4899,-3.4923,-3.4923,-3.5041,-3.5175,-3.5354,-3.5446,-3.5514,-3.5514,-3.5492,-3.5582,-3.5756,-3.6495,0.0,0.0,0.0,0.0,0.0,0.0,0.0,0.0,-4.4124,-4.4615,-4.4615,-4.4615,0.0,0.0,0.0,0.0,0.0,-4.4615,-4.4944,-4.5407,-4.585,-4.6024,-4.6238,-4.6683,0.0,0.0,0.0,0.0,0.0,0.0,-4.7196,0.0,0.0,0.0,0.0,-4.7717,-4.7717,-4.7717,-4.7717,-4.7717,0.0,-4.8818,-4.8891,-4.9528,-5.0995,-5.1126,-5.1411,-5.21,-5.2118,-5.2118,-5.2118,-5.2118,-5.2118,-5.2118,-5.2371,-5.2498,-5.2498,-5.2498,-5.2426,-5.2317,-5.2317,-5.2245,-5.2118,-5.2118,0.0,-5.2136,-5.2263,-5.2317,-5.2317,-5.2444,-5.2498,-5.2498,-5.2498,-5.2498,-5.2498,0.0,0.0,0.0,0.0,0.0,0.0,0.0,0.0,0.0,0.0,0.0,0.0,0.0,0.0,0.0,0.0,0.0,0.0,0.0,0.0,0.0,0.0,-3.5562,-3.4899,-3.4899,-3.4899,-3.4899,-3.4899,-3.4899,-3.497,-3.5065,-3.5088,-3.5222,-3.5469,-3.5492,-3.552,-3.5594,-3.552,-3.5931,-3.662,-3.6761,0.0,0.0,0.0,0.0,0.0,0.0,0.0,0.0,-4.4282,-4.4615,-4.4615,-4.4615,0.0,0.0,0.0,0.0,0.0,-4.4615,-4.4944,-4.5329,-4.5407,-4.5749,-4.6123,-4.6196,0.0,0.0,0.0,0.0,0.0,0.0,-4.6613,-4.6637,0.0,0.0,-4.7717,0.0,0.0,-4.7717,-4.7717,0.0,-4.8025,-4.8818,-4.8891,-4.9293,-5.022,-5.0293,-5.0347,-5.0474,-5.0474,-5.0474,-5.0474,-5.0474,-5.0474,-5.0474,-5.181,-5.2498,-5.2498,-5.2498,-5.2136,-5.1466,-5.1466,-5.1104,-5.0474,0.0,-5.0474,-5.0506,-5.1194,-5.1466,-5.1538,-5.2226,-5.2498,-5.2498,-5.2498,-5.2498,-5.2498,0.0,0.0,0.0,0.0,0.0,0.0,0.0,0.0,0.0,0.0,0.0,0.0,0.0,0.0,0.0,0.0,0.0,0.0,0.0,0.0,0.0,0.0,-3.6671,-3.5909,-3.5495,-3.5098,-3.4899,-3.4899,-3.4899,-3.497,-3.5088,-3.5175,-3.5321,-3.5566,-3.5429,-3.5475,-3.5633,-3.5942,-3.6375,-3.688,0.0,0.0,0.0,0.0,0.0,0.0,0.0,0.0,0.0,0.0,-4.4615,-4.4615,-4.4615,0.0,0.0,0.0,0.0,0.0,-4.4615,-4.4759,-4.4917,-4.4917,-4.5311,-4.5673,-4.5673,0.0,0.0,0.0,0.0,0.0,0.0,0.0,-4.6776,-4.7575,0.0,-4.7717,-4.7717,-4.7717,-4.7717,0.0,0.0,-4.7862,-4.8224,-4.8239,-4.8605,-4.9383,-4.9456,-4.9637,-5.0093,-5.0112,-5.0112,-5.0112,-5.0112,-5.0112,-5.0112,-5.0814,-5.1194,-5.1194,-5.1194,-5.0995,-5.0655,-5.0655,-5.0456,-5.0112,0.0,-5.0112,-5.013,-5.051,-5.0655,-5.0687,-5.1049,-5.1466,-5.19,-5.2335,-5.2498,-5.2498,0.0,0.0,0.0,0.0,0.0,0.0,0.0,0.0,0.0,0.0,0.0,0.0,0.0,0.0,0.0,0.0,0.0,0.0,0.0,0.0,-3.846,-3.846,-3.7765,-3.7019,-3.6274,-3.5528,-3.5171,-3.5195,-3.503,-3.5018,-3.5152,-3.5245,-3.5406,-3.5571,-3.5383,-3.5513,-3.5904,-3.6403,-3.6882,-3.7422,0.0,0.0,0.0,0.0,0.0,0.0,0.0,0.0,0.0,0.0,0.0,0.0,0.0,0.0,0.0,-4.4615,-4.4615,-4.4615,-4.4615,-4.4615,-4.4564,-4.4378,-4.4743,-4.5152,-4.5152,0.0,0.0,0.0,0.0,0.0,0.0,-4.6637,0.0,-4.7636,-4.7717,-4.7717,-4.7717,-4.7717,-4.7717,-4.7717,-4.7717,-4.7717,-4.7717,-4.7717,-4.795,-4.8565,-4.8619,-4.8894,-4.951,-4.9528,-4.9528,-4.9528,-4.9528,-4.9528,-4.9528,-4.9528,-4.9749,-5.0112,-5.0112,-4.9981,-4.9818,-4.9818,-4.9709,-4.9528,-4.9528,-4.9528,-4.9546,-4.9727,-4.9949,-5.013,-5.0311,-5.0873,-5.1647,-5.2263,-5.2498,-5.2498,0.0,0.0,0.0,0.0,0.0,0.0,0.0,0.0,0.0,0.0,0.0,0.0,0.0,0.0,0.0,0.0,0.0,0.0,0.0,0.0,-3.9232,-3.9232,-3.851,-3.7798,-3.7052,-3.6307,-3.5975,-3.6096,-3.5438,-3.5152,-3.5291,-3.5308,-3.536,-3.5492,-3.536,-3.5839,-3.6705,-3.6622,-3.7472,-3.8836,-3.8954,0.0,0.0,0.0,0.0,0.0,0.0,0.0,0.0,0.0,0.0,0.0,0.0,0.0,-4.4615,-4.4615,-4.4615,-4.4615,-4.4615,-4.4615,-4.4429,-4.3673,-4.4073,0.0,-4.4654,-4.4626,0.0,-4.4615,0.0,0.0,0.0,-4.6954,-4.7657,-4.7678,-4.7717,-4.7717,-4.7717,0.0,-4.7717,-4.7717,-4.7717,-4.7717,-4.7717,-4.7717,-4.7735,-4.779,-4.7787,-4.7826,-4.788,-4.788,-4.788,-4.788,-4.788,-4.788,-4.788,-4.788,-4.8623,-5.0112,-5.0112,-4.9709,-4.8981,-4.8981,-4.8565,-4.788,-4.788,-4.788,-4.7935,-4.8674,-4.9438,-5.0184,-5.0927,-5.1701,-5.2426,-5.248,-5.2498,-5.2498,0.0,0.0,0.0,0.0,0.0,0.0,0.0,0.0,0.0,0.0,0.0,0.0,0.0,0.0,0.0,0.0,0.0,0.0,0.0,0.0,-3.9299,-3.9299,-3.9033,-3.8742,-3.846,-3.7386,-3.6845,-3.6895,-3.6684,-3.6623,-3.6664,-3.6664,-3.6784,-3.6989,-3.6855,-3.7047,-3.7516,-3.7908,-3.8456,-3.9073,-4.0003,-4.0544,0.0,0.0,0.0,0.0,0.0,0.0,0.0,0.0,-4.4615,-4.4615,0.0,0.0,-4.4615,0.0,-4.4615,-4.4615,-4.4615,-4.4615,-4.4429,-4.3606,-4.3995,0.0,0.0,-4.4231,-4.4615,-4.4615,-4.4748,0.0,0.0,0.0,-4.7593,-4.7258,-4.749,-4.7717,-4.7717,-4.7717,-4.7717,-4.7717,-4.7717,-4.7717,-4.7717,-4.7717,-4.7717,-4.7717,-4.7717,-4.7717,-4.7717,-4.7717,-4.7717,-4.7717,-4.7717,-4.7717,-4.7717,-4.7717,-4.8007,-4.8605,-4.8605,-4.846,-4.8149,-4.8149,-4.7986,-4.7735,-4.8221,-4.8438,-4.8514,-4.9311,-4.9818,-5.0184,-5.0977,-5.1484,-5.181,-5.2317,-5.2498,-5.2498,0.0,0.0,0.0,0.0,0.0,0.0,0.0,0.0,0.0,0.0,0.0,0.0,0.0,0.0,0.0,0.0,0.0,0.0,0.0,-3.9299,-3.9299,-3.9299,-3.9299,-3.9299,-3.9299,-3.8434,-3.7894,-3.7644,-3.7552,-3.7509,-3.7509,-3.7509,-3.7623,-3.7834,-3.7745,-3.7904,-3.8311,-3.9039,-3.9478,-3.98,-4.1052,-4.1542,0.0,0.0,0.0,0.0,0.0,0.0,0.0,0.0,0.0,0.0,0.0,0.0,0.0,0.0,-4.4615,-4.4615,-4.4615,-4.4401,-4.4079,-4.3527,0.0,0.0,-4.3538,-4.4012,-4.4615,-4.4615,-4.472,0.0,-4.5691,0.0,0.0,0.0,-4.7468,-4.7717,-4.7717,-4.7717,-4.7717,-4.7717,-4.7717,-4.7717,-4.7717,-4.7717,-4.7717,-4.7717,-4.7717,-4.7717,-4.7717,-4.7717,-4.7717,-4.7717,-4.7717,-4.7717,-4.7717,-4.7717,-4.7717,-4.7717,-4.7717,-4.7823,-4.8076,-4.8076,-4.8224,-4.8496,-4.9039,-4.9293,-4.9329,-4.9854,-5.0257,-5.0565,-5.1357,-5.1665,-5.1737,-5.2299,-5.2335,-5.2118,0.0,0.0,0.0,0.0,0.0,0.0,0.0,0.0,0.0,0.0,0.0,0.0,0.0,0.0,0.0,0.0,0.0,0.0,0.0,-3.9299,-3.9299,-3.9299,-3.9299,-3.9299,-3.9299,-3.9432,-3.9135,-3.8411,-3.782,-3.7526,-3.7526,-3.7526,-3.7575,-3.7713,-3.773,-3.8207,-3.9056,-3.9817,-4.0535,-4.1271,-4.1999,-4.2303,-4.2388,0.0,0.0,0.0,0.0,0.0,0.0,0.0,-4.4615,0.0,0.0,0.0,0.0,0.0,-4.4598,-4.4615,-4.4615,-4.4012,-4.3392,0.0,0.0,0.0,-4.3392,-4.4012,-4.4615,-4.4615,-4.4971,-4.5622,-4.6683,-4.6908,0.0,-4.7615,-4.7696,-4.7717,-4.7717,-4.7717,-4.7717,-4.7717,-4.7717,-4.7717,-4.7717,-4.7717,-4.7717,-4.7717,-4.7717,-4.7717,-4.7717,-4.7717,-4.7717,-4.7717,-4.7717,-4.7717,-4.7717,-4.7717,-4.7717,-4.7717,-4.7717,-4.8134,-4.8891,-4.8891,-4.9329,-5.0093,-5.0093,-5.0093,-5.0093,-5.0112,-5.056,-5.1357,-5.2172,-5.248,-5.248,-5.248,-5.1973,-5.1285,0.0,0.0,0.0,0.0,0.0,0.0,0.0,0.0,0.0,0.0,0.0,0.0,0.0,0.0,0.0,0.0,0.0,0.0,0.0,-3.9299,-3.9299,-3.9299,-3.9299,-3.9299,-3.9299,-3.9432,-3.9437,-3.9291,-3.9142,-3.9101,-3.9194,-3.9194,-3.9253,-3.9395,-3.9935,-4.0316,-4.0595,-4.1322,-4.1762,-4.2033,-4.2777,-4.3081,-4.3166,0.0,0.0,0.0,0.0,0.0,0.0,0.0,0.0,0.0,0.0,0.0,0.0,-4.3927,-4.4147,-4.4615,-4.4615,-4.4445,0.0,-4.3527,0.0,0.0,0.0,-4.4012,0.0,0.0,-4.5258,-4.585,-4.5792,-4.6707,0.0,-4.7173,-4.745,-4.7717,-4.7717,-4.7717,-4.7717,-4.7717,-4.7717,-4.7717,-4.7717,-4.7717,-4.7717,-4.7717,-4.7717,-4.7717,-4.7717,-4.7717,-4.7717,-4.7717,-4.7717,-4.7717,-4.7717,-4.7717,-4.7717,-4.7717,-4.7717,-4.7826,-4.8058,-4.8058,-4.8188,-4.8442,-4.9021,-4.9275,-4.9311,-4.9854,-5.0257,-5.0492,-5.0728,-5.0796,-5.0796,-5.0796,-5.0673,-5.0474,0.0,0.0,0.0,0.0,0.0,0.0,0.0,0.0,0.0,0.0,0.0,0.0,0.0,0.0,0.0,0.0,0.0,0.0,0.0,0.0,-3.9299,-3.9299,-3.9299,-3.9325,-3.9379,-3.9475,-3.959,-3.9781,-3.9781,-3.9807,-3.9901,-3.9935,-4.0163,-4.0544,-4.1001,-4.1373,-4.1694,-4.2422,-4.2743,-4.2811,-4.3572,-4.3876,-4.3927,0.0,0.0,0.0,0.0,0.0,0.0,0.0,0.0,0.0,0.0,0.0,0.0,-4.3527,-4.3961,-4.4615,-4.4615,-4.4378,0.0,-4.3927,-4.3995,-4.4079,-4.391,0.0,0.0,0.0,-4.5079,-4.5528,-4.5614,-4.6406,0.0,-4.7214,-4.749,-4.7717,-4.7717,-4.7717,-4.7717,-4.7717,-4.7717,-4.7717,-4.7717,-4.7717,-4.7717,-4.7717,-4.7717,-4.7717,-4.7717,-4.7717,-4.7717,-4.7717,-4.7717,-4.7717,-4.7717,-4.7717,-4.7717,-4.7717,-4.7717,-4.7717,-4.7717,-4.8022,-4.8351,-4.8677,-4.9166,-4.9383,-4.942,-4.989,-5.0112,-5.0112,-5.0112,-5.0112,-5.0112,-5.0112,-4.989,-4.9619,0.0,0.0,0.0,0.0,0.0,0.0,0.0,0.0,0.0,0.0,0.0,0.0,0.0,0.0,0.0,0.0,0.0,0.0,0.0,0.0,-3.9299,-3.9299,-3.9299,-3.9352,-3.9475,-3.9501,-3.9642,-3.9875,-3.9875,-3.9934,-4.0027,-4.0138,-4.0578,-4.1305,-4.1373,-4.1779,-4.2439,-4.32,-4.3521,-4.3561,-4.4327,-4.4615,-4.4615,-4.4615,0.0,0.0,0.0,0.0,0.0,0.0,0.0,0.0,0.0,0.0,-4.3392,-4.3392,-4.3961,-4.4615,-4.4615,0.0,0.0,-4.4429,-4.4045,0.0,-4.4418,-4.4615,-4.4615,-4.4615,0.0,-4.4961,-4.5918,-4.6123,-4.6501,-4.7533,-4.7717,-4.7717,-4.7717,-4.7717,-4.7717,-4.7717,-4.7717,-4.7717,-4.7717,-4.7717,-4.7717,-4.7717,-4.7717,-4.7717,-4.7717,-4.7717,-4.7717,-4.7717,-4.7717,-4.7717,-4.7717,-4.7717,-4.7717,-4.7717,-4.7717,-4.7717,-4.7735,-4.8456,-4.9202,-4.9894,-4.9894,-4.9894,-4.9894,-4.9894,-4.9894,-4.9894,-4.9894,-4.9894,-4.9894,-4.9894,-4.942,-4.8782,0.0,0.0,0.0,0.0,0.0,0.0,0.0,0.0,0.0,0.0,0.0,0.0,0.0,0.0,0.0,0.0,0.0,0.0,0.0,0.0,-3.9299,-3.9299,-3.9299,-3.9299,-3.9325,-3.9547,-3.9694,-3.9729,-3.9729,-4.0135,-4.0915,-4.0941,-4.1356,-4.2083,-4.2675,-4.3003,-4.3234,-4.3995,-4.4333,-4.435,-4.4547,-4.4615,-4.4615,-4.4615,-4.4615,0.0,0.0,0.0,0.0,0.0,0.0,0.0,-4.2726,-4.2929,-4.3392,-4.3392,-4.3961,-4.4615,-4.4615,-4.4479,0.0,0.0,-4.4479,-4.4395,-4.4564,-4.4615,-4.4615,-4.4615,-4.4906,-4.5346,-4.5975,-4.643,-4.6931,-4.7575,-4.7717,-4.7717,-4.7717,-4.7717,-4.7717,-4.7717,-4.7717,-4.7717,-4.7717,-4.7717,-4.7717,-4.7717,-4.7717,-4.7717,-4.7717,-4.7717,-4.7717,-4.7717,-4.7717,-4.7717,-4.7717,-4.7717,-4.7717,-4.7717,-4.7717,-4.7717,-4.7717,-4.788,-4.8061,-4.8224,-4.8224,-4.8224,-4.8224,-4.8224,-4.8224,-4.8224,-4.8224,-4.8224,-4.8224,-4.8224,-4.8116,-4.795,0.0,0.0,0.0,0.0,0.0,0.0,0.0,0.0,0.0,0.0,0.0,0.0,0.0,0.0,0.0,0.0,0.0,0.0,0.0,0.0,0.0,-3.9299,-3.9415,-3.9494,-3.9494,-3.9677,-3.9966,-4.0318,-4.0301,-4.0634,0.0,0.0,-4.2117,-4.2844,-4.325,-4.3595,-4.3995,-4.4429,-4.4615,-4.4615,-4.4615,-4.4378,-4.4028,-4.4028,-4.3792,-4.3515,-4.3515,0.0,0.0,0.0,0.0,0.0,0.0,0.0,-4.3392,-4.3392,-4.3961,-4.4615,-4.4615,0.0,0.0,-4.4615,0.0,-4.4615,-4.4615,-4.4615,-4.4615,-4.4615,-4.4971,-4.5459,-4.6,-4.6525,-4.7084,-4.7615,-4.7717,-4.7717,-4.7717,-4.7717,-4.7717,-4.7717,-4.7717,-4.7717,-4.7717,-4.7717,-4.7717,-4.7717,-4.7717,-4.7717,-4.7717,-4.7717,-4.7717,-4.7717,-4.7717,-4.7717,-4.7717,-4.7717,-4.7717,-4.7717,-4.7717,-4.7717,-4.7717,-4.7717,-4.7717,-4.7717,-4.7717,-4.7717,-4.7717,-4.7717,-4.7717,-4.7717,-4.7717,-4.7717,-4.7717,-4.7717,-4.7717,-4.7717,0.0,0.0,0.0,0.0,0.0,0.0,0.0,0.0,0.0,0.0,0.0,0.0,0.0,0.0,0.0,0.0,0.0,0.0,0.0,0.0,0.0,0.0,-3.9494,-3.9625,-3.9625,-3.9889,-4.0327,-4.0975,-4.1247,0.0,0.0,0.0,0.0,-4.3623,-4.3623,-4.3978,-4.4598,-4.4462,-4.4384,-4.4384,-4.4384,-4.3995,-4.3409,-4.3544,-4.3234,-4.2719,-4.2719,-4.2719,-4.276,-4.325,0.0,0.0,0.0,0.0,-4.3426,-4.3589,-4.4079,-4.4615,0.0,0.0,-4.4615,-4.4615,-4.4615,0.0,-4.4615,-4.4615,-4.4615,-4.4615,-4.4971,-4.5459,-4.6,-4.6525,-4.7084,-4.7615,-4.7717,-4.7717,-4.7717,-4.7717,-4.7717,-4.7717,-4.7717,-4.7717,-4.7717,-4.7717,-4.7717,-4.7717,-4.7717,-4.7717,-4.7717,-4.7717,-4.7717,-4.7717,-4.7717,-4.7717,-4.7717,-4.7717,-4.7717,-4.7717,-4.7717,-4.7717,-4.7717,-4.7717,-4.7717,-4.7717,-4.7717,-4.7717,-4.7717,-4.7717,-4.7717,-4.7717,-4.7717,-4.7717,-4.7717,-4.7717,-4.7717,-4.7717,0.0,0.0,0.0,0.0,0.0,0.0,0.0,0.0,0.0,0.0,0.0,0.0,0.0,0.0,0.0,0.0,0.0,0.0,-3.9299,0.0,0.0,-3.9299,-3.9325,-3.9352,-3.9352,-4.009,-4.0608,-4.0826,0.0,0.0,0.0,0.0,0.0,-4.4445,0.0,-4.4513,-4.4564,-4.3859,-4.3572,-4.3572,-4.3572,-4.3494,-4.3477,-4.4164,-4.4395,-4.4293,-4.4293,-4.4293,-4.4209,-4.3606,-4.3325,0.0,0.0,0.0,-4.3527,-4.4231,-4.453,-4.4615,0.0,0.0,-4.4615,0.0,-4.4615,-4.4615,0.0,0.0,-4.4615,0.0,-4.4971,-4.5459,-4.6,-4.6525,-4.7084,-4.7615,-4.7717,-4.7717,-4.7717,-4.7717,-4.7717,-4.7717,-4.7717,-4.7717,-4.7717,-4.7717,-4.7717,-4.7717,-4.7717,-4.7717,-4.7717,-4.7717,-4.7717,-4.7717,-4.7717,-4.7717,-4.7717,-4.7717,-4.7717,-4.7717,-4.7717,-4.7717,-4.7717,-4.7717,-4.7717,-4.7717,-4.7717,-4.7717,-4.7717,-4.7717,-4.7717,-4.7717,-4.7717,-4.7717,-4.7717,-4.7717,-4.7717,-4.7717,0.0,0.0,0.0,0.0,0.0,0.0,0.0,0.0,0.0,0.0,0.0,0.0,0.0,0.0,0.0,-3.9299,-3.9299,-3.9299,-3.9299,-3.9299,-3.9481,-3.9912,-3.9983,-4.0236,-4.0652,-4.1186,-4.163,-4.2021,0.0,0.0,0.0,-4.4035,-4.4248,0.0,0.0,0.0,0.0,-4.4028,-4.3809,-4.3426,-4.3893,-4.3809,-4.3426,-4.3792,-4.3656,-4.3328,-4.3328,-4.3328,-4.3301,-4.3386,-4.3392,-4.3477,-4.3927,0.0,0.0,0.0,-4.4615,0.0,-4.4615,-4.4615,-4.4615,0.0,-4.4615,-4.4615,-4.4615,0.0,-4.4615,-4.4615,-4.5222,-4.5825,-4.6067,-4.6776,-4.7446,-4.7657,-4.7717,-4.7717,-4.7717,-4.7717,-4.7717,-4.7717,-4.7717,-4.7717,-4.7717,-4.7717,-4.7717,-4.7717,-4.7717,-4.7717,-4.7717,-4.7717,-4.7717,-4.7717,-4.7717,-4.7717,-4.7717,-4.7717,-4.7717,-4.7717,-4.7717,-4.7717,-4.7717,-4.7717,-4.7717,-4.7717,-4.7717,-4.7717,-4.7717,-4.7717,-4.7717,-4.7717,-4.7717,-4.7717,-4.7717,-4.7717,-4.7717,-4.7717,0.0,0.0,0.0,0.0,0.0,0.0,0.0,0.0,0.0,0.0,0.0,0.0,0.0,0.0,0.0,0.0,-3.9481,-3.9663,-3.9829,-3.9818,-4.0094,-4.0613,-4.0785,-4.115,-4.1699,-4.2099,-4.2578,0.0,0.0,0.0,-4.4367,-4.4468,-4.4542,0.0,-4.4395,-4.4079,0.0,0.0,-4.3775,-4.3443,-4.4045,-4.3944,-4.3409,-4.3639,-4.3369,-4.2861,-4.2861,-4.2861,-4.2963,-4.3521,-4.3707,-4.3809,-4.4401,-4.4615,0.0,0.0,0.0,0.0,0.0,0.0,-4.4615,-4.4615,-4.4615,-4.4615,0.0,0.0,-4.4615,0.0,-4.539,-4.6098,-4.6098,-4.6994,-4.7717,-4.7717,-4.7717,-4.7717,-4.7717,-4.7717,-4.7717,-4.7717,-4.7717,-4.7717,-4.7717,-4.7717,-4.7717,-4.7717,-4.7717,-4.7717,-4.7717,-4.7717,-4.7717,-4.7717,-4.7717,-4.7717,-4.7717,-4.7717,-4.7717,-4.7717,-4.7717,-4.7717,-4.7717,-4.7717,-4.7717,-4.7717,-4.7717,-4.7717,-4.7717,-4.7717,-4.7717,-4.7717,-4.7717,-4.7717,-4.7717,-4.7717,-4.7717,-4.7717,0.0,0.0,0.0,0.0,0.0,0.0,0.0,0.0,0.0,0.0,0.0,0.0,-3.9299,-3.9299,-3.9299,-3.9299,-3.9945,-4.0597,-4.1259,-4.1309,-4.1326,-4.1359,-4.156,0.0,-4.1711,-4.2518,-4.3026,0.0,0.0,0.0,-4.457,-4.4412,-4.4412,-4.4581,-4.3809,-4.3859,-4.4445,0.0,0.0,0.0,-4.3443,-4.3426,-4.3477,-4.4231,-4.4513,-4.4479,-4.4479,-4.4479,-4.4496,-4.453,-4.4547,-4.4547,-4.4598,-4.4615,-4.4615,0.0,0.0,0.0,0.0,-4.4615,0.0,-4.4615,-4.4615,0.0,0.0,0.0,-4.4615,-4.4615,-4.539,-4.6098,-4.6098,-4.6994,-4.7717,-4.7717,-4.7717,-4.7717,-4.7717,-4.7717,-4.7717,-4.7717,-4.7717,-4.7717,-4.7717,-4.7717,-4.7717,-4.7717,-4.7717,-4.7717,-4.7717,-4.7717,-4.7717,-4.7717,-4.7717,-4.7717,-4.7717,-4.7717,-4.7717,-4.7717,-4.7717,-4.7717,-4.7717,-4.7717,-4.7717,-4.7717,-4.7717,-4.7717,-4.7717,-4.7717,-4.7717,-4.7717,-4.7717,-4.7717,-4.7717,-4.7717,-4.7717,-4.7717,0.0,0.0,0.0,0.0,0.0,0.0,0.0,0.0,0.0,0.0,0.0,0.0,0.0,-4.0011,-4.0194,-4.0613,-4.0895,-4.1143,-4.1364,-4.1409,-4.1624,-4.2075,-4.2297,-4.2644,-4.3098,-4.359,-4.3849,0.0,0.0,-4.426,-4.3842,-4.4277,-4.4271,-4.3842,-4.3934,-4.3928,-4.3826,-4.3775,0.0,0.0,0.0,-4.4164,-4.4198,-4.4496,-4.4615,-4.4615,-4.4615,-4.4615,-4.4615,-4.4615,-4.4615,-4.4615,-4.4615,-4.4615,-4.4615,-4.4615,-4.4615,0.0,0.0,0.0,0.0,-4.4615,-4.4615,-4.4615,-4.4615,-4.4615,-4.4615,-4.4615,-4.539,-4.6098,-4.6098,-4.6994,-4.7717,-4.7717,-4.7717,-4.7717,-4.7717,-4.7717,-4.7717,-4.7717,-4.7717,-4.7717,-4.7717,-4.7717,-4.7717,-4.7717,-4.7717,-4.7717,-4.7717,-4.7717,-4.7717,-4.7717,-4.7717,-4.7717,-4.7717,-4.7717,-4.7717,-4.7717,-4.7717,-4.7717,-4.7717,-4.7717,-4.7717,-4.7717,-4.7717,-4.7717,-4.7717,-4.7717,-4.7717,-4.7717,-4.7717,-4.7717,-4.7717,-4.7717,-4.7717,-4.7717,0.0,0.0,0.0,0.0,0.0,0.0,0.0,0.0,0.0,0.0,0.0,0.0,0.0,0.0,-4.1011,-4.1723,-4.1789,-4.186,-4.2109,-4.2125,-4.2357,-4.2837,-4.3119,-4.3468,-4.3969,-4.3989,-4.4142,0.0,0.0,0.0,0.0,-4.4249,-4.4215,-4.3826,-4.4091,-4.4069,0.0,0.0,0.0,-4.3859,-4.4395,-4.4615,-4.4615,-4.4615,-4.4615,-4.4615,-4.4615,-4.4615,-4.4615,-4.4615,-4.4615,-4.4615,-4.4615,-4.4615,-4.4615,-4.4615,-4.4615,0.0,-4.4615,0.0,0.0,0.0,0.0,-4.4615,-4.4615,-4.4615,-4.4654,-4.4814,-4.5503,-4.6165,-4.6334,-4.7107,-4.7717,-4.7717,-4.7717,-4.7717,-4.7717,-4.7717,-4.7717,-4.7717,-4.7717,-4.7717,-4.7717,-4.7717,-4.7717,-4.7717,-4.7717,-4.7717,-4.7717,-4.7717,-4.7717,-4.7717,-4.7717,-4.7717,-4.7717,-4.7717,-4.7717,-4.7717,-4.7717,-4.7717,-4.7717,-4.7717,-4.7717,-4.7717,-4.7717,-4.7717,-4.7717,-4.7717,-4.7717,-4.7717,-4.7717,-4.7717,-4.7717,-4.7717,-4.7717,-4.7717,0.0,0.0,0.0,0.0,0.0,0.0,0.0,0.0,0.0,-4.0376,0.0,0.0,0.0,0.0,0.0,-4.2406,-4.2456,-4.2754,-4.3482,-4.3532,-4.3532,-4.3532,-4.3856,-4.4047,-4.4064,-4.3625,-4.3764,0.0,0.0,0.0,0.0,0.0,-4.427,-4.4553,-4.4241,-4.4286,-4.4536,0.0,-4.3893,-4.4615,-4.4598,-4.4598,-4.4615,-4.4598,-4.4598,-4.4615,-4.4615,-4.4615,-4.4615,-4.4615,-4.4615,-4.4615,-4.4615,-4.4615,-4.4615,-4.4615,-4.4615,0.0,0.0,0.0,0.0,0.0,0.0,0.0,-4.4615,0.0,-4.4748,-4.5188,-4.5699,-4.6238,-4.6776,-4.7302,-4.7678,-4.7696,-4.7717,-4.7717,-4.7717,-4.7717,-4.7717,-4.7717,-4.7717,-4.7717,-4.7717,-4.7717,-4.7717,-4.7717,-4.7717,-4.7717,-4.7717,-4.7717,-4.7717,-4.7717,-4.7717,-4.7717,-4.7717,-4.7717,-4.7717,-4.7717,-4.7717,-4.7717,-4.7717,-4.7717,-4.7717,-4.7717,-4.7717,-4.7717,-4.7717,-4.7717,-4.7717,-4.7717,-4.7717,-4.7717,-4.7717,-4.7717,-4.7717,-4.7717,0.0,0.0,0.0,0.0,0.0,0.0,0.0,0.0,0.0,0.0,0.0,0.0,-4.0613,-4.111,-4.1491,-4.1707,-4.1678,-4.1778,-4.1993,-4.1993,-4.1993,-4.1993,-4.2237,-4.2617,-4.3168,-4.3121,-4.3541,0.0,0.0,0.0,0.0,0.0,0.0,0.0,-4.3949,-4.4212,-4.4367,-4.4148,0.0,-4.4587,-4.444,-4.4468,-4.457,-4.444,-4.4468,-4.4615,-4.4615,-4.4615,-4.4615,-4.4615,-4.4615,-4.4615,-4.4615,-4.4615,-4.4615,-4.4615,-4.4615,-4.4615,-4.4615,0.0,0.0,0.0,0.0,0.0,-4.4615,0.0,-4.4626,-4.4759,-4.5178,-4.5691,-4.6238,-4.6753,-4.7258,-4.7636,-4.7717,-4.7717,-4.7717,-4.7717,-4.7717,-4.7717,-4.7717,-4.7717,-4.7717,-4.7717,-4.7717,0.0,-4.7717,-4.7717,-4.7717,-4.7717,-4.7717,-4.7717,-4.7717,-4.7717,-4.7717,-4.7717,-4.7717,-4.7717,-4.7717,-4.7717,-4.7717,-4.7717,-4.7717,-4.7717,-4.7717,-4.7717,-4.7717,-4.7717,-4.7717,-4.7717,-4.7717,-4.7717,-4.7717,-4.7717,-4.7717,-4.7636,0.0,0.0,0.0,0.0,0.0,0.0,-4.0011,-4.021,-4.026,0.0,0.0,0.0,-4.0763,-4.1442,-4.1844,-4.1844,-4.2125,-4.2307,-4.2307,-4.2307,-4.2307,-4.2307,-4.2496,-4.2798,-4.3248,-4.3103,-4.34,0.0,0.0,0.0,0.0,0.0,0.0,0.0,0.0,0.0,0.0,0.0,0.0,-4.4468,-4.4338,-4.4367,-4.4468,-4.444,-4.4514,-4.4615,-4.4615,-4.4615,-4.4615,-4.4615,-4.4615,-4.4615,-4.4615,-4.4615,-4.4615,-4.4615,-4.4615,-4.4615,-4.4615,-4.4615,0.0,-4.4615,0.0,0.0,-4.4615,-4.4615,-4.4654,0.0,-4.5098,-4.5459,-4.6,-4.6525,-4.6999,-4.732,-4.7554,-4.7717,-4.7717,-4.7717,-4.7717,-4.7717,-4.7717,-4.7717,-4.7717,-4.7717,-4.7717,-4.7717,-4.7717,-4.7717,-4.7717,-4.7717,-4.7554,-4.721,-4.721,-4.7047,-4.6703,-4.6703,-4.6703,-4.6703,-4.6703,-4.6884,-4.721,-4.721,-4.7391,-4.7717,-4.7717,-4.7717,-4.7717,-4.7717,-4.7554,-4.7385,-4.7615,-4.7554,-4.7385,-4.7615,-4.7717,-4.7636,0.0,0.0,0.0,-3.9431,-3.9481,-3.9514,-3.9431,-3.9978,-4.0409,0.0,-4.0978,-4.1409,-4.1409,-4.2005,-4.2373,-4.2373,-4.2969,-4.335,-4.335,-4.335,-4.335,-4.335,-4.3514,-4.3652,-4.3735,-4.3213,-4.3315,0.0,0.0,0.0,0.0,0.0,0.0,0.0,0.0,0.0,0.0,0.0,0.0,-4.4281,-4.4281,-4.4281,-4.4338,-4.4514,-4.457,-4.4615,-4.4615,-4.4615,-4.4615,-4.4615,-4.4615,-4.4615,-4.4615,-4.4615,-4.4615,-4.4615,-4.4615,-4.4615,-4.4615,-4.4615,0.0,-4.4615,-4.4615,0.0,-4.4615,-4.4615,-4.472,0.0,-4.5214,-4.5381,-4.59,-4.6406,-4.6753,-4.6886,-4.7302,-4.7636,-4.7678,-4.7717,-4.7717,-4.7717,-4.7717,-4.7717,-4.7717,-4.7717,-4.7717,-4.7717,-4.7717,-4.7717,-4.7717,-4.7627,-4.7246,-4.6522,-4.6413,-4.6015,-4.5309,-4.5291,-4.5271,-4.5231,-4.5231,-4.557,-4.6215,-4.6305,-4.672,-4.7406,-4.7496,-4.7511,-4.7511,-4.7511,-4.728,-4.6954,-4.7428,-4.728,-4.6863,-4.7341,-4.7511,-4.7446,0.0,0.0,0.0,-4.0194,-4.063,-4.0812,-4.0276,-4.031,-4.0409,-4.0409,-4.0978,-4.1409,-4.1409,-4.1541,-4.1595,-4.1595,-4.1728,-4.1839,-4.1839,-4.1839,-4.1839,-4.1839,-4.1884,-4.2166,-4.2763,-4.2659,-4.3045,0.0,0.0,0.0,0.0,0.0,0.0,0.0,0.0,0.0,0.0,0.0,0.0,-4.4155,-4.4155,-4.4196,-4.4293,-4.4338,-4.4468,-4.4615,-4.4615,-4.4615,-4.4615,-4.4615,-4.4615,-4.4615,-4.4615,-4.4615,-4.4615,-4.4615,-4.4615,-4.4615,-4.4615,-4.4615,-4.4615,-4.4615,-4.4615,0.0,-4.4615,-4.4615,-4.4626,0.0,-4.4748,-4.4879,-4.5372,-4.5537,-4.59,-4.6753,-4.6976,-4.7214,-4.7636,-4.7717,-4.7717,-4.7717,-4.7717,-4.7717,-4.7717,-4.7717,-4.7717,-4.7717,-4.7717,-4.7717,-4.7717,-4.7102,-4.6667,-4.6504,-4.587,-4.5454,-4.5291,-4.5291,-4.5111,-4.4739,-4.4739,-4.4621,-4.443,-4.5022,-4.537,-4.5546,-4.6141,-4.6406,-4.6406,-4.6406,-4.6595,-4.6908,-4.7017,-4.673,-4.6286,-4.6382,-4.6406,-4.6334,0.0,0.0,0.0,0.0,-4.0415,-4.0779,-4.0459,-4.0663,-4.0895,-4.0895,-4.1193,-4.1409,-4.1409,-4.1711,-4.1943,-4.1943,-4.2274,-4.2489,-4.2489,-4.2489,-4.2489,-4.2489,-4.2489,-4.2655,-4.3035,-4.3035,-4.3293,-4.3763,0.0,0.0,0.0,0.0,0.0,0.0,0.0,0.0,0.0,0.0,-4.3793,-4.3864,-4.4039,-4.4184,-4.431,-4.4412,-4.4514,-4.4615,-4.4615,-4.4615,-4.4615,-4.4615,-4.4615,-4.4615,-4.4615,-4.4615,-4.4615,-4.4615,-4.4615,-4.4615,-4.4615,-4.4615,-4.4615,-4.4615,-4.4615,0.0,0.0,-4.4615,-4.4615,-4.4615,-4.4615,-4.4682,-4.4906,-4.5152,-4.5485,-4.6,-4.6548,-4.6976,-4.7258,-4.7533,-4.7717,-4.7717,-4.7717,-4.7717,-4.7717,-4.7717,-4.7717,-4.7717,-4.7717,-4.7515,-4.712,-4.6721,-4.6142,-4.5327,-4.491,-4.4512,-4.4095,-4.388,-4.364,-4.3393,-4.3162,-4.3138,-4.3323,-4.3687,-4.4261,-4.5034,-4.5378,-4.5765,-4.6098,-4.6098,-4.6098,-4.6123,-4.6406,-4.6172,-4.5724,-4.6,-4.6098,-4.6024,-3.9713,0.0,0.0,0.0,-4.021,-4.0608,-4.0608,-4.1061,-4.1458,-4.1579,-4.1756,-4.1811,-4.1811,-4.2357,-4.2704,-4.2704,-4.3251,-4.3598,-4.3598,-4.3598,-4.3598,-4.3598,-4.3598,-4.3598,-4.3598,-4.3598,-4.3598,-4.3598,0.0,0.0,0.0,0.0,0.0,0.0,0.0,0.0,0.0,0.0,0.0,-4.3687,-4.3952,-4.4155,-4.4281,-4.4468,-4.457,-4.4615,-4.4615,-4.4615,-4.4615,-4.4615,-4.4615,-4.4615,-4.4615,-4.4615,-4.4615,-4.4615,-4.4615,-4.4615,-4.4615,-4.4615,-4.4615,-4.4615,-4.4615,-4.4615,0.0,0.0,0.0,-4.4615,-4.4615,-4.4615,-4.4615,-4.4917,-4.5188,-4.5276,0.0,0.0,0.0,-4.7107,0.0,-4.7696,-4.7717,-4.7717,-4.7717,-4.7717,-4.7717,-4.7717,-4.7572,-4.7192,-4.654,-4.6214,-4.5436,-4.4132,-4.3951,-4.3496,-4.2768,-4.2398,-4.2115,-4.1927,-4.1543,-4.1658,-4.2201,-4.2335,-4.3085,-4.4289,-4.4562,-4.5033,-4.5608,-4.5765,-4.5554,-4.5214,-4.5742,-4.564,-4.5214,-4.564,-4.5817,-4.5742,-4.1177,-4.1177,0.0,0.0,0.0,0.0,0.0,-4.1331,-4.1612,-4.2274,-4.2936,-4.335,-4.335,-4.3416,-4.3466,-4.3466,-4.3549,-4.3598,-4.3598,-4.3598,-4.3598,-4.3598,-4.3598,-4.3598,-4.3598,-4.3598,-4.3598,-4.3598,0.0,0.0,0.0,0.0,0.0,0.0,-4.3628,0.0,0.0,0.0,-4.3717,-4.3868,-4.3898,-4.3998,-4.4126,-4.4281,-4.444,-4.4615,-4.4615,-4.4615,-4.4615,-4.4615,-4.4615,-4.4615,-4.4615,-4.4615,-4.4615,-4.4615,-4.4615,-4.4615,-4.4615,-4.4615,-4.4615,-4.4615,-4.4615,-4.4615,-4.4615,0.0,-4.4615,-4.4615,0.0,-4.4615,-4.4615,0.0,0.0,-4.5241,-4.5407,-4.5648,-4.6123,-4.6244,-4.6637,-4.7593,-4.7717,-4.7717,-4.7717,-4.7717,-4.7717,-4.7717,-4.7047,-4.6613,-4.6504,-4.5146,-4.4277,-4.4095,-4.3426,-4.2782,-4.2279,-4.2236,-4.1782,-4.0949,-4.0902,-4.071,-4.0407,-4.1087,-4.1452,-4.169,-4.3015,-4.3644,-4.3763,-4.4487,-4.472,-4.472,-4.5188,-4.5115,-4.4692,-4.4748,-4.4776,-4.4776,-4.1562,-4.1409,0.0,0.0,0.0,0.0,0.0,-4.239,-4.2787,-4.3085,-4.34,-4.3598,-4.3598,-4.3598,-4.3598,-4.3598,-4.3598,-4.3598,-4.3598,-4.3598,-4.3598,-4.3598,-4.3598,-4.3598,-4.3598,-4.3598,-4.3598,-4.3598,-4.3598,0.0,0.0,0.0,0.0,0.0,-4.3598,0.0,-4.3598,0.0,-4.3658,-4.3734,-4.3734,-4.3822,-4.3998,-4.4126,-4.4281,-4.444,-4.4542,-4.4615,-4.4615,-4.4615,-4.4615,-4.4615,-4.4615,-4.4615,-4.4615,-4.4615,-4.4615,-4.4615,-4.4615,-4.4615,-4.4615,-4.4615,-4.4615,-4.4615,-4.4615,-4.4615,-4.4615,-4.4615,0.0,0.0,0.0,0.0,0.0,0.0,-4.5125,-4.5381,-4.5597,0.0,-4.673,-4.7191,-4.7236,0.0,-4.7657,-4.7717,-4.7518,-4.7047,-4.6703,-4.5967,-4.4782,-4.406,-4.3345,-4.2596,-4.2276,-4.1994,-4.1803,-4.1521,-4.1202,-4.0802,-4.0531,-4.0279,-4.0113,-4.0434,-4.0798,-4.1271,-4.2303,-4.3014,-4.3443,-4.4265,-4.4615,-4.4626,-4.4814,-4.4759,-4.4615,-4.4615,-4.4615,-4.4615,-4.2208,0.0,0.0,0.0,-4.244,0.0,-4.2787,-4.3251,-4.3598,-4.3598,-4.3598,-4.3598,-4.3598,-4.3598,-4.3598,-4.3598,-4.3598,-4.3598,-4.3598,-4.3598,-4.3598,-4.3598,-4.3598,-4.3598,-4.3598,-4.3598,-4.3598,-4.3598,-4.3598,0.0,0.0,0.0,0.0,0.0,0.0,-4.3598,-4.3598,0.0,-4.3598,-4.3598,-4.3598,-4.3734,-4.3927,-4.4097,-4.4253,-4.4395,-4.4542,-4.4615,-4.4615,-4.4615,-4.4615,0.0,-4.4615,-4.4615,-4.4615,-4.4615,-4.4615,-4.4615,-4.4615,-4.4615,-4.4615,-4.4615,-4.4615,-4.4615,-4.4615,-4.4615,-4.4615,-4.4615,-4.4615,0.0,0.0,0.0,0.0,0.0,0.0,-4.5098,-4.5098,-4.5784,-4.6376,-4.666,-4.6799,0.0,0.0,-4.7334,-4.7057,-4.6335,-4.5884,-4.4985,-4.3468,-4.3074,-4.2469,-4.1521,-4.1503,-4.1437,-4.1321,-4.0972,-4.0731,-4.0587,-4.0254,-4.0096,-4.0096,-4.0096,-4.0375,-4.095,-4.188,-4.2591,-4.3183,-4.4164,-4.4615,-4.4615,-4.4615,-4.4615,-4.4615,-4.4615,-4.4615,-4.4615,-4.3532,-4.3532,0.0,-4.3532,-4.3549,-4.3565,-4.3565,-4.3582,-4.3598,-4.3598,-4.3598,-4.3598,-4.3598,-4.3598,-4.3598,-4.3598,-4.3598,-4.3598,-4.3598,-4.3598,-4.3598,-4.3598,-4.3598,-4.3598,-4.3598,-4.3598,-4.3598,-4.3598,-4.3598,0.0,0.0,0.0,0.0,0.0,-4.3598,-4.3598,-4.3598,-4.3598,-4.3598,-4.3598,-4.3598,-4.3734,-4.3927,-4.4196,-4.4412,-4.4598,-4.4615,0.0,0.0,-4.4615,-4.4615,0.0,0.0,0.0,-4.4615,-4.4615,-4.4615,-4.4615,-4.4615,-4.4615,-4.4615,-4.4615,-4.4615,-4.4615,-4.4615,-4.4615,-4.4615,-4.4615,-4.4615,-4.4615,-4.4615,0.0,0.0,0.0,0.0,0.0,0.0,-4.4654,-4.5042,-4.6017,-4.6572,-4.6707,0.0,-4.6386,-4.6317,-4.5775,-4.4343,-4.3468,-4.3393,-4.2224,-4.1539,-4.1503,-4.1503,-4.1276,-4.0825,-4.0802,-4.058,-4.0121,-4.0113,-4.0096,-4.0096,-4.0096,-4.0113,-4.0231,-4.166,-4.2303,-4.2439,-4.3988,-4.4615,-4.4615,-4.4615,-4.4615,-4.4615,-4.4615,-4.4615,-4.4615,-4.3598,0.0,0.0,-4.3598,-4.3598,-4.3598,-4.3598,-4.3598,-4.3598,-4.3598,-4.3598,-4.3598,-4.3598,-4.3598,-4.3598,-4.3598,-4.3598,-4.3598,-4.3598,-4.3598,-4.3598,-4.3598,-4.3598,-4.3598,-4.3598,-4.3598,-4.3598,-4.3598,-4.3598,0.0,0.0,0.0,0.0,0.0,0.0,-4.3598,0.0,0.0,0.0,0.0,0.0,-4.3734,-4.3898,0.0,-4.4126,-4.4286,-4.4384,-4.4395,0.0,-4.4542,-4.4615,-4.4615,-4.4615,-4.4615,-4.4615,-4.4615,-4.4615,-4.4615,0.0,0.0,-4.4615,-4.4615,0.0,0.0,-4.4615,-4.4615,-4.4615,-4.4615,-4.4615,-4.4615,-4.4615,0.0,0.0,0.0,0.0,0.0,0.0,-4.4615,-4.4841,-4.5485,-4.6049,-4.6116,-4.5438,-4.5464,-4.4994,-4.3814,-4.3226,-4.2564,-4.1717,-4.1273,-4.0902,-4.0587,-4.0563,-4.0507,-4.0353,-4.0328,-4.0271,-4.0096,-4.0096,-4.0096,-4.0096,-4.0096,-4.0096,-4.018,-4.167,-4.2286,-4.2405,-4.3972,-4.4615,-4.4615,-4.4615,-4.4615,-4.4615,-4.4615,-4.4615,-4.4615,-4.439,-4.439,-4.4241,-4.3681,-4.3813,-4.3992,-4.3992,-4.4194,-4.439,-4.439,-4.439,-4.439,-4.439,-4.439,-4.439,-4.439,-4.439,-4.439,-4.439,-4.439,-4.4274,-4.4009,-4.3992,-4.3863,-4.3598,-4.3598,-4.3598,-4.3598,0.0,-4.3598,0.0,0.0,0.0,0.0,0.0,-4.3598,-4.3598,-4.3598,-4.3598,0.0,0.0,-4.3747,0.0,0.0,-4.4027,-4.4196,0.0,-4.4412,-4.444,-4.4542,-4.4615,-4.4615,-4.4615,-4.4615,-4.4615,-4.4615,-4.4615,-4.4615,-4.4615,-4.4615,0.0,-4.4615,-4.4615,0.0,-4.4615,0.0,-4.4615,-4.4615,-4.4615,-4.4615,-4.4615,0.0,0.0,0.0,0.0,0.0,0.0,-4.4615,-4.472,-4.5008,-4.526,-4.5157,-4.4487,-4.4292,-4.3682,-4.2498,-4.2166,-4.1679,-4.0843,-4.0652,-4.0427,-4.0096,-4.0096,-4.0096,-4.0096,-4.0096,-4.0096,-4.0096,-4.0096,-4.0096,-4.0096,-4.0096,-4.0096,-4.018,-4.167,-4.2286,-4.2405,-4.3972,-4.4615,-4.4615,-4.4615,-4.4615,-4.4615,-4.4615,-4.4615,-4.4615,-4.5798,-4.5798,-4.5351,-4.3946,-4.4291,-4.4738,-4.4738,-4.5334,-4.5798,-4.5798,-4.5798,-4.5798,-4.5798,-4.5798,-4.5798,-4.5798,-4.5798,-4.5798,-4.5798,-4.5798,-4.5467,-4.4721,-4.4688,-4.4357,-4.3615,-4.3598,-4.3598,-4.3598,0.0,0.0,0.0,0.0,0.0,0.0,-4.3598,0.0,-4.3598,-4.3598,-4.3598,-4.3598,-4.3598,-4.3805,-4.4068,-4.3939,-4.4068,-4.431,-4.4514,-4.4587,-4.4587,-4.4615,-4.4615,-4.4615,-4.4615,-4.4615,-4.4615,-4.4615,-4.4615,-4.4615,-4.4615,-4.4615,-4.4615,-4.4615,-4.4615,0.0,0.0,0.0,-4.4615,0.0,0.0,-4.4615,-4.4615,0.0,0.0,0.0,0.0,0.0,0.0,-4.4615,-4.4615,-4.4615,-4.4331,-4.394,-4.3396,-4.2908,-4.2411,-4.1854,-4.115,-4.0754,0.0,-4.0353,-4.0096,-4.0096,-4.0096,-4.0096,-4.0096,-4.0096,-4.0096,-4.0096,-4.0096,-4.0096,-4.0096,-4.0096,-4.0096,-4.018,-4.167,-4.2286,-4.2405,-4.3972,-4.4615,-4.4615,-4.4615,-4.4615,-4.4615,-4.4615,-4.4615,-4.4615,-4.5798,-4.5798,-4.5682,-4.5301,-4.5384,-4.5516,-4.5516,-4.5665,-4.5798,-4.5798,-4.5798,-4.5798,-4.5798,-4.5798,-4.5798,-4.5798,-4.5798,-4.5798,-4.5798,-4.5798,-4.5467,-4.4721,-4.4688,-4.4357,-4.3615,-4.3598,-4.3598,-4.3598,0.0,0.0,-4.3598,0.0,0.0,0.0,0.0,-4.3598,-4.3598,-4.3598,-4.3598,-4.3598,-4.3598,-4.3658,-4.3747,0.0,-4.4097,-4.4184,-4.431,-4.4367,-4.4412,-4.4542,-4.4615,-4.4615,-4.4615,-4.4615,-4.4615,-4.4615,-4.4615,-4.4615,-4.4615,-4.4615,-4.4615,-4.4615,-4.4615,-4.4615,0.0,0.0,0.0,0.0,0.0,0.0,0.0,0.0,0.0,0.0,0.0,0.0,0.0,-4.4615,-4.4615,-4.4615,-4.4014,-4.3345,-4.2668,-4.1971,-4.1314,-4.0602,-4.0398,-4.0279,-4.0279,-4.0171,-4.0096,-4.0096,-4.0096,-4.0096,-4.0096,-4.0096,-4.0096,-4.0096,-4.0096,-4.0096,-4.0096,-4.0096,-4.0096,-4.018,-4.167,-4.2286,-4.2405,-4.3972,-4.4615,-4.4615,-4.4615,-4.4615,-4.4615,-4.4615,-4.4615,-4.4615,-4.6758,-4.6758,-4.6758,-4.6758,-4.6758,-4.6643,-4.6328,-4.6543,-4.6758,-4.6758,-4.6758,-4.6758,-4.6758,-4.6758,-4.6758,-4.6758,-4.6758,-4.6758,-4.6758,-4.6758,-4.6427,-4.5682,-4.5334,-4.4837,-4.4108,-4.3747,-4.3598,-4.3598,-4.3598,0.0,-4.3598,0.0,0.0,0.0,0.0,-4.3598,-4.3598,-4.3598,-4.3598,-4.3598,-4.3598,-4.3658,0.0,-4.3939,-4.4056,-4.4126,-4.4253,-4.4367,-4.444,-4.457,-4.4615,-4.4615,-4.4615,-4.4615,-4.4615,-4.4615,-4.4615,-4.4615,-4.4615,-4.4615,-4.4615,-4.4615,-4.4615,-4.4615,-4.4615,-4.4615,-4.4615,0.0,-4.4615,-4.4615,0.0,0.0,0.0,0.0,0.0,0.0,-4.4615,-4.4615,-4.4615,-4.4615,-4.3606,-4.276,-4.2337,-4.1627,-4.0882,-4.0163,-4.0096,-4.0096,0.0,-4.0096,-4.0096,-4.0096,-4.0096,-4.0096,-4.0096,-4.0096,-4.0096,-4.0096,-4.0096,-4.0096,-4.0096,-4.0096,-4.0096,-4.018,-4.167,-4.2286,-4.2405,-4.3972,-4.4615,-4.4615,-4.4615,-4.4615,-4.4615,-4.4615,-4.4615,-4.4615,-4.8001,-4.8001,-4.8001,-4.8001,-4.8001,-4.7785,-4.7139,-4.7587,-4.8001,-4.8001,-4.8001,-4.8001,-4.8001,-4.8001,-4.8001,-4.8001,-4.8001,-4.8001,-4.8001,-4.8001,-4.7669,-4.6924,-4.6278,-4.5533,-4.4735,-4.4075,-4.3698,-4.3598,-4.3598,-4.3598,0.0,0.0,0.0,0.0,0.0,0.0,0.0,-4.3598,-4.3598,-4.3598,-4.3598,-4.3687,-4.3868,-4.3898,-4.3969,-4.4097,-4.4253,-4.4412,-4.457,-4.4598,-4.4615,-4.4615,-4.4615,-4.4615,-4.4615,-4.4615,-4.4615,-4.4615,-4.4615,-4.4615,-4.4615,-4.4615,-4.4615,-4.4615,-4.4615,-4.4615,-4.4615,-4.4615,-4.4615,-4.4615,-4.4615,0.0,0.0,0.0,0.0,-4.4615,-4.4615,-4.4615,-4.4615,-4.4615,-4.343,0.0,-4.2303,-4.1542,-4.0781,-4.0146,-4.0096,-4.0096,0.0,0.0,-4.0096,-4.0096,-4.0096,-4.0096,-4.0096,-4.0096,-4.0096,-4.0096,-4.0096,-4.0096,-4.0096,-4.0096,-4.0146,-4.0333,-4.1694,-4.2337,-4.2557,-4.4005,-4.4615,-4.4615,-4.4615,-4.4615,-4.4615,-4.4615,-4.4615,-4.4615,-4.8001,-4.8001,-4.8001,-4.8001,-4.8001,-4.7968,-4.7835,-4.7918,-4.8001,-4.8001,-4.8001,-4.8001,-4.8001,-4.8001,-4.8001,-4.8001,-4.8001,-4.8001,-4.8001,-4.8001,-4.7669,-4.6924,-4.6775,-4.6079,-4.4721,-4.4556,-4.4208,-4.3598,-4.3598,-4.3598,-4.3598,0.0,0.0,0.0,0.0,0.0,-4.3598,-4.3598,0.0,-4.3598,-4.3598,-4.3628,-4.3658,-4.3839,-4.3927,-4.3985,-4.4196,-4.4338,-4.4367,-4.4542,-4.4615,-4.4615,-4.4615,-4.4615,-4.4615,-4.4615,-4.4615,-4.4615,-4.4615,-4.4615,-4.4615,-4.4615,-4.4615,-4.4615,-4.4615,-4.4615,-4.4615,-4.4615,-4.4615,-4.4615,-4.4615,0.0,0.0,0.0,0.0,-4.4615,-4.4615,-4.4615,-4.4615,-4.4615,-4.4378,-4.3718,-4.2405,-4.1068,-4.0248,-4.0113,-4.0096,-4.0096,0.0,0.0,-4.0096,0.0,-4.0096,-4.0096,0.0,0.0,-4.0096,-4.0096,-4.0096,-4.0096,-4.0096,-4.0096,-4.0434,-4.1052,-4.1914,-4.2642,-4.3284,-4.4198,-4.4615,-4.4615,-4.4615,-4.4615,-4.4615,-4.4615,-4.4615,-4.4615,-4.8001,-4.8001,-4.8001,-4.8001,-4.8001,-4.8001,-4.8001,-4.8001,-4.8001,-4.8001,-4.8001,-4.8001,-4.8001,-4.8001,-4.8001,-4.8001,-4.8001,-4.8001,-4.8001,-4.8001,-4.7835,-4.7487,-4.7106,-4.656,-4.5847,-4.5086,-4.4522,-4.4175,-4.378,-4.3598,-4.3598,0.0,0.0,0.0,0.0,-4.3598,0.0,0.0,-4.3598,-4.3598,-4.3598,-4.3598,-4.3598,-4.3704,-4.3734,-4.3763,-4.4027,-4.4097,-4.4126,-4.4485,-4.4542,-4.4468,-4.457,-4.4615,-4.4615,-4.4615,-4.4615,-4.4615,-4.4615,-4.4615,-4.4615,-4.4615,-4.4615,-4.4615,-4.4615,-4.4615,-4.4615,-4.4615,-4.4615,-4.4615,-4.4615,-4.4615,0.0,0.0,-4.4615,-4.4615,-4.4615,-4.4615,-4.4615,-4.4615,-4.4215,-4.369,-4.2946,-4.1542,-4.0493,-4.013,-4.0096,-4.0096,0.0,0.0,-4.0096,0.0,0.0,0.0,-4.0096,0.0,-4.0096,-4.0096,-4.0096,-4.0096,-4.0096,-4.0096,-4.0493,-4.1238,-4.1982,-4.2726,-4.3443,-4.4265,-4.4615,-4.4615,-4.4615,-4.4615,-4.4615,-4.4615,-4.4615,-4.4615,-4.8266,-4.8233,-4.8183,-4.8034,-4.8001,-4.8001,-4.8001,-4.8001,-4.8001,-4.8001,-4.8001,-4.8001,-4.8001,-4.8001,-4.8001,-4.8001,-4.8001,-4.8001,-4.8001,-4.8001,-4.8001,-4.8001,-4.7438,-4.7057,-4.6891,-4.5748,-4.5003,-4.4688,-4.4125,-4.3731,-4.3598,-4.3598,0.0,0.0,0.0,0.0,0.0,0.0,-4.3598,-4.3598,-4.3598,-4.3598,-4.3598,-4.3598,-4.3598,-4.3628,-4.3839,-4.3868,-4.391,-4.4372,-4.444,-4.4338,-4.4542,-4.4615,-4.4615,-4.4615,-4.4615,-4.4615,-4.4615,-4.4615,-4.4615,-4.4615,-4.4615,-4.4615,-4.4615,-4.4615,-4.4615,-4.4615,-4.4615,-4.4615,-4.4615,-4.4615,0.0,0.0,0.0,-4.4615,-4.4615,-4.4615,-4.4615,-4.4615,-4.4045,-4.3606,-4.3409,-4.2371,-4.1305,-4.0417,-4.0197,-4.0096,-4.0096,0.0,0.0,0.0,0.0,-4.0096,-4.0096,0.0,-4.0096,-4.0096,-4.0096,-4.0096,-4.0113,-4.0265,-4.073,-4.1474,-4.2202,-4.2963,-4.3707,-4.4333,-4.4615,-4.4615,-4.4615,-4.4615,-4.4615,-4.4615,-4.4615,-4.4615,-4.9144,-4.9011,-4.8796,-4.8117,-4.8001,-4.8001,-4.8001,-4.8001,-4.8001,-4.8001,-4.8001,-4.8001,-4.8001,-4.8001,-4.8001,-4.8001,-4.8001,-4.8001,-4.8001,-4.8001,-4.8001,-4.8001,-4.7934,-4.7587,-4.6908,-4.6758,-4.603,-4.4688,-4.4622,-4.4257,-4.3598,-4.3598,-4.3598,0.0,0.0,0.0,0.0,-4.3598,-4.3598,-4.3598,-4.3598,-4.3598,-4.3598,-4.3598,-4.3598,-4.3628,-4.3839,-4.3763,-4.3717,-4.4167,-4.431,-4.4338,-4.4542,-4.4615,-4.4615,-4.4615,-4.4615,-4.4615,-4.4615,-4.4615,-4.4615,-4.4615,-4.4615,-4.4615,-4.4615,-4.4615,-4.4615,-4.4615,-4.4615,-4.4615,-4.4615,-4.4615,-4.4615,0.0,0.0,-4.4615,-4.4615,-4.4615,-4.4615,-4.4615,-4.4547,-4.4198,-4.346,-4.3274,-4.2625,-4.1204,-4.0485,-4.0096,0.0,0.0,0.0,-4.0096,-4.0096,-4.0096,-4.0096,-4.0096,-4.0096,-4.0096,-4.0096,-4.0096,-4.013,-4.0781,-4.1508,-4.2236,-4.298,-4.3758,-4.4496,-4.4581,-4.4615,-4.4615,-4.4615,-4.4615,-4.4615,-4.4615,-4.4615,-4.4615,-4.9839,-4.9773,-4.9541,-4.8796,-4.8663,-4.8514,-4.8067,-4.8001,-4.8001,-4.8001,-4.8001,-4.8001,-4.8001,-4.8001,-4.8001,-4.8001,-4.8001,-4.8001,-4.8001,-4.8001,-4.8001,-4.8001,-4.8001,-4.7868,-4.757,-4.7123,-4.6609,-4.6013,-4.5119,-4.4539,-4.4257,-4.3797,-4.3598,0.0,0.0,-4.3598,-4.3598,-4.3598,-4.3598,-4.3598,-4.3598,-4.3598,-4.3598,-4.3598,-4.3598,-4.3598,-4.3687,-4.3658,-4.3658,-4.4068,-4.4184,-4.4241,-4.4514,-4.4615,-4.4615,-4.4615,-4.4615,-4.4615,-4.4615,-4.4615,-4.4615,-4.4615,-4.4615,-4.4615,-4.4615,-4.4615,-4.4615,-4.4615,-4.4615,-4.4615,-4.4615,-4.4615,-4.4615,-4.4615,0.0,0.0,-4.4615,-4.4615,-4.4615,-4.4615,-4.4615,-4.4479,-4.4147,-4.369,-4.3156,-4.2547,-4.1424,-4.0561,0.0,0.0,0.0,-4.0096,0.0,-4.0096,-4.0096,-4.0096,-4.0096,-4.0096,-4.0096,-4.0333,-4.0764,-4.1068,-4.1847,-4.3014,-4.3775,-4.4282,-4.4615,-4.4615,-4.4615,-4.4615,-4.4615,-4.4615,-4.4615,-4.4615,-4.4615,-4.4615,-5.0568,-5.0518,-5.0286,-4.9558,-4.9425,-4.9177,-4.8448,-4.8332,-4.8249,-4.8034,-4.8001,-4.8001,-4.8001,-4.8001,-4.8001,-4.8001,-4.8001,-4.8001,-4.8001,-4.8001,-4.8001,-4.8001,-4.8001,-4.8001,-4.8001,-4.7487,-4.7123,-4.6891,-4.5632,-4.4903,-4.4671,-4.3959,-4.3598,0.0,-4.3598,-4.3598,-4.3598,-4.3598,-4.3598,-4.3598,-4.3598,-4.3598,-4.3598,-4.3598,-4.3598,-4.3598,-4.3598,-4.3598,-4.3658,-4.3981,-4.4097,-4.4155,-4.4485,-4.4615,-4.4615,-4.4615,-4.4542,-4.4542,-4.457,-4.4542,-4.4542,-4.4587,-4.4615,-4.4615,-4.4615,-4.4615,-4.4615,-4.4615,-4.4615,-4.4615,-4.4615,-4.4615,-4.4615,-4.4615,0.0,0.0,-4.4615,-4.4615,-4.4615,-4.4615,-4.4615,-4.4615,-4.4615,-4.4079,-4.3656,-4.3409,-4.2455,0.0,0.0,0.0,0.0,0.0,0.0,0.0,-4.0096,-4.0096,-4.0214,-4.0409,-4.0409,-4.0798,-4.1525,-4.1762,-4.254,-4.3792,-4.4333,-4.4615,-4.4615,-4.4615,-4.4615,-4.4615,-4.4615,-4.4615,-4.4615,-4.4615,-4.4615,-4.4615,-5.1431,-5.1299,-5.1032,-5.032,-5.0204,-4.9955,-4.921,-4.9094,-4.8845,-4.81,-4.8001,-4.8001,-4.8001,-4.8001,-4.8001,-4.8001,-4.8001,-4.8001,-4.8001,-4.8001,-4.8001,-4.8001,-4.8001,-4.8001,-4.8001,-4.7984,-4.7636,-4.6891,-4.6146,-4.54,-4.4671,-4.3959,-4.3598,-4.3598,-4.3598,-4.3598,-4.3598,-4.3598,-4.3598,-4.3598,-4.3598,-4.3598,-4.3598,-4.3598,-4.3598,-4.3598,-4.3598,-4.3598,-4.3658,-4.3981,-4.4097,-4.4155,-4.4485,-4.4615,-4.4615,-4.4615,-4.4468,-4.4338,-4.4542,-4.4468,-4.4338,-4.4542,-4.4615,-4.4615,-4.4615,-4.4615,-4.4615,-4.4615,-4.4615,-4.4615,-4.4615,-4.4615,-4.4615,-4.4615,0.0,0.0,0.0,-4.4615,-4.4615,-4.4615,-4.4615,-4.4615,-4.4615,-4.4598,-4.4248,-4.3443,0.0,0.0,0.0,0.0,0.0,-4.013,-4.0096,0.0,-4.0096,-4.0096,-4.0485,-4.1187,-4.1187,-4.1576,-4.2303,-4.3047,-4.3826,-4.4598,-4.4615,-4.4615,-4.4615,-4.4615,-4.4615,-4.4615,-4.4615,-4.4615,-4.4615,-4.4615,-4.4615,-4.4615,-5.2111,-5.2061,-5.1829,-5.1065,-5.0932,-5.0518,-4.9293,-4.911,-4.8845,-4.81,-4.8001,-4.8001,-4.8001,-4.8001,-4.8001,-4.8001,-4.8001,-4.8001,-4.8001,-4.8001,-4.8001,-4.8001,-4.8001,-4.8001,-4.8001,-4.8001,-4.7885,-4.7653,0.0,0.0,-4.4671,-4.3959,-4.3598,-4.3598,-4.3598,-4.3598,-4.3598,-4.3598,-4.3598,-4.3598,-4.3598,-4.3598,-4.3598,-4.3598,-4.3598,-4.3598,-4.3598,-4.3598,-4.3628,-4.3881,-4.4027,-4.4126,-4.431,-4.4468,-4.457,-4.444,-4.4338,-4.431,-4.427,-4.4281,-4.431,-4.4367,-4.4514,-4.4615,-4.4615,-4.4615,-4.4615,-4.4615,-4.4615,-4.4615,-4.4615,-4.4615,-4.4615,-4.4615,-4.4615,0.0,-4.4615,-4.4615,-4.4615,-4.4615,-4.4615,-4.4615,-4.4615,-4.4615,-4.4496,-4.4231,0.0,0.0,0.0,0.0,0.0,0.0,-4.1593,0.0,-4.1593,-4.1593,-4.1711,-4.1948,-4.1948,-4.2337,-4.3081,-4.3859,-4.435,-4.4615,-4.4615,-4.4615,-4.4615,-4.4615,-4.4615,-4.4615,-4.4615,-4.4615,-4.4615,-4.4615,-4.4615,-4.4615,-5.2409,-5.2409,-5.2224,-5.1796,-5.173,-5.1197,-4.9756,-4.9525,-4.916,-4.8133,-4.8001,-4.8001,-4.8001,-4.8001,-4.8001,-4.8001,-4.8001,-4.8001,-4.8001,-4.8001,-4.8001,-4.8001,-4.8001,-4.8001,-4.8001,-4.8001,0.0,-4.8001,-4.6974,-4.5864,-4.4671,-4.3959,-4.3598,-4.3598,-4.3598,-4.3598,-4.3598,-4.3598,-4.3598,-4.3598,-4.3598,-4.3598,-4.3598,-4.3598,-4.3598,-4.3598,-4.3598,-4.3598,-4.3628,-4.3822,-4.3956,-4.4056,-4.4167,-4.4298,-4.44,-4.431,-4.4253,-4.4212,-4.4126,-4.4155,-4.4224,-4.4281,-4.444,-4.457,-4.4497,-4.4468,-4.4468,-4.4468,-4.4468,-4.4514,-4.4587,-4.4615,-4.4615,-4.4615,-4.4615,-4.4615,-4.4615,-4.4615,-4.4615,-4.4615,-4.4615,-4.4615,-4.4615,-4.4615,-4.4615,0.0,0.0,0.0,0.0,0.0,-4.2591,-4.2303,-4.2286,-4.2286,-4.2286,-4.2286,-4.2439,-4.2726,-4.3014,-4.3403,-4.3876,-4.435,-4.4615,-4.4615,-4.4615,-4.4615,-4.4615,-4.4615,-4.4615,-4.4615,-4.4615,-4.4615,-4.4615,-4.4615,-4.4615,-4.4615,-5.2409,-5.2409,-5.2409,-5.2409,-5.2409,-5.1893,-5.0436,-5.022,-4.9674,-4.8199,-4.8001,-4.8001,-4.8001,-4.8001,-4.8001,-4.8001,0.0,0.0,-4.8001,-4.8001,-4.8001,-4.8001,-4.8001,-4.8001,-4.8001,-4.8001,-4.8001,-4.8001,-4.651,-4.5433,-4.4754,-4.3976,-4.3598,-4.3598,-4.3598,-4.3598,-4.3598,-4.3598,-4.3598,-4.3598,-4.3598,-4.3598,-4.3598,-4.3598,-4.3598,-4.3598,-4.3598,-4.3598,-4.3628,-4.3839,-4.3898,-4.3927,-4.4056,-4.4097,-4.4126,-4.4253,-4.4167,-4.4068,-4.4068,-4.4068,-4.4126,-4.4253,-4.444,-4.4542,-4.4338,-4.431,-4.431,-4.431,-4.431,-4.4367,-4.457,-4.4615,-4.4615,-4.4615,-4.4615,-4.4615,-4.4615,-4.4615,-4.4615,-4.4615,-4.4615,0.0,-4.4615,-4.4615,-4.4615,0.0,0.0,0.0,0.0,0.0,-4.3183,-4.2472,-4.2455,-4.2455,-4.2455,-4.2455,-4.2794,-4.3477,-4.4231,-4.4615,-4.4615,-4.4615,-4.4615,-4.4615,-4.4615,-4.4615,-4.4615,-4.4615,-4.4615,-4.4615,-4.4615,-4.4615,-4.4615,-4.4615,-4.4615,-4.4615,-5.2409,-5.2409,-5.2409,-5.2409,-5.2409,-5.1893,-5.0436,-5.022,-4.9674,-4.8199,-4.8001,-4.8001,-4.8001,-4.8001,-4.8001,-4.8001,-4.8001,-4.8001,-4.8001,-4.8001,-4.8001,-4.8001,-4.8001,-4.8001,-4.8001,-4.8001,-4.8001,-4.8001,-4.651,-4.5698,-4.55,-4.4194,-4.3598,-4.3598,-4.3598,-4.3598,-4.3598,-4.3598,-4.3598,-4.3598,-4.3598,-4.3598,-4.3598,-4.3598,-4.3598,-4.3598,-4.3598,-4.3598,-4.3598,-4.3658,-4.3763,-4.3898,-4.3927,-4.4027,-4.4085,-4.4027,-4.3969,-4.391,-4.3747,-4.3894,-4.4097,-4.4155,-4.4253,-4.4367,-4.431,-4.431,-4.431,-4.431,-4.4412,-4.4542,-4.4598,-4.4615,-4.4615,-4.4615,-4.4615,-4.4615,-4.4615,-4.4615,-4.4615,-4.4615,-4.4615,-4.4615,-4.4615,-4.4615,-4.4615,0.0,0.0,-4.4615,-4.4615,-4.4429,-4.4231,-4.4073,-4.4073,-4.4073,-4.4073,-4.4073,-4.4158,-4.4316,-4.4513,-4.4615,-4.4615,-4.4615,-4.4615,-4.4615,-4.4615,-4.4615,-4.4615,-4.4615,-4.4615,-4.4615,-4.4615,-4.4615,-4.4615,-4.4615,-4.4615,-4.4615,-5.2409,-5.2409,-5.2409,-5.2409,-5.2127,-5.1496,-5.0386,-4.9922,-4.9293,-4.815,-4.8001,-4.8001,-4.8001,-4.8001,-4.8001,-4.8001,-4.8001,-4.8001,-4.8001,-4.8001,-4.8001,-4.8001,-4.8001,-4.8001,-4.8001,-4.8001,-4.8001,-4.8001,-4.651,-4.5798,-4.5765,-4.4277,-4.3598,-4.3598,-4.3598,-4.3598,-4.3598,-4.3598,-4.3598,-4.3598,-4.3598,-4.3598,-4.3598,-4.3598,-4.3598,-4.3598,-4.3598,-4.3598,-4.3598,-4.3598,-4.3658,-4.3763,-4.3763,-4.3805,-4.3864,-4.3793,-4.3839,-4.3868,-4.3658,-4.3835,-4.4126,-4.4184,-4.4196,-4.4196,-4.4126,-4.4167,-4.4196,-4.4196,-4.4355,-4.4468,-4.457,-4.4615,-4.4615,-4.4615,-4.4615,-4.4615,-4.4615,-4.4615,-4.4615,-4.4615,-4.4615,-4.4615,-4.4615,-4.4615,-4.4615,-4.4615,-4.4615,0.0,-4.4615,-4.4615,-4.4615,-4.4615,-4.4615,-4.4615,-4.4615,-4.4615,-4.4615,-4.4615,-4.4615,-4.4615,-4.4615,-4.4615,-4.4615,-4.4615,-4.4615,-4.4615,-4.4615,-4.4615,-4.4615,-4.4615,-4.4615,-4.4615,-4.4615,-4.4615,-4.4615,-4.4615,-5.2409,-5.2409,-5.234,-5.2224,-5.173,-5.0999,-5.0171,-4.9508,-4.8845,-4.81,-4.8001,-4.8001,-4.8001,-4.8001,-4.8001,-4.8001,-4.8001,-4.8001,-4.8001,-4.8001,-4.8001,-4.8001,-4.8001,-4.8001,-4.8001,-4.8001,-4.7951,-4.7835,-4.646,-4.5732,-4.5599,-4.4257,-4.3598,-4.3598,-4.3598,-4.3598,-4.3598,-4.3598,-4.3598,-4.3598,-4.3598,-4.3598,-4.3598,-4.3598,-4.3598,-4.3598,-4.3598,-4.3598,-4.3598,-4.3598,-4.3598,-4.3598,-4.3598,-4.3598,-4.3598,-4.3598,-4.3734,-4.3839,-4.3658,-4.3835,-4.4097,-4.4224,-4.4184,-4.4056,-4.3927,-4.3998,-4.4085,-4.4097,-4.4212,-4.4367,-4.457,-4.4615,-4.4615,-4.4615,-4.4615,-4.4615,-4.4615,0.0,-4.4615,-4.4615,-4.4615,-4.4615,-4.4615,-4.4615,-4.4615,-4.4615,-4.4615,-4.4615,-4.4615,-4.4615,-4.4615,-4.4615,-4.4615,-4.4615,-4.4615,-4.4615,-4.4615,-4.4615,-4.4615,-4.4615,-4.4615,-4.4615,-4.4615,-4.4615,-4.4615,-4.4615,-4.4615,-4.4615,-4.4615,-4.4615,-4.4615,-4.4615,-4.4615,-4.4615,-4.4615,-4.4615,-5.2409,-5.2409,-5.221,-5.1597,-5.1398,-5.0817,-4.9491,-4.9177,-4.8845,-4.81,-4.8001,-4.8001,-4.8001,-4.8001,-4.8001,-4.8001,-4.8001,-4.8001,-4.8001,-4.8001,-4.8001,-4.8001,-4.8001,-4.8001,-4.8001,-4.8001,-4.7703,-4.7073,-4.6212,-4.5467,-4.4837,-4.4009,-4.3598,-4.3598,-4.3598,-4.3598,-4.3598,-4.3598,-4.3598,-4.3598,-4.3598,-4.3598,-4.3598,-4.3598,-4.3598,-4.3598,-4.3598,-4.3598,-4.3598,-4.3598,-4.3598,-4.3598,-4.3598,-4.3598,-4.3598,-4.3598,-4.3628,-4.3628,-4.3598,-4.3763,-4.3969,-4.4097,-4.4027,-4.3927,-4.3898,-4.3927,-4.3969,-4.4085,-4.4212,-4.4367,-4.457,-4.4615,-4.4615,-4.4615,-4.4615,-4.4615,-4.4615,0.0,-4.4615,-4.4615,-4.4615,-4.4615,-4.4615,-4.4615,-4.4615,-4.4615,-4.4615,-4.4615,-4.4615,-4.4615,-4.4615,-4.4615,-4.4615,-4.4615,-4.4615,-4.4615,-4.4615,-4.4615,-4.4615,-4.4615,-4.4615,-4.4615,-4.4615,-4.4615,-4.4615,-4.4615,-4.4615,-4.4615,-4.4615,-4.4615,-4.4615,-4.4615,-4.4615,-4.4615,-4.4615,-4.4615,-5.2409,-5.2094,-5.1713,-5.1365,-5.0618,-4.9889,-4.921,-4.8763,-4.8398,-4.805,-4.8001,-4.8001,-4.8001,-4.8001,-4.8001,-4.8001,-4.8001,-4.8001,-4.8001,-4.8001,-4.8001,-4.8001,-4.8001,-4.8001,-4.8001,-4.7603,-4.7239,-4.6891,-4.5748,-4.5019,-4.4671,-4.3959,-4.3598,-4.3598,-4.3598,-4.3598,-4.3598,-4.3598,-4.3598,-4.3598,-4.3598,-4.3598,-4.3598,-4.3598,-4.3598,-4.3598,-4.3598,-4.3598,-4.3598,-4.3598,-4.3598,-4.3598,-4.3598,-4.3598,-4.3598,-4.3598,-4.3598,-4.3628,-4.3734,-4.3763,-4.3793,-4.3939,-4.3852,-4.3734,-4.3734,-4.3881,-4.4027,-4.4085,-4.4298,-4.4468,-4.457,-4.4615,-4.4615,-4.4615,-4.4615,-4.4615,-4.4615,-4.4615,-4.4615,-4.4615,-4.4615,-4.4615,-4.4615,-4.4615,-4.4615,-4.4615,-4.4615,-4.4615,-4.4615,-4.4615,-4.4615,-4.4615,-4.4615,-4.4615,-4.4615,-4.4615,-4.4615,-4.4615,-4.4615,-4.4615,-4.4615,-4.4615,-4.4615,-4.4615,-4.4615,-4.4615,-4.4615,-4.4615,-4.4615,-4.4615,-4.4615,-4.4615,-4.4615,-4.4615,-4.4615,-4.4615,-5.2161,-5.1564,-5.0982,-5.08,-4.9839,-4.9044,-4.8879,-4.8365,-4.8001,-4.8001,-4.8001,-4.8001,-4.8001,-4.8001,-4.8001,-4.8001,-4.8001,-4.8001,-4.8001,-4.8001,-4.8001,-4.8001,-4.8001,-4.7918,-4.7752,-4.7189,-4.6725,-4.6378,-4.5235,-4.4605,-4.4423,-4.3876,-4.3598,-4.3598,-4.3598,-4.3598,-4.3598,-4.3598,-4.3598,-4.3598,-4.3598,-4.3598,-4.3598,-4.3598,-4.3598,-4.3598,-4.3598,-4.3598,-4.3598,-4.3598,-4.3598,-4.3598,-4.3598,-4.3598,-4.3598,-4.3598,-4.3598,-4.3628,-4.3793,-4.3734,-4.3628,-4.3793,-4.3704,-4.3628,-4.3658,-4.3881,-4.4068,-4.4126,-4.4355,-4.4542,-4.4598,-4.4615,-4.4615,-4.4615,0.0,-4.4615,-4.4615,-4.4615,-4.4615,-4.4615,-4.4615,-4.4615,-4.4615,-4.4615,-4.4615,-4.4615,-4.4615,-4.4615,-4.4615,-4.4615,-4.4615,-4.4615,-4.4615,-4.4615,-4.4615,-4.4615,-4.4615,-4.4615,-4.4615,-4.4615,-4.4615,-4.4615,-4.4615,-4.4615,-4.4615,-4.4615,-4.4615,-4.4615,-4.4615,-4.4615,-4.4615,-4.4615,-4.4615,-4.4615,-4.4615,-4.4615,-5.1398,-5.0783,-5.0088,-4.9392,-4.9177,-4.8879,-4.8199,-4.8034,-4.8001,-4.8001,-4.8001,-4.8001,-4.8001,-4.8001,-4.8001,-4.8001,-4.8001,-4.8001,-4.8001,-4.8001,-4.8001,-4.8001,-4.8001,-4.7686,-4.699,-4.6924,-4.6228,-4.4854,-4.4738,-4.4357,-4.3664,-4.3615,-4.3598,-4.3598,-4.3598,-4.3598,-4.3598,-4.3598,-4.3598,-4.3598,-4.3598,-4.3598,-4.3598,-4.3598,-4.3598,-4.3598,-4.3598,-4.3598,-4.3598,-4.3598,-4.3598,-4.3598,-4.3598,-4.3598,-4.3598,-4.3598,-4.3598,-4.3598,-4.3628,-4.3628,-4.3598,-4.3628,-4.3598,-4.3658,-4.3839,-4.3898,-4.3969,-4.4224,-4.431,-4.4367,-4.457,-4.4615,-4.4615,-4.4615,0.0,0.0,-4.4615,-4.4615,-4.4615,-4.4615,-4.4615,-4.4615,-4.4615,-4.4615,-4.4615,-4.4615,-4.4615,-4.4615,-4.4615,-4.4615,-4.4615,-4.4615,-4.4615,-4.4615,-4.4615,-4.4615,-4.4615,-4.4615,-4.4615,-4.4615,-4.4615,-4.4615,-4.4615,-4.4615,-4.4615,-4.4615,-4.4615,-4.4615,-4.4615,-4.4615,-4.4615,-4.4615,-4.4615,-4.4615,-4.4615,-4.4615,-5.0701,-5.0021,-4.9442,-4.916,-4.873,-4.8332,-4.805,-4.8001,-4.8001,-4.8001,-4.8001,-4.8001,-4.8001,-4.8001,-4.8001,-4.8001,-4.8001,-4.8001,-4.8001,-4.8001,-4.8001,-4.8001,-4.7554,-4.7189,-4.6908,-4.5997,-4.5251,-4.4688,-4.4241,-4.3863,-4.3598,-4.3598,-4.3598,-4.3598,-4.3598,-4.3598,-4.3598,-4.3598,-4.3598,-4.3598,-4.3598,-4.3598,-4.3598,-4.3598,-4.3598,-4.3598,-4.3598,-4.3598,-4.3598,-4.3598,-4.3598,-4.3598,-4.3598,-4.3598,-4.3598,-4.3598,-4.3598,-4.3598,-4.3598,-4.3598,-4.3598,-4.3598,-4.3598,-4.3658,-4.3868,-4.3969,-4.4085,-4.4253,-4.4412,-4.4514,-4.4587,-4.4615,-4.4615,-4.4615,0.0,-4.4615,-4.4615,-4.4615,-4.4615,-4.4615,-4.4615,-4.4615,-4.4615,-4.4615,-4.4615,-4.4615,-4.4615,-4.4615,-4.4615,-4.4615,-4.4615,-4.4615,-4.4615,-4.4615,-4.4615,-4.4615,-4.4615,-4.4615,-4.4615,-4.4615,-4.4615,-4.4615,-4.4615,-4.4615,-4.4615,-4.4615,-4.4615,-4.4615,-4.4615,-4.4615,-4.4615,-4.4615,-4.4615,-4.4615,-4.4615,-4.4615,-4.9955,-4.9276,-4.8763,-4.8763,-4.8349,-4.8001,-4.8001,-4.8001,-4.8001,-4.8001,-4.8001,-4.8001,-4.8001,-4.8001,-4.8001,-4.8001,-4.8001,-4.8001,-4.8001,-4.7785,-4.7653,-4.7653,-4.7173,-4.6676,-4.6212,-4.5202,-4.4572,-4.4357,-4.383,-4.3598,-4.3598,-4.3598,-4.3598,-4.3598,-4.3598,-4.3598,-4.3598,-4.3598,-4.3598,-4.3598,-4.3598,-4.3598,-4.3598,-4.3598,-4.3598,-4.3598,-4.3598,-4.3598,-4.3598,-4.3598,-4.3598,-4.3598,-4.3598,-4.3598,-4.3598,-4.3598,-4.3598,-4.3598,-4.3598,-4.3598,-4.3598,-4.3598,-4.3658,-4.3747,-4.391,-4.4085,-4.4212,-4.4367,-4.4497,-4.4615,-4.4615,-4.4615,-4.4615,-4.4615,-4.4615,-4.4615,-4.4615,-4.4615,-4.4615,-4.4615,-4.4615,-4.4615,-4.4615,-4.4615,-4.4615,-4.4615,-4.4615,-4.4615,-4.4615,-4.4615,-4.4615,-4.4615,-4.4615,-4.4615,-4.4615,-4.4615,-4.4615,-4.4615,-4.4615,-4.4615,-4.4615,-4.4615,-4.4615,-4.4615,-4.4615,-4.4615,-4.4615,-4.4615,-4.4615,-4.4615,-4.4615,-4.4615,-4.4615,-4.4615,-4.4615,-4.4615,-4.9094,-4.8514,-4.8001,-4.8001,-4.8001,-4.8001,-4.8001,-4.8001,-4.8001,-4.8001,-4.8001,-4.8001,-4.8001,-4.8001,-4.8001,-4.8001,-4.8001,-4.8001,-4.7984,-4.7305,-4.6891,-4.6874,-4.6874,-4.6195,-4.4721,-4.4671,-4.4324,-4.3598,-4.3598,-4.3598,-4.3598,-4.3598,-4.3598,-4.3598,-4.3598,-4.3598,-4.3598,-4.3598,-4.3598,-4.3598,-4.3598,-4.3598,-4.3598,-4.3598,-4.3598,-4.3598,-4.3598,-4.3598,-4.3598,-4.3598,-4.3598,-4.3598,-4.3598,-4.3598,-4.3598,-4.3598,-4.3598,-4.3598,-4.3598,-4.3598,-4.3598,-4.3598,-4.3763,-4.3927,-4.4068,-4.4196,-4.4367,-4.4542,-4.4615,-4.4615,-4.4615,-4.4615,-4.4615,-4.4615,-4.4615,-4.4615,-4.4615,-4.4615,-4.4615,-4.4615,-4.4615,-4.4615,-4.4615,-4.4615,-4.4615,-4.4615,-4.4615,-4.4615,-4.4615,-4.4615,-4.4615,-4.4615,-4.4615,-4.4615,-4.4615,-4.4615,-4.4615,-4.4615,-4.4615,-4.4615,-4.4615,-4.4615,-4.4615,-4.4615,-4.4615,-4.4615,-4.4615,-4.4615,-4.4615,-4.4615,-4.4615,-4.4615,-4.4615,-4.4615,-4.4615,-4.4615,-4.8431,-4.815,-4.8001,-4.8001,-4.8001,-4.8001,-4.8001,-4.8001,-4.8001,-4.8001,-4.8001,-4.8001,-4.8001,-4.8001,-4.8001,-4.8001,-4.8001,-4.7785,-4.7255,-4.7023,-4.6444,-4.5384,-4.5351,-4.5135,-4.4705,-4.4191,-4.3813,-4.3598,-4.3598,-4.3598,-4.3598,-4.3598,-4.3598,-4.3598,-4.3598,-4.3598,-4.3598,-4.3598,-4.3598,-4.3598,-4.3598,-4.3598,-4.3598,-4.3598,-4.3598,-4.3598,-4.3598,-4.3598,-4.3598,-4.3598,-4.3598,-4.3598,-4.3598,-4.3598,-4.3598,-4.3598,-4.3598,-4.3598,-4.3598,-4.3598,-4.3628,-4.3763,-4.3868,-4.3956,-4.4196,-4.4281,-4.4367,-4.4542,-4.4615,-4.4615,-4.4615,-4.4615,-4.4615,-4.4615,-4.4615,-4.4615,-4.4615,-4.4615,-4.4615,-4.4615,-4.4615,-4.4615,-4.4615,-4.4615,-4.4615,-4.4615,-4.4615,-4.4615,-4.4615,-4.4615,-4.4615,-4.4615,-4.4615,-4.4615,-4.4615,-4.4615,-4.4615,-4.4615,-4.4615,-4.4615,-4.4615,-4.4615,-4.4615,-4.4615,-4.4615,-4.4615,-4.4615,-4.4615,-4.4615,-4.4615,-4.4615,-4.4615,-4.4615,-4.4615,-4.4615,-4.4615,-4.81,-4.8001,-4.8001,-4.8001,-4.8001,-4.8001,-4.8001,-4.8001,-4.8001,-4.8001,-4.8001,-4.8001,-4.8001,-4.8001,-4.8001,-4.8001,-4.7736,-4.7371,-4.6924,-4.6344,-4.5616,-4.4752,-4.4423,-4.4257,-4.4257,-4.3843,-4.3598,-4.3598,-4.3598,-4.3598,-4.3598,-4.3598,-4.3598,-4.3598,-4.3598,-4.3598,-4.3598,-4.3598,-4.3598,-4.3598,-4.3598,-4.3598,-4.3598,-4.3598,-4.3598,-4.3598,-4.3598,-4.3598,-4.3598,-4.3598,-4.3598,-4.3598,-4.3598,-4.3598,-4.3598,-4.3598,-4.3598,-4.3598,-4.3598,-4.3598,-4.3658,-4.3868,-4.3898,-4.3956,-4.4097,-4.4167,-4.427,-4.4372,-4.444,-4.4468,-4.4468,-4.4542,-4.4615,-4.4615,-4.4615,-4.4615,-4.4615,-4.4615,-4.4615,-4.4615,-4.4615,-4.4615,-4.4615,-4.4615,-4.4615,-4.4615,-4.4615,-4.4615,-4.4615,-4.4615,-4.4615,-4.4615,-4.4615,-4.4615,-4.4615,-4.4615,-4.4615,-4.4615,-4.4615,-4.4615,-4.4615,-4.4615,-4.4615,-4.4615,-4.4615,-4.4615,-4.4615,-4.4615,-4.4615,-4.4615,-4.4615,-4.4615,-4.4615,-4.4615,-4.4615,-4.4615,-4.7886,-4.7968,-4.8001,-4.8001,-4.8001,-4.8001,-4.8001,-4.8001,-4.8001,-4.8001,-4.8001,-4.8001,-4.8001,-4.8001,-4.8001,-4.8001,-4.7322,-4.6841,-4.6709,-4.5433,-4.4655,-4.4589,-4.3976,-4.3598,-4.3598,-4.3598,-4.3598,-4.3598,-4.3598,-4.3598,-4.3598,-4.3598,-4.3598,-4.3598,-4.3598,-4.3598,-4.3598,-4.3598,-4.3598,-4.3598,-4.3598,-4.3598,-4.3598,-4.3598,-4.3598,-4.3598,-4.3598,-4.3598,-4.3598,-4.3598,-4.3598,-4.3598,-4.3598,-4.3598,-4.3598,-4.3598,-4.3598,-4.3598,-4.3598,-4.3598,-4.3628,-4.3839,-4.3868,-4.3898,-4.3898,-4.3998,-4.4097,-4.4126,-4.4224,-4.431,-4.4338,-4.4468,-4.4615,-4.4615,-4.4615,-4.4615,-4.4615,-4.4615,-4.4615,-4.4615,-4.4615,-4.4615,-4.4615,-4.4615,-4.4615,-4.4615,-4.4615,-4.4615,-4.4615,-4.4615,-4.4615,-4.4615,-4.4615,-4.4615,-4.4615,-4.4615,-4.4615,-4.4615,-4.4615,-4.4615,-4.4615,-4.4615,-4.4615,-4.4615,-4.4615,-4.4615,-4.4615,-4.4615,-4.4615,-4.4615,-4.4615,-4.4615,-4.4615,-4.4615,-4.4615,-4.4615,-4.7067,-4.7555,-4.8001,-4.8001,-4.8001,-4.8001,-4.8001,-4.8001,-4.8001,-4.8001,-4.8001,-4.8001,-4.8001,-4.8001,-4.8001,-4.8001,-4.7322,-4.6411,-4.5235,-4.4901,-4.444,-4.3876,-4.3681,-4.3598,-4.3598,-4.3598,-4.3598,-4.3598,-4.3598,-4.3598,-4.3598,-4.3598,-4.3598,-4.3598,-4.3598,-4.3598,-4.3598,-4.3598,-4.3598,-4.3598,-4.3598,-4.3598,-4.3598,-4.3598,-4.3598,-4.3598,-4.3598,-4.3598,-4.3598,-4.3598,-4.3598,-4.3598,-4.3598,-4.3598,-4.3598,-4.3598,-4.3598,-4.3598,-4.3598,-4.3598,-4.3598,-4.3658,-4.3658,-4.3717,-4.3998,-4.4068,-4.4126,-4.4224,-4.4281,-4.4338,-4.4514,-4.457,-4.4615,-4.4615,-4.4615,-4.4615,-4.4615,-4.4615,-4.4615,-4.4615,-4.4615,-4.4615,-4.4615,-4.4615,-4.4615,-4.4615,-4.4615,-4.4615,-4.4615,-4.4615,-4.4615,-4.4615,-4.4615,-4.4615,-4.4615,-4.4615,-4.4615,-4.4615,-4.4615,-4.4615,-4.4615,-4.4615,-4.4615,-4.4615,-4.4615,-4.4615,-4.4615,-4.4615,-4.4615,-4.4615,-4.4615,-4.4615,-4.4615,-4.4615,-4.4615,-4.4615,-4.6742,-4.7152,-4.7555,-4.7935,-4.8001,-4.8001,-4.8001,-4.8001,-4.8001,-4.8001,-4.8001,-4.8001,-4.8001,-4.7686,-4.7338,-4.6974,-4.6278,-4.5516,-4.4738,-4.4373,-4.4009,-4.3615,-4.3598,-4.3598,-4.3598,-4.3598,-4.3598,-4.3598,-4.3598,-4.3598,-4.3598,-4.3598,-4.3598,-4.3598,-4.3598,-4.3598,-4.3598,-4.3598,-4.3598,-4.3598,-4.3598,-4.3598,-4.3598,-4.3598,-4.3598,-4.3598,-4.3598,-4.3598,-4.3598,-4.3598,-4.3598,-4.3598,-4.3598,-4.3598,-4.3598,-4.3598,-4.3598,-4.3598,-4.3598,-4.3598,-4.3598,-4.3598,-4.3598,-4.3658,-4.3835,-4.3864,-4.3894,-4.4068,-4.4155,-4.427,-4.444,-4.4542,-4.4615,-4.4615,-4.4615,-4.4615,-4.4615,-4.4615,-4.4615,-4.4615,-4.4615,-4.4615,-4.4615,-4.4615,-4.4615,-4.4615,-4.4615,-4.4615,-4.4615,-4.4615,-4.4615,-4.4615,-4.4615,-4.4615,-4.4615,-4.4615,-4.4615,-4.4615,-4.4615,-4.4615,-4.4615,-4.4615,-4.4615,-4.4615,-4.4615,-4.4615,-4.4615,-4.4615,-4.4615,-4.4615,-4.4615,-4.4615,-4.4615,-4.4615,-4.4615,-4.4615,-4.6499,-4.6828,-4.7236,-4.7886,-4.8001,-4.8001,-4.8001,-4.8001,-4.8001,-4.8001,-4.8001,-4.7951,-4.7835,-4.7156,-4.6411,-4.5665,-4.5036,-4.4638,-4.4506,-4.3959,-4.3598,-4.3598,-4.3598,-4.3598,-4.3598,-4.3598,-4.3598,-4.3598,-4.3598,-4.3598,-4.3598,-4.3598,-4.3598,-4.3598,-4.3598,-4.3598,-4.3598,-4.3598,-4.3598,-4.3598,-4.3598,-4.3598,-4.3598,-4.3598,-4.3598,-4.3598,-4.3598,-4.3598,-4.3598,-4.3598,-4.3598,-4.3598,-4.3598,-4.3598,-4.3598,-4.3598,-4.3598,-4.3598,-4.3598,-4.3598,-4.3598,-4.3598,-4.3598,-4.3598,-4.3598,-4.3628,-4.3704,-4.3898,-4.4056,-4.4184,-4.431,-4.4468,-4.457,-4.4598,-4.457,-4.457,-4.4615,-4.4615,-4.4615,-4.4615,-4.457,-4.457,-4.4615,-4.457,-4.457,-4.4615,-4.4615,-4.4615,-4.4615,-4.4615,-4.4615,-4.4615,-4.4615,-4.4615,-4.4615,-4.4615,-4.4615,-4.4615,-4.4615,-4.4615,-4.4615,-4.4615,-4.4615,-4.4615,-4.4615,-4.4615,-4.4615,-4.4615,-4.4615,-4.4615,-4.4615,-4.4615,-4.4615,-4.4615,-4.4615,-4.4615,-4.5841,-4.6913,-4.7853,-4.7968,-4.8001,-4.8001,-4.8001,-4.8001,-4.8001,-4.8001,-4.8001,-4.7769,-4.7123,-4.6394,-4.5649,-4.4903,-4.4754,-4.4423,-4.378,-4.3648,-4.3598,-4.3598,-4.3598,-4.3598,-4.3598,-4.3598,-4.3598,-4.3598,-4.3598,-4.3598,-4.3598,-4.3598,-4.3598,-4.3598,-4.3598,-4.3598,-4.3598,-4.3598,-4.3598,-4.3598,-4.3598,-4.3598,-4.3598,-4.3598,-4.3598,-4.3598,-4.3598,-4.3598,-4.3598,-4.3598,-4.3598,-4.3598,-4.3598,-4.3598,-4.3598,-4.3598,-4.3598,-4.3598,-4.3598,-4.3598,-4.3598,-4.3598,-4.3598,-4.3598,-4.3598,-4.3734,-4.3898,-4.4039,-4.4184,-4.4338,-4.4542,-4.444,-4.4412,-4.457,-4.4468,-4.4395,-4.457,-4.4615,-4.4615,-4.4615,-4.444,-4.4412,-4.457,-4.444,-4.4412,-4.4587,-4.4615,-4.4615,-4.4615,-4.4615,-4.4615,-4.4615,-4.4615,-4.4615,-4.4615,-4.4615,-4.4615,-4.4615,-4.4615,-4.4615,-4.4615,-4.4615,-4.4615,-4.4615,-4.4615,-4.4615,-4.4615,-4.4615,-4.4615,-4.4615,-4.4615,-4.4615,-4.4615,-4.4615,-4.4615,-4.4615,-4.5515,-4.6234,-4.6997,-4.7853,-4.8001,-4.8001,-4.8001,-4.8001,-4.8001,-4.8001,-4.7636,-4.7255,-4.6941,-4.5864,-4.4887,-4.4158,-4.4092,-4.3959,-4.3615,-4.3598,-4.3598,-4.3598,-4.3598,-4.3598,-4.3598,-4.3598,-4.3598,-4.3598,-4.3598,-4.3598,-4.3598,-4.3598,-4.3598,-4.3598,-4.3598,-4.3598,-4.3598,-4.3598,-4.3598,-4.3598,-4.3598,-4.3598,-4.3598,-4.3598,-4.3598,-4.3598,-4.3598,-4.3598,-4.3598,-4.3598,-4.3598,-4.3598,-4.3598,-4.3598,-4.3598,-4.3598,-4.3598,-4.3598,-4.3598,-4.3598,-4.3598,-4.3598,-4.3598,-4.3598,-4.3598,-4.3763,-4.3927,-4.3985,-4.4027,-4.4126,-4.4286,-4.4241,-4.4212,-4.4315,-4.4327,-4.4338,-4.4412,-4.444,-4.4412,-4.4344,-4.4241,-4.4253,-4.4412,-4.4338,-4.4367,-4.457,-4.4615,-4.4615,-4.4615,-4.4615,-4.4615,-4.4615,-4.4615,-4.4615,-4.4615,-4.4615,-4.4615,-4.4615,-4.4615,-4.4615,-4.4615,-4.4615,-4.4615,-4.4615,-4.4615,-4.4615,-4.4615,-4.4615,-4.4615,-4.4615,-4.4615,-4.4615,-4.4615,-4.4615,-4.4615,-4.4615]}]]